Wetterdaten: Samstag, 16.07.2016
Datum Zeit Temp. A. Temp. A. max Feuchte A. Luftdruck Regen Wind Richtung Richtung Sonnenschein ET UV Solar Taupunkt Windben
16.07.2016 00:00 8,8 C 8,8 C 96 % 1027,3 hPa 0,0 mm 0,0 km/h (0 Bft) O 100 0 min 0,000 mm 0,0 UV-I 0 W/m 8,2 C 0,0 km/h (0 Bft)
16.07.2016 00:01 8,8 C 8,8 C 96 % 1027,3 hPa 0,0 mm 0,0 km/h (0 Bft) O 100 0 min 0,000 mm 0,0 UV-I 0 W/m 8,2 C 0,0 km/h (0 Bft)
16.07.2016 00:02 8,8 C 8,8 C 96 % 1027,3 hPa 0,0 mm 0,0 km/h (0 Bft) O 100 0 min 0,000 mm 0,0 UV-I 0 W/m 8,2 C 0,0 km/h (0 Bft)
16.07.2016 00:03 8,7 C 8,8 C 96 % 1027,3 hPa 0,0 mm 0,0 km/h (0 Bft) O 100 0 min 0,000 mm 0,0 UV-I 0 W/m 8,1 C 0,0 km/h (0 Bft)
16.07.2016 00:04 8,7 C 8,7 C 96 % 1027,3 hPa 0,0 mm 0,0 km/h (0 Bft) O 100 0 min 0,000 mm 0,0 UV-I 0 W/m 8,1 C 0,0 km/h (0 Bft)
16.07.2016 00:05 8,7 C 8,7 C 96 % 1027,3 hPa 0,0 mm 0,0 km/h (0 Bft) O 100 0 min 0,000 mm 0,0 UV-I 0 W/m 8,1 C 0,0 km/h (0 Bft)
16.07.2016 00:06 8,7 C 8,7 C 96 % 1027,3 hPa 0,0 mm 0,1 km/h (0 Bft) O 100 0 min 0,000 mm 0,0 UV-I 0 W/m 8,1 C 1,6 km/h (1 Bft)
16.07.2016 00:07 8,7 C 8,7 C 96 % 1027,3 hPa 0,0 mm 2,9 km/h (1 Bft) O 100 0 min 0,000 mm 0,0 UV-I 0 W/m 8,1 C 3,2 km/h (1 Bft)
16.07.2016 00:08 8,7 C 8,7 C 96 % 1027,3 hPa 0,0 mm 1,6 km/h (1 Bft) O 100 0 min 0,000 mm 0,0 UV-I 0 W/m 8,1 C 3,2 km/h (1 Bft)
16.07.2016 00:09 8,7 C 8,7 C 96 % 1027,3 hPa 0,0 mm 0,4 km/h (0 Bft) O 100 0 min 0,000 mm 0,0 UV-I 0 W/m 8,1 C 1,6 km/h (1 Bft)
16.07.2016 00:10 8,7 C 8,7 C 96 % 1027,3 hPa 0,0 mm 0,0 km/h (0 Bft) O 100 0 min 0,000 mm 0,0 UV-I 0 W/m 8,1 C 0,0 km/h (0 Bft)
16.07.2016 00:11 8,7 C 8,7 C 96 % 1027,3 hPa 0,0 mm 0,0 km/h (0 Bft) O 100 0 min 0,000 mm 0,0 UV-I 0 W/m 8,1 C 0,0 km/h (0 Bft)
16.07.2016 00:12 8,7 C 8,7 C 96 % 1027,3 hPa 0,0 mm 1,1 km/h (1 Bft) S 170 0 min 0,000 mm 0,0 UV-I 0 W/m 8,1 C 3,2 km/h (1 Bft)
16.07.2016 00:13 8,7 C 8,7 C 96 % 1027,2 hPa 0,0 mm 5,0 km/h (1 Bft) S-SO 152 0 min 0,000 mm 0,0 UV-I 0 W/m 8,1 C 6,4 km/h (2 Bft)
16.07.2016 00:14 8,7 C 8,7 C 96 % 1027,2 hPa 0,0 mm 3,6 km/h (1 Bft) S-SO 151 0 min 0,000 mm 0,0 UV-I 0 W/m 8,1 C 4,8 km/h (1 Bft)
16.07.2016 00:15 8,7 C 8,7 C 96 % 1027,2 hPa 0,0 mm 3,2 km/h (1 Bft) S-SO 151 0 min 0,000 mm 0,0 UV-I 0 W/m 8,1 C 4,8 km/h (1 Bft)
16.07.2016 00:16 8,7 C 8,7 C 96 % 1027,2 hPa 0,0 mm 2,7 km/h (1 Bft) S-SO 151 0 min 0,000 mm 0,0 UV-I 0 W/m 8,1 C 3,2 km/h (1 Bft)
16.07.2016 00:17 8,7 C 8,7 C 96 % 1027,2 hPa 0,0 mm 2,3 km/h (1 Bft) S-SO 152 0 min 0,000 mm 0,0 UV-I 0 W/m 8,1 C 3,2 km/h (1 Bft)
16.07.2016 00:18 8,6 C 8,7 C 96 % 1027,3 hPa 0,0 mm 2,5 km/h (1 Bft) S-SO 151 0 min 0,000 mm 0,0 UV-I 0 W/m 8,0 C 3,2 km/h (1 Bft)
16.07.2016 00:19 8,7 C 8,7 C 96 % 1027,3 hPa 0,0 mm 3,6 km/h (1 Bft) S-SO 151 0 min 0,000 mm 0,0 UV-I 0 W/m 8,1 C 4,8 km/h (1 Bft)
16.07.2016 00:20 8,7 C 8,7 C 96 % 1027,4 hPa 0,0 mm 3,2 km/h (1 Bft) S-SO 150 0 min 0,000 mm 0,0 UV-I 0 W/m 8,1 C 4,8 km/h (1 Bft)
16.07.2016 00:21 8,6 C 8,7 C 96 % 1027,4 hPa 0,0 mm 2,0 km/h (1 Bft) S-SO 150 0 min 0,000 mm 0,0 UV-I 0 W/m 8,0 C 3,2 km/h (1 Bft)
16.07.2016 00:22 8,5 C 8,6 C 96 % 1027,4 hPa 0,0 mm 0,5 km/h (0 Bft) S-SO 150 0 min 0,000 mm 0,0 UV-I 0 W/m 7,9 C 1,6 km/h (1 Bft)
16.07.2016 00:23 8,4 C 8,5 C 95 % 1027,4 hPa 0,0 mm 0,5 km/h (0 Bft) S-SO 150 0 min 0,000 mm 0,0 UV-I 0 W/m 7,6 C 3,2 km/h (1 Bft)
16.07.2016 00:24 8,3 C 8,4 C 95 % 1027,4 hPa 0,0 mm 2,4 km/h (1 Bft) SO 131 0 min 0,000 mm 0,0 UV-I 0 W/m 7,5 C 4,8 km/h (1 Bft)
16.07.2016 00:25 8,3 C 8,3 C 95 % 1027,3 hPa 0,0 mm 1,4 km/h (1 Bft) SO 132 0 min 0,000 mm 0,0 UV-I 0 W/m 7,5 C 3,2 km/h (1 Bft)
16.07.2016 00:26 8,3 C 8,3 C 96 % 1027,3 hPa 0,0 mm 0,1 km/h (0 Bft) SO 132 0 min 0,000 mm 0,0 UV-I 0 W/m 7,7 C 1,6 km/h (1 Bft)
16.07.2016 00:27 8,3 C 8,3 C 96 % 1027,3 hPa 0,0 mm 0,0 km/h (0 Bft) SO 131 0 min 0,000 mm 0,0 UV-I 0 W/m 7,7 C 0,0 km/h (0 Bft)
16.07.2016 00:28 8,3 C 8,3 C 96 % 1027,3 hPa 0,0 mm 0,2 km/h (0 Bft) SO 132 0 min 0,000 mm 0,0 UV-I 0 W/m 7,7 C 1,6 km/h (1 Bft)
16.07.2016 00:29 8,2 C 8,3 C 96 % 1027,3 hPa 0,0 mm 0,0 km/h (0 Bft) SO 131 0 min 0,000 mm 0,0 UV-I 0 W/m 7,6 C 0,0 km/h (0 Bft)
16.07.2016 00:30 8,2 C 8,2 C 96 % 1027,3 hPa 0,0 mm 0,3 km/h (0 Bft) SO 132 0 min 0,000 mm 0,0 UV-I 0 W/m 7,6 C 1,6 km/h (1 Bft)
16.07.2016 00:31 8,1 C 8,2 C 96 % 1027,3 hPa 0,0 mm 0,0 km/h (0 Bft) SO 132 0 min 0,000 mm 0,0 UV-I 0 W/m 7,5 C 0,0 km/h (0 Bft)
16.07.2016 00:32 8,1 C 8,1 C 96 % 1027,3 hPa 0,0 mm 0,0 km/h (0 Bft) SO 131 0 min 0,000 mm 0,0 UV-I 0 W/m 7,5 C 0,0 km/h (0 Bft)
16.07.2016 00:33 8,1 C 8,1 C 96 % 1027,2 hPa 0,0 mm 0,0 km/h (0 Bft) SO 132 0 min 0,000 mm 0,0 UV-I 0 W/m 7,5 C 0,0 km/h (0 Bft)
16.07.2016 00:34 8,1 C 8,1 C 96 % 1027,3 hPa 0,0 mm 0,3 km/h (0 Bft) SO 131 0 min 0,000 mm 0,0 UV-I 0 W/m 7,5 C 1,6 km/h (1 Bft)
16.07.2016 00:35 8,1 C 8,1 C 96 % 1027,2 hPa 0,0 mm 0,0 km/h (0 Bft) SO 132 0 min 0,000 mm 0,0 UV-I 0 W/m 7,5 C 0,0 km/h (0 Bft)
16.07.2016 00:36 8,0 C 8,1 C 96 % 1027,2 hPa 0,0 mm 0,0 km/h (0 Bft) SO 131 0 min 0,000 mm 0,0 UV-I 0 W/m 7,4 C 0,0 km/h (0 Bft)
16.07.2016 00:37 7,9 C 8,0 C 96 % 1027,2 hPa 0,0 mm 0,0 km/h (0 Bft) SO 131 0 min 0,000 mm 0,0 UV-I 0 W/m 7,3 C 0,0 km/h (0 Bft)
16.07.2016 00:38 7,9 C 7,9 C 96 % 1027,2 hPa 0,0 mm 0,0 km/h (0 Bft) SO 132 0 min 0,000 mm 0,0 UV-I 0 W/m 7,3 C 0,0 km/h (0 Bft)
16.07.2016 00:39 7,8 C 7,9 C 96 % 1027,2 hPa 0,0 mm 0,3 km/h (0 Bft) SO 132 0 min 0,000 mm 0,0 UV-I 0 W/m 7,2 C 1,6 km/h (1 Bft)
16.07.2016 00:40 7,8 C 7,8 C 96 % 1027,2 hPa 0,0 mm 0,5 km/h (0 Bft) SO 132 0 min 0,000 mm 0,0 UV-I 0 W/m 7,2 C 1,6 km/h (1 Bft)
16.07.2016 00:41 7,8 C 7,8 C 96 % 1027,2 hPa 0,0 mm 1,4 km/h (1 Bft) SO 132 0 min 0,000 mm 0,0 UV-I 0 W/m 7,2 C 3,2 km/h (1 Bft)
16.07.2016 00:42 7,8 C 7,8 C 96 % 1027,2 hPa 0,0 mm 0,5 km/h (0 Bft) SO 131 0 min 0,000 mm 0,0 UV-I 0 W/m 7,2 C 1,6 km/h (1 Bft)
16.07.2016 00:43 7,8 C 7,8 C 97 % 1027,3 hPa 0,0 mm 0,3 km/h (0 Bft) SO 143 0 min 0,000 mm 0,0 UV-I 0 W/m 7,4 C 1,6 km/h (1 Bft)
16.07.2016 00:44 7,8 C 7,8 C 97 % 1027,3 hPa 0,0 mm 1,6 km/h (1 Bft) SO 143 0 min 0,000 mm 0,0 UV-I 0 W/m 7,4 C 3,2 km/h (1 Bft)
16.07.2016 00:45 7,9 C 7,9 C 97 % 1027,3 hPa 0,0 mm 2,3 km/h (1 Bft) SO 143 0 min 0,000 mm 0,0 UV-I 0 W/m 7,5 C 3,2 km/h (1 Bft)
16.07.2016 00:46 8,0 C 8,0 C 97 % 1027,3 hPa 0,0 mm 2,0 km/h (1 Bft) SO 143 0 min 0,000 mm 0,0 UV-I 0 W/m 7,6 C 3,2 km/h (1 Bft)
16.07.2016 00:47 8,0 C 8,0 C 97 % 1027,2 hPa 0,0 mm 3,4 km/h (1 Bft) O-SO 123 0 min 0,000 mm 0,0 UV-I 0 W/m 7,6 C 4,8 km/h (1 Bft)
16.07.2016 00:48 8,0 C 8,0 C 97 % 1027,2 hPa 0,0 mm 1,8 km/h (1 Bft) O-SO 123 0 min 0,000 mm 0,0 UV-I 0 W/m 7,6 C 3,2 km/h (1 Bft)
16.07.2016 00:49 7,9 C 8,0 C 97 % 1027,2 hPa 0,0 mm 0,1 km/h (0 Bft) O-SO 123 0 min 0,000 mm 0,0 UV-I 0 W/m 7,5 C 1,6 km/h (1 Bft)
16.07.2016 00:50 7,9 C 7,9 C 97 % 1027,2 hPa 0,0 mm 1,8 km/h (1 Bft) O-SO 123 0 min 0,000 mm 0,0 UV-I 0 W/m 7,5 C 3,2 km/h (1 Bft)
16.07.2016 00:51 7,8 C 7,9 C 96 % 1027,2 hPa 0,0 mm 0,1 km/h (0 Bft) O-SO 123 0 min 0,000 mm 0,0 UV-I 0 W/m 7,2 C 1,6 km/h (1 Bft)
16.07.2016 00:52 7,8 C 7,8 C 96 % 1027,2 hPa 0,0 mm 2,4 km/h (1 Bft) O-SO 119 0 min 0,000 mm 0,0 UV-I 0 W/m 7,2 C 4,8 km/h (1 Bft)
16.07.2016 00:53 7,8 C 7,8 C 97 % 1027,2 hPa 0,0 mm 1,0 km/h (0 Bft) O-SO 119 0 min 0,000 mm 0,0 UV-I 0 W/m 7,4 C 3,2 km/h (1 Bft)
16.07.2016 00:54 7,9 C 7,9 C 97 % 1027,2 hPa 0,0 mm 0,7 km/h (0 Bft) S 169 0 min 0,000 mm 0,0 UV-I 0 W/m 7,5 C 1,6 km/h (1 Bft)
16.07.2016 00:55 7,9 C 7,9 C 97 % 1027,2 hPa 0,0 mm 0,4 km/h (0 Bft) S 169 0 min 0,000 mm 0,0 UV-I 0 W/m 7,5 C 1,6 km/h (1 Bft)
16.07.2016 00:56 7,9 C 7,9 C 97 % 1027,2 hPa 0,0 mm 1,0 km/h (0 Bft) S 169 0 min 0,000 mm 0,0 UV-I 0 W/m 7,5 C 1,6 km/h (1 Bft)
16.07.2016 00:57 7,8 C 7,9 C 97 % 1027,2 hPa 0,0 mm 0,2 km/h (0 Bft) S 169 0 min 0,000 mm 0,0 UV-I 0 W/m 7,4 C 1,6 km/h (1 Bft)
16.07.2016 00:58 7,8 C 7,8 C 97 % 1027,2 hPa 0,0 mm 0,7 km/h (0 Bft) S 170 0 min 0,000 mm 0,0 UV-I 0 W/m 7,4 C 1,6 km/h (1 Bft)
16.07.2016 00:59 7,8 C 7,8 C 97 % 1027,2 hPa 0,0 mm 0,2 km/h (0 Bft) S 170 0 min 0,000 mm 0,0 UV-I 0 W/m 7,4 C 1,6 km/h (1 Bft)
16.07.2016 01:00 7,8 C 7,8 C 96 % 1027,1 hPa 0,0 mm 3,2 km/h (1 Bft) S 182 0 min 0,000 mm 0,0 UV-I 0 W/m 7,2 C 4,8 km/h (1 Bft)
16.07.2016 01:01 7,8 C 7,8 C 97 % 1027,2 hPa 0,0 mm 3,5 km/h (1 Bft) SO 145 0 min 0,000 mm 0,0 UV-I 0 W/m 7,4 C 6,4 km/h (2 Bft)
16.07.2016 01:02 7,8 C 7,9 C 97 % 1027,2 hPa 0,0 mm 4,4 km/h (1 Bft) SO 145 0 min 0,000 mm 0,0 UV-I 0 W/m 7,4 C 6,4 km/h (2 Bft)
16.07.2016 01:03 8,0 C 8,0 C 97 % 1027,2 hPa 0,0 mm 3,4 km/h (1 Bft) SO 127 0 min 0,000 mm 0,0 UV-I 0 W/m 7,6 C 4,8 km/h (1 Bft)
16.07.2016 01:04 7,9 C 8,0 C 97 % 1027,2 hPa 0,0 mm 0,6 km/h (0 Bft) SO 128 0 min 0,000 mm 0,0 UV-I 0 W/m 7,5 C 1,6 km/h (1 Bft)
16.07.2016 01:05 7,9 C 7,9 C 97 % 1027,2 hPa 0,0 mm 0,3 km/h (0 Bft) SO 128 0 min 0,000 mm 0,0 UV-I 0 W/m 7,5 C 1,6 km/h (1 Bft)
16.07.2016 01:06 7,9 C 7,9 C 97 % 1027,2 hPa 0,0 mm 0,4 km/h (0 Bft) SO 128 0 min 0,000 mm 0,0 UV-I 0 W/m 7,5 C 1,6 km/h (1 Bft)
16.07.2016 01:07 7,8 C 7,9 C 96 % 1027,2 hPa 0,0 mm 0,3 km/h (0 Bft) SO 128 0 min 0,000 mm 0,0 UV-I 0 W/m 7,2 C 1,6 km/h (1 Bft)
16.07.2016 01:08 7,7 C 7,8 C 96 % 1027,2 hPa 0,0 mm 1,9 km/h (1 Bft) O-SO 115 0 min 0,000 mm 0,0 UV-I 0 W/m 7,1 C 3,2 km/h (1 Bft)
16.07.2016 01:09 7,7 C 7,7 C 96 % 1027,2 hPa 0,0 mm 0,1 km/h (0 Bft) O-SO 115 0 min 0,000 mm 0,0 UV-I 0 W/m 7,1 C 1,6 km/h (1 Bft)
16.07.2016 01:10 7,7 C 7,7 C 96 % 1027,2 hPa 0,0 mm 0,7 km/h (0 Bft) O-SO 115 0 min 0,000 mm 0,0 UV-I 0 W/m 7,1 C 1,6 km/h (1 Bft)
16.07.2016 01:11 7,7 C 7,7 C 97 % 1027,1 hPa 0,0 mm 1,5 km/h (1 Bft) SO 129 0 min 0,000 mm 0,0 UV-I 0 W/m 7,3 C 3,2 km/h (1 Bft)
16.07.2016 01:12 7,7 C 7,7 C 97 % 1027,2 hPa 0,0 mm 0,8 km/h (0 Bft) SO 129 0 min 0,000 mm 0,0 UV-I 0 W/m 7,3 C 1,6 km/h (1 Bft)
16.07.2016 01:13 7,8 C 7,8 C 97 % 1027,1 hPa 0,0 mm 0,3 km/h (0 Bft) SO 129 0 min 0,000 mm 0,0 UV-I 0 W/m 7,4 C 1,6 km/h (1 Bft)
16.07.2016 01:14 7,8 C 7,8 C 97 % 1027,1 hPa 0,0 mm 0,7 km/h (0 Bft) SO 129 0 min 0,000 mm 0,0 UV-I 0 W/m 7,4 C 1,6 km/h (1 Bft)
16.07.2016 01:15 7,8 C 7,8 C 97 % 1027,1 hPa 0,0 mm 0,9 km/h (0 Bft) SO 129 0 min 0,000 mm 0,0 UV-I 0 W/m 7,4 C 3,2 km/h (1 Bft)
16.07.2016 01:16 7,8 C 7,8 C 97 % 1027,0 hPa 0,0 mm 2,7 km/h (1 Bft) S-SW 194 0 min 0,000 mm 0,0 UV-I 0 W/m 7,4 C 4,8 km/h (1 Bft)
16.07.2016 01:17 7,8 C 7,8 C 97 % 1027,0 hPa 0,0 mm 3,2 km/h (1 Bft) S-SO 163 0 min 0,000 mm 0,0 UV-I 0 W/m 7,4 C 4,8 km/h (1 Bft)
16.07.2016 01:18 7,8 C 7,8 C 97 % 1027,0 hPa 0,0 mm 3,3 km/h (1 Bft) S-SO 147 0 min 0,000 mm 0,0 UV-I 0 W/m 7,4 C 4,8 km/h (1 Bft)
16.07.2016 01:19 7,9 C 7,9 C 97 % 1027,0 hPa 0,0 mm 1,1 km/h (1 Bft) S-SO 147 0 min 0,000 mm 0,0 UV-I 0 W/m 7,5 C 1,6 km/h (1 Bft)
16.07.2016 01:20 7,8 C 7,9 C 97 % 1027,1 hPa 0,0 mm 0,3 km/h (0 Bft) S-SO 147 0 min 0,000 mm 0,0 UV-I 0 W/m 7,4 C 1,6 km/h (1 Bft)
16.07.2016 01:21 7,8 C 7,8 C 96 % 1027,1 hPa 0,0 mm 0,2 km/h (0 Bft) S-SO 147 0 min 0,000 mm 0,0 UV-I 0 W/m 7,2 C 1,6 km/h (1 Bft)
16.07.2016 01:22 7,8 C 7,8 C 96 % 1027,1 hPa 0,0 mm 0,0 km/h (0 Bft) S-SO 147 0 min 0,000 mm 0,0 UV-I 0 W/m 7,2 C 0,0 km/h (0 Bft)
16.07.2016 01:23 7,7 C 7,8 C 96 % 1027,1 hPa 0,0 mm 0,0 km/h (0 Bft) S-SO 147 0 min 0,000 mm 0,0 UV-I 0 W/m 7,1 C 0,0 km/h (0 Bft)
16.07.2016 01:24 7,7 C 7,7 C 96 % 1027,1 hPa 0,0 mm 0,2 km/h (0 Bft) S-SO 147 0 min 0,000 mm 0,0 UV-I 0 W/m 7,1 C 1,6 km/h (1 Bft)
16.07.2016 01:25 7,6 C 7,7 C 96 % 1027,1 hPa 0,0 mm 1,5 km/h (1 Bft) S-SO 147 0 min 0,000 mm 0,0 UV-I 0 W/m 7,0 C 3,2 km/h (1 Bft)
16.07.2016 01:26 7,7 C 7,7 C 97 % 1027,1 hPa 0,0 mm 1,9 km/h (1 Bft) S-SO 147 0 min 0,000 mm 0,0 UV-I 0 W/m 7,3 C 3,2 km/h (1 Bft)
16.07.2016 01:27 7,7 C 7,7 C 97 % 1027,1 hPa 0,0 mm 0,3 km/h (0 Bft) S-SO 147 0 min 0,000 mm 0,0 UV-I 0 W/m 7,3 C 1,6 km/h (1 Bft)
16.07.2016 01:28 7,7 C 7,7 C 96 % 1027,1 hPa 0,0 mm 0,5 km/h (0 Bft) S 178 0 min 0,000 mm 0,0 UV-I 0 W/m 7,1 C 1,6 km/h (1 Bft)
16.07.2016 01:29 7,6 C 7,7 C 97 % 1027,1 hPa 0,0 mm 0,4 km/h (0 Bft) S 178 0 min 0,000 mm 0,0 UV-I 0 W/m 7,2 C 1,6 km/h (1 Bft)
16.07.2016 01:30 7,5 C 7,6 C 96 % 1027,1 hPa 0,0 mm 0,1 km/h (0 Bft) S 178 0 min 0,000 mm 0,0 UV-I 0 W/m 6,9 C 1,6 km/h (1 Bft)
16.07.2016 01:31 7,4 C 7,5 C 96 % 1027,1 hPa 0,0 mm 0,0 km/h (0 Bft) S 178 0 min 0,000 mm 0,0 UV-I 0 W/m 6,8 C 0,0 km/h (0 Bft)
16.07.2016 01:32 7,3 C 7,4 C 96 % 1027,1 hPa 0,0 mm 0,5 km/h (0 Bft) S 178 0 min 0,000 mm 0,0 UV-I 0 W/m 6,7 C 1,6 km/h (1 Bft)
16.07.2016 01:33 7,4 C 7,4 C 96 % 1027,1 hPa 0,0 mm 0,1 km/h (0 Bft) S 178 0 min 0,000 mm 0,0 UV-I 0 W/m 6,8 C 1,6 km/h (1 Bft)
16.07.2016 01:34 7,3 C 7,4 C 97 % 1027,0 hPa 0,0 mm 0,0 km/h (0 Bft) S 178 0 min 0,000 mm 0,0 UV-I 0 W/m 6,9 C 0,0 km/h (0 Bft)
16.07.2016 01:35 7,4 C 7,4 C 97 % 1027,0 hPa 0,0 mm 0,8 km/h (0 Bft) S 178 0 min 0,000 mm 0,0 UV-I 0 W/m 7,0 C 1,6 km/h (1 Bft)
16.07.2016 01:36 7,4 C 7,4 C 97 % 1027,0 hPa 0,0 mm 0,0 km/h (0 Bft) S 178 0 min 0,000 mm 0,0 UV-I 0 W/m 7,0 C 0,0 km/h (0 Bft)
16.07.2016 01:37 7,4 C 7,4 C 97 % 1027,0 hPa 0,0 mm 0,8 km/h (0 Bft) S 178 0 min 0,000 mm 0,0 UV-I 0 W/m 7,0 C 1,6 km/h (1 Bft)
16.07.2016 01:38 7,3 C 7,4 C 97 % 1027,0 hPa 0,0 mm 0,9 km/h (0 Bft) S 178 0 min 0,000 mm 0,0 UV-I 0 W/m 6,9 C 1,6 km/h (1 Bft)
16.07.2016 01:39 7,3 C 7,3 C 97 % 1027,0 hPa 0,0 mm 0,5 km/h (0 Bft) S 174 0 min 0,000 mm 0,0 UV-I 0 W/m 6,9 C 1,6 km/h (1 Bft)
16.07.2016 01:40 7,2 C 7,3 C 96 % 1027,0 hPa 0,0 mm 0,5 km/h (0 Bft) S-SO 157 0 min 0,000 mm 0,0 UV-I 0 W/m 6,6 C 1,6 km/h (1 Bft)
16.07.2016 01:41 7,2 C 7,2 C 96 % 1027,0 hPa 0,0 mm 0,5 km/h (0 Bft) S-SO 157 0 min 0,000 mm 0,0 UV-I 0 W/m 6,6 C 1,6 km/h (1 Bft)
16.07.2016 01:42 7,2 C 7,2 C 97 % 1026,9 hPa 0,0 mm 0,4 km/h (0 Bft) S-SO 157 0 min 0,000 mm 0,0 UV-I 0 W/m 6,8 C 1,6 km/h (1 Bft)
16.07.2016 01:43 7,2 C 7,2 C 97 % 1026,9 hPa 0,0 mm 0,4 km/h (0 Bft) S-SO 157 0 min 0,000 mm 0,0 UV-I 0 W/m 6,8 C 1,6 km/h (1 Bft)
16.07.2016 01:44 7,2 C 7,2 C 97 % 1027,0 hPa 0,0 mm 0,3 km/h (0 Bft) S-SO 157 0 min 0,000 mm 0,0 UV-I 0 W/m 6,8 C 1,6 km/h (1 Bft)
16.07.2016 01:45 7,2 C 7,3 C 97 % 1027,0 hPa 0,0 mm 0,0 km/h (0 Bft) S-SO 157 0 min 0,000 mm 0,0 UV-I 0 W/m 6,8 C 0,0 km/h (0 Bft)
16.07.2016 01:46 7,2 C 7,3 C 97 % 1026,9 hPa 0,0 mm 0,0 km/h (0 Bft) S-SO 157 0 min 0,000 mm 0,0 UV-I 0 W/m 6,8 C 0,0 km/h (0 Bft)
16.07.2016 01:47 7,2 C 7,3 C 97 % 1026,9 hPa 0,0 mm 0,3 km/h (0 Bft) S-SO 157 0 min 0,000 mm 0,0 UV-I 0 W/m 6,8 C 1,6 km/h (1 Bft)
16.07.2016 01:48 7,2 C 7,2 C 97 % 1026,9 hPa 0,0 mm 0,3 km/h (0 Bft) S-SO 157 0 min 0,000 mm 0,0 UV-I 0 W/m 6,8 C 1,6 km/h (1 Bft)
16.07.2016 01:49 7,2 C 7,2 C 97 % 1026,9 hPa 0,0 mm 0,3 km/h (0 Bft) S-SO 157 0 min 0,000 mm 0,0 UV-I 0 W/m 6,8 C 1,6 km/h (1 Bft)
16.07.2016 01:50 7,2 C 7,2 C 97 % 1026,9 hPa 0,0 mm 0,2 km/h (0 Bft) S-SO 157 0 min 0,000 mm 0,0 UV-I 0 W/m 6,8 C 1,6 km/h (1 Bft)
16.07.2016 01:51 7,1 C 7,2 C 97 % 1026,9 hPa 0,0 mm 0,1 km/h (0 Bft) S-SO 157 0 min 0,000 mm 0,0 UV-I 0 W/m 6,7 C 1,6 km/h (1 Bft)
16.07.2016 01:52 7,1 C 7,2 C 97 % 1027,0 hPa 0,0 mm 0,0 km/h (0 Bft) S-SO 157 0 min 0,000 mm 0,0 UV-I 0 W/m 6,7 C 0,0 km/h (0 Bft)
16.07.2016 01:53 7,1 C 7,2 C 97 % 1026,9 hPa 0,0 mm 0,9 km/h (0 Bft) S-SO 157 0 min 0,000 mm 0,0 UV-I 0 W/m 6,7 C 1,6 km/h (1 Bft)
16.07.2016 01:54 7,2 C 7,2 C 97 % 1026,9 hPa 0,0 mm 0,8 km/h (0 Bft) S-SO 157 0 min 0,000 mm 0,0 UV-I 0 W/m 6,8 C 1,6 km/h (1 Bft)
16.07.2016 01:55 7,2 C 7,2 C 97 % 1027,0 hPa 0,0 mm 0,7 km/h (0 Bft) S-SO 157 0 min 0,000 mm 0,0 UV-I 0 W/m 6,8 C 1,6 km/h (1 Bft)
16.07.2016 01:56 7,1 C 7,2 C 97 % 1026,9 hPa 0,0 mm 0,1 km/h (0 Bft) S-SO 157 0 min 0,000 mm 0,0 UV-I 0 W/m 6,7 C 1,6 km/h (1 Bft)
16.07.2016 01:57 7,2 C 7,2 C 97 % 1026,9 hPa 0,0 mm 1,6 km/h (1 Bft) S-SO 157 0 min 0,000 mm 0,0 UV-I 0 W/m 6,8 C 3,2 km/h (1 Bft)
16.07.2016 01:58 7,3 C 7,3 C 97 % 1026,9 hPa 0,0 mm 0,9 km/h (0 Bft) S-SO 157 0 min 0,000 mm 0,0 UV-I 0 W/m 6,9 C 1,6 km/h (1 Bft)
16.07.2016 01:59 7,3 C 7,3 C 97 % 1026,9 hPa 0,0 mm 1,7 km/h (1 Bft) S-SO 157 0 min 0,000 mm 0,0 UV-I 0 W/m 6,9 C 3,2 km/h (1 Bft)
16.07.2016 02:00 7,2 C 7,3 C 97 % 1027,0 hPa 0,0 mm 1,0 km/h (0 Bft) S-SO 157 0 min 0,000 mm 0,0 UV-I 0 W/m 6,8 C 3,2 km/h (1 Bft)
16.07.2016 02:01 7,2 C 7,3 C 97 % 1027,0 hPa 0,0 mm 0,9 km/h (0 Bft) S-SO 157 0 min 0,000 mm 0,0 UV-I 0 W/m 6,8 C 1,6 km/h (1 Bft)
16.07.2016 02:02 7,2 C 7,2 C 97 % 1027,0 hPa 0,0 mm 2,3 km/h (1 Bft) S-SO 157 0 min 0,000 mm 0,0 UV-I 0 W/m 6,8 C 3,2 km/h (1 Bft)
16.07.2016 02:03 7,3 C 7,3 C 97 % 1027,0 hPa 0,0 mm 2,7 km/h (1 Bft) S-SO 155 0 min 0,000 mm 0,0 UV-I 0 W/m 6,9 C 4,8 km/h (1 Bft)
16.07.2016 02:04 7,3 C 7,3 C 97 % 1027,0 hPa 0,0 mm 1,7 km/h (1 Bft) S-SO 154 0 min 0,000 mm 0,0 UV-I 0 W/m 6,9 C 3,2 km/h (1 Bft)
16.07.2016 02:05 7,2 C 7,3 C 97 % 1026,9 hPa 0,0 mm 0,9 km/h (0 Bft) S-SO 154 0 min 0,000 mm 0,0 UV-I 0 W/m 6,8 C 1,6 km/h (1 Bft)
16.07.2016 02:06 7,2 C 7,3 C 97 % 1027,0 hPa 0,0 mm 0,3 km/h (0 Bft) S-SO 154 0 min 0,000 mm 0,0 UV-I 0 W/m 6,8 C 1,6 km/h (1 Bft)
16.07.2016 02:07 7,2 C 7,2 C 97 % 1027,0 hPa 0,0 mm 0,1 km/h (0 Bft) S-SO 154 0 min 0,000 mm 0,0 UV-I 0 W/m 6,8 C 1,6 km/h (1 Bft)
16.07.2016 02:08 7,2 C 7,2 C 97 % 1027,0 hPa 0,0 mm 0,0 km/h (0 Bft) S-SO 154 0 min 0,000 mm 0,0 UV-I 0 W/m 6,8 C 0,0 km/h (0 Bft)
16.07.2016 02:09 7,2 C 7,2 C 97 % 1027,0 hPa 0,0 mm 2,3 km/h (1 Bft) W-NW 288 0 min 0,000 mm 0,0 UV-I 0 W/m 6,8 C 3,2 km/h (1 Bft)
16.07.2016 02:10 7,1 C 7,2 C 97 % 1027,0 hPa 0,0 mm 2,0 km/h (1 Bft) W-NW 288 0 min 0,000 mm 0,0 UV-I 0 W/m 6,7 C 3,2 km/h (1 Bft)
16.07.2016 02:11 7,1 C 7,1 C 97 % 1027,0 hPa 0,0 mm 1,2 km/h (1 Bft) W-NW 288 0 min 0,000 mm 0,0 UV-I 0 W/m 6,7 C 1,6 km/h (1 Bft)
16.07.2016 02:12 7,0 C 7,1 C 97 % 1027,0 hPa 0,0 mm 0,7 km/h (0 Bft) W-NW 288 0 min 0,000 mm 0,0 UV-I 0 W/m 6,6 C 1,6 km/h (1 Bft)
16.07.2016 02:13 6,9 C 7,0 C 97 % 1027,0 hPa 0,0 mm 0,5 km/h (0 Bft) W-NW 288 0 min 0,000 mm 0,0 UV-I 0 W/m 6,5 C 1,6 km/h (1 Bft)
16.07.2016 02:14 6,9 C 6,9 C 97 % 1026,9 hPa 0,0 mm 0,2 km/h (0 Bft) W-NW 288 0 min 0,000 mm 0,0 UV-I 0 W/m 6,5 C 1,6 km/h (1 Bft)
16.07.2016 02:15 6,9 C 6,9 C 96 % 1027,0 hPa 0,0 mm 0,1 km/h (0 Bft) W-NW 288 0 min 0,000 mm 0,0 UV-I 0 W/m 6,3 C 1,6 km/h (1 Bft)
16.07.2016 02:16 6,8 C 6,9 C 97 % 1027,0 hPa 0,0 mm 0,0 km/h (0 Bft) W-NW 288 0 min 0,000 mm 0,0 UV-I 0 W/m 6,4 C 0,0 km/h (0 Bft)
16.07.2016 02:17 6,7 C 6,8 C 97 % 1027,0 hPa 0,0 mm 0,1 km/h (0 Bft) W-NW 288 0 min 0,000 mm 0,0 UV-I 0 W/m 6,3 C 1,6 km/h (1 Bft)
16.07.2016 02:18 6,8 C 6,8 C 97 % 1027,0 hPa 0,0 mm 2,1 km/h (1 Bft) W-SW 238 0 min 0,000 mm 0,0 UV-I 0 W/m 6,4 C 3,2 km/h (1 Bft)
16.07.2016 02:19 6,8 C 6,8 C 97 % 1027,0 hPa 0,0 mm 2,5 km/h (1 Bft) S 171 0 min 0,000 mm 0,0 UV-I 0 W/m 6,4 C 3,2 km/h (1 Bft)
16.07.2016 02:20 6,8 C 6,8 C 97 % 1027,0 hPa 0,0 mm 0,6 km/h (0 Bft) S 170 0 min 0,000 mm 0,0 UV-I 0 W/m 6,4 C 1,6 km/h (1 Bft)
16.07.2016 02:21 6,8 C 6,8 C 97 % 1027,0 hPa 0,0 mm 0,0 km/h (0 Bft) S 171 0 min 0,000 mm 0,0 UV-I 0 W/m 6,4 C 0,0 km/h (0 Bft)
16.07.2016 02:22 6,8 C 6,8 C 97 % 1027,0 hPa 0,0 mm 1,5 km/h (1 Bft) S 174 0 min 0,000 mm 0,0 UV-I 0 W/m 6,4 C 3,2 km/h (1 Bft)
16.07.2016 02:23 6,8 C 6,8 C 97 % 1026,9 hPa 0,0 mm 0,5 km/h (0 Bft) S 174 0 min 0,000 mm 0,0 UV-I 0 W/m 6,4 C 1,6 km/h (1 Bft)
16.07.2016 02:24 6,7 C 6,8 C 97 % 1026,9 hPa 0,0 mm 0,0 km/h (0 Bft) S 174 0 min 0,000 mm 0,0 UV-I 0 W/m 6,3 C 0,0 km/h (0 Bft)
16.07.2016 02:25 6,7 C 6,7 C 97 % 1026,9 hPa 0,0 mm 0,3 km/h (0 Bft) S 174 0 min 0,000 mm 0,0 UV-I 0 W/m 6,3 C 1,6 km/h (1 Bft)
16.07.2016 02:26 6,7 C 6,7 C 97 % 1026,9 hPa 0,0 mm 0,6 km/h (0 Bft) S 174 0 min 0,000 mm 0,0 UV-I 0 W/m 6,3 C 1,6 km/h (1 Bft)
16.07.2016 02:27 6,7 C 6,7 C 97 % 1026,9 hPa 0,0 mm 0,6 km/h (0 Bft) S-SW 210 0 min 0,000 mm 0,0 UV-I 0 W/m 6,3 C 1,6 km/h (1 Bft)
16.07.2016 02:28 6,8 C 6,8 C 97 % 1026,9 hPa 0,0 mm 4,0 km/h (1 Bft) SO 145 0 min 0,000 mm 0,0 UV-I 0 W/m 6,4 C 6,4 km/h (2 Bft)
16.07.2016 02:29 6,9 C 6,9 C 97 % 1026,9 hPa 0,0 mm 4,8 km/h (1 Bft) S-SO 155 0 min 0,000 mm 0,0 UV-I 0 W/m 6,5 C 8,0 km/h (2 Bft)
16.07.2016 02:30 7,1 C 7,1 C 97 % 1026,9 hPa 0,0 mm 0,9 km/h (0 Bft) S-SO 155 0 min 0,000 mm 0,0 UV-I 0 W/m 6,7 C 3,2 km/h (1 Bft)
16.07.2016 02:31 7,1 C 7,1 C 97 % 1027,0 hPa 0,0 mm 0,2 km/h (0 Bft) S-SO 155 0 min 0,000 mm 0,0 UV-I 0 W/m 6,7 C 1,6 km/h (1 Bft)
16.07.2016 02:32 7,1 C 7,1 C 97 % 1026,9 hPa 0,0 mm 0,2 km/h (0 Bft) S-SO 155 0 min 0,000 mm 0,0 UV-I 0 W/m 6,7 C 1,6 km/h (1 Bft)
16.07.2016 02:33 7,0 C 7,1 C 97 % 1026,9 hPa 0,0 mm 0,7 km/h (0 Bft) S-SW 207 0 min 0,000 mm 0,0 UV-I 0 W/m 6,6 C 3,2 km/h (1 Bft)
16.07.2016 02:34 7,0 C 7,0 C 97 % 1027,0 hPa 0,0 mm 0,5 km/h (0 Bft) S-SW 207 0 min 0,000 mm 0,0 UV-I 0 W/m 6,6 C 1,6 km/h (1 Bft)
16.07.2016 02:35 7,1 C 7,1 C 97 % 1026,9 hPa 0,0 mm 1,9 km/h (1 Bft) S 180 0 min 0,000 mm 0,0 UV-I 0 W/m 6,7 C 8,0 km/h (2 Bft)
16.07.2016 02:36 7,2 C 7,2 C 97 % 1026,9 hPa 0,0 mm 2,8 km/h (1 Bft) SO 138 0 min 0,000 mm 0,0 UV-I 0 W/m 6,8 C 4,8 km/h (1 Bft)
16.07.2016 02:37 7,3 C 7,3 C 97 % 1026,9 hPa 0,0 mm 1,6 km/h (1 Bft) SO 137 0 min 0,000 mm 0,0 UV-I 0 W/m 6,9 C 4,8 km/h (1 Bft)
16.07.2016 02:38 7,3 C 7,3 C 97 % 1026,9 hPa 0,0 mm 1,4 km/h (1 Bft) N-NO 21 0 min 0,000 mm 0,0 UV-I 0 W/m 6,9 C 4,8 km/h (1 Bft)
16.07.2016 02:39 7,3 C 7,3 C 97 % 1026,9 hPa 0,0 mm 1,9 km/h (1 Bft) N-NO 20 0 min 0,000 mm 0,0 UV-I 0 W/m 6,9 C 3,2 km/h (1 Bft)
16.07.2016 02:40 7,3 C 7,3 C 97 % 1026,9 hPa 0,0 mm 1,5 km/h (1 Bft) N-NO 20 0 min 0,000 mm 0,0 UV-I 0 W/m 6,9 C 3,2 km/h (1 Bft)
16.07.2016 02:41 7,3 C 7,3 C 97 % 1026,9 hPa 0,0 mm 0,1 km/h (0 Bft) N-NO 20 0 min 0,000 mm 0,0 UV-I 0 W/m 6,9 C 1,6 km/h (1 Bft)
16.07.2016 02:42 7,3 C 7,3 C 97 % 1026,8 hPa 0,0 mm 0,2 km/h (0 Bft) N-NO 20 0 min 0,000 mm 0,0 UV-I 0 W/m 6,9 C 1,6 km/h (1 Bft)
16.07.2016 02:43 7,2 C 7,3 C 97 % 1026,9 hPa 0,0 mm 1,4 km/h (1 Bft) N 5 0 min 0,000 mm 0,0 UV-I 0 W/m 6,8 C 3,2 km/h (1 Bft)
16.07.2016 02:44 7,3 C 7,3 C 97 % 1026,9 hPa 0,0 mm 2,4 km/h (1 Bft) N 5 0 min 0,000 mm 0,0 UV-I 0 W/m 6,9 C 4,8 km/h (1 Bft)
16.07.2016 02:45 7,3 C 7,3 C 97 % 1026,9 hPa 0,0 mm 1,1 km/h (1 Bft) N 5 0 min 0,000 mm 0,0 UV-I 0 W/m 6,9 C 3,2 km/h (1 Bft)
16.07.2016 02:46 7,3 C 7,3 C 97 % 1026,9 hPa 0,0 mm 0,2 km/h (0 Bft) N 5 0 min 0,000 mm 0,0 UV-I 0 W/m 6,9 C 1,6 km/h (1 Bft)
16.07.2016 02:47 7,3 C 7,3 C 97 % 1026,9 hPa 0,0 mm 0,6 km/h (0 Bft) N 9 0 min 0,000 mm 0,0 UV-I 0 W/m 6,9 C 1,6 km/h (1 Bft)
16.07.2016 02:48 7,4 C 7,4 C 97 % 1026,9 hPa 0,0 mm 1,9 km/h (1 Bft) NO 49 0 min 0,000 mm 0,0 UV-I 0 W/m 7,0 C 3,2 km/h (1 Bft)
16.07.2016 02:49 7,4 C 7,4 C 97 % 1026,8 hPa 0,0 mm 1,1 km/h (1 Bft) NO 49 0 min 0,000 mm 0,0 UV-I 0 W/m 7,0 C 3,2 km/h (1 Bft)
16.07.2016 02:50 7,4 C 7,4 C 97 % 1026,9 hPa 0,0 mm 0,2 km/h (0 Bft) NO 49 0 min 0,000 mm 0,0 UV-I 0 W/m 7,0 C 1,6 km/h (1 Bft)
16.07.2016 02:51 7,4 C 7,4 C 97 % 1026,8 hPa 0,0 mm 0,1 km/h (0 Bft) NO 49 0 min 0,000 mm 0,0 UV-I 0 W/m 7,0 C 1,6 km/h (1 Bft)
16.07.2016 02:52 7,5 C 7,5 C 97 % 1026,8 hPa 0,0 mm 0,0 km/h (0 Bft) NO 49 0 min 0,000 mm 0,0 UV-I 0 W/m 7,1 C 0,0 km/h (0 Bft)
16.07.2016 02:53 7,5 C 7,5 C 97 % 1026,9 hPa 0,0 mm 0,0 km/h (0 Bft) NO 49 0 min 0,000 mm 0,0 UV-I 0 W/m 7,1 C 0,0 km/h (0 Bft)
16.07.2016 02:54 7,6 C 7,6 C 97 % 1026,9 hPa 0,0 mm 0,1 km/h (0 Bft) NO 49 0 min 0,000 mm 0,0 UV-I 0 W/m 7,2 C 1,6 km/h (1 Bft)
16.07.2016 02:55 7,6 C 7,6 C 97 % 1026,8 hPa 0,0 mm 0,1 km/h (0 Bft) NO 49 0 min 0,000 mm 0,0 UV-I 0 W/m 7,2 C 1,6 km/h (1 Bft)
16.07.2016 02:56 7,6 C 7,6 C 97 % 1026,8 hPa 0,0 mm 0,0 km/h (0 Bft) NO 49 0 min 0,000 mm 0,0 UV-I 0 W/m 7,2 C 0,0 km/h (0 Bft)
16.07.2016 02:57 7,6 C 7,6 C 97 % 1026,8 hPa 0,0 mm 0,0 km/h (0 Bft) NO 49 0 min 0,000 mm 0,0 UV-I 0 W/m 7,2 C 0,0 km/h (0 Bft)
16.07.2016 02:58 7,6 C 7,6 C 97 % 1026,9 hPa 0,0 mm 0,0 km/h (0 Bft) NO 49 0 min 0,000 mm 0,0 UV-I 0 W/m 7,2 C 0,0 km/h (0 Bft)
16.07.2016 02:59 7,6 C 7,6 C 97 % 1026,8 hPa 0,0 mm 1,5 km/h (1 Bft) N 11 0 min 0,000 mm 0,0 UV-I 0 W/m 7,2 C 3,2 km/h (1 Bft)
16.07.2016 03:00 7,7 C 7,7 C 97 % 1026,8 hPa 0,0 mm 0,9 km/h (0 Bft) N 11 0 min 0,000 mm 0,0 UV-I 0 W/m 7,3 C 1,6 km/h (1 Bft)
16.07.2016 03:01 7,7 C 7,7 C 97 % 1026,8 hPa 0,0 mm 0,2 km/h (0 Bft) N 11 0 min 0,000 mm 0,0 UV-I 0 W/m 7,3 C 1,6 km/h (1 Bft)
16.07.2016 03:02 7,7 C 7,7 C 97 % 1026,7 hPa 0,0 mm 0,0 km/h (0 Bft) N 11 0 min 0,000 mm 0,0 UV-I 0 W/m 7,3 C 0,0 km/h (0 Bft)
16.07.2016 03:03 7,7 C 7,7 C 97 % 1026,8 hPa 0,0 mm 0,0 km/h (0 Bft) N 11 0 min 0,000 mm 0,0 UV-I 0 W/m 7,3 C 0,0 km/h (0 Bft)
16.07.2016 03:04 7,7 C 7,7 C 97 % 1026,8 hPa 0,0 mm 0,0 km/h (0 Bft) N 11 0 min 0,000 mm 0,0 UV-I 0 W/m 7,3 C 0,0 km/h (0 Bft)
16.07.2016 03:05 7,7 C 7,7 C 97 % 1026,8 hPa 0,0 mm 0,0 km/h (0 Bft) N 11 0 min 0,000 mm 0,0 UV-I 0 W/m 7,3 C 0,0 km/h (0 Bft)
16.07.2016 03:06 7,7 C 7,8 C 97 % 1026,8 hPa 0,0 mm 0,0 km/h (0 Bft) N 350 0 min 0,000 mm 0,0 UV-I 0 W/m 7,3 C 0,0 km/h (0 Bft)
16.07.2016 03:07 7,8 C 7,8 C 97 % 1026,8 hPa 0,0 mm 1,3 km/h (1 Bft) W-NW 301 0 min 0,000 mm 0,0 UV-I 0 W/m 7,4 C 3,2 km/h (1 Bft)
16.07.2016 03:08 7,8 C 7,8 C 97 % 1026,8 hPa 0,0 mm 1,0 km/h (0 Bft) W-NW 301 0 min 0,000 mm 0,0 UV-I 0 W/m 7,4 C 3,2 km/h (1 Bft)
16.07.2016 03:09 7,8 C 7,8 C 97 % 1026,9 hPa 0,0 mm 1,0 km/h (0 Bft) W-NW 301 0 min 0,000 mm 0,0 UV-I 0 W/m 7,4 C 1,6 km/h (1 Bft)
16.07.2016 03:10 7,8 C 7,9 C 97 % 1026,8 hPa 0,0 mm 2,0 km/h (1 Bft) NW 307 0 min 0,000 mm 0,0 UV-I 0 W/m 7,4 C 3,2 km/h (1 Bft)
16.07.2016 03:11 7,9 C 7,9 C 97 % 1026,8 hPa 0,0 mm 2,3 km/h (1 Bft) NW 307 0 min 0,000 mm 0,0 UV-I 0 W/m 7,5 C 3,2 km/h (1 Bft)
16.07.2016 03:12 7,9 C 7,9 C 97 % 1026,8 hPa 0,0 mm 0,6 km/h (0 Bft) NW 307 0 min 0,000 mm 0,0 UV-I 0 W/m 7,5 C 1,6 km/h (1 Bft)
16.07.2016 03:13 7,8 C 7,9 C 97 % 1026,8 hPa 0,0 mm 0,0 km/h (0 Bft) NW 307 0 min 0,000 mm 0,0 UV-I 0 W/m 7,4 C 0,0 km/h (0 Bft)
16.07.2016 03:14 7,8 C 7,9 C 97 % 1026,8 hPa 0,0 mm 0,5 km/h (0 Bft) NW 308 0 min 0,000 mm 0,0 UV-I 0 W/m 7,4 C 1,6 km/h (1 Bft)
16.07.2016 03:15 7,9 C 7,9 C 97 % 1026,8 hPa 0,0 mm 1,5 km/h (1 Bft) NW 307 0 min 0,000 mm 0,0 UV-I 0 W/m 7,5 C 1,6 km/h (1 Bft)
16.07.2016 03:16 7,9 C 7,9 C 97 % 1026,8 hPa 0,0 mm 1,0 km/h (0 Bft) NW 307 0 min 0,000 mm 0,0 UV-I 0 W/m 7,5 C 1,6 km/h (1 Bft)
16.07.2016 03:17 7,9 C 7,9 C 97 % 1026,8 hPa 0,0 mm 0,5 km/h (0 Bft) NW 307 0 min 0,000 mm 0,0 UV-I 0 W/m 7,5 C 1,6 km/h (1 Bft)
16.07.2016 03:18 7,9 C 7,9 C 97 % 1026,8 hPa 0,0 mm 1,1 km/h (1 Bft) NW 307 0 min 0,000 mm 0,0 UV-I 0 W/m 7,5 C 1,6 km/h (1 Bft)
16.07.2016 03:19 7,9 C 7,9 C 97 % 1026,8 hPa 0,0 mm 0,8 km/h (0 Bft) NW 307 0 min 0,000 mm 0,0 UV-I 0 W/m 7,5 C 1,6 km/h (1 Bft)
16.07.2016 03:20 7,9 C 7,9 C 97 % 1026,8 hPa 0,0 mm 1,3 km/h (1 Bft) NW 307 0 min 0,000 mm 0,0 UV-I 0 W/m 7,5 C 3,2 km/h (1 Bft)
16.07.2016 03:21 7,9 C 7,9 C 97 % 1026,8 hPa 0,0 mm 0,4 km/h (0 Bft) NW 307 0 min 0,000 mm 0,0 UV-I 0 W/m 7,5 C 1,6 km/h (1 Bft)
16.07.2016 03:22 7,9 C 7,9 C 96 % 1026,8 hPa 0,0 mm 0,4 km/h (0 Bft) NW 307 0 min 0,000 mm 0,0 UV-I 0 W/m 7,3 C 1,6 km/h (1 Bft)
16.07.2016 03:23 7,9 C 7,9 C 96 % 1026,8 hPa 0,0 mm 0,0 km/h (0 Bft) NW 307 0 min 0,000 mm 0,0 UV-I 0 W/m 7,3 C 0,0 km/h (0 Bft)
16.07.2016 03:24 7,9 C 7,9 C 96 % 1026,8 hPa 0,0 mm 0,0 km/h (0 Bft) NW 307 0 min 0,000 mm 0,0 UV-I 0 W/m 7,3 C 0,0 km/h (0 Bft)
16.07.2016 03:25 7,9 C 7,9 C 96 % 1026,8 hPa 0,0 mm 0,0 km/h (0 Bft) NW 307 0 min 0,000 mm 0,0 UV-I 0 W/m 7,3 C 0,0 km/h (0 Bft)
16.07.2016 03:26 7,9 C 7,9 C 97 % 1026,8 hPa 0,0 mm 0,0 km/h (0 Bft) NW 307 0 min 0,000 mm 0,0 UV-I 0 W/m 7,5 C 0,0 km/h (0 Bft)
16.07.2016 03:27 7,8 C 7,9 C 97 % 1026,8 hPa 0,0 mm 0,0 km/h (0 Bft) NW 308 0 min 0,000 mm 0,0 UV-I 0 W/m 7,4 C 0,0 km/h (0 Bft)
16.07.2016 03:28 7,9 C 7,9 C 97 % 1026,8 hPa 0,0 mm 0,3 km/h (0 Bft) NW 307 0 min 0,000 mm 0,0 UV-I 0 W/m 7,5 C 1,6 km/h (1 Bft)
16.07.2016 03:29 7,9 C 7,9 C 97 % 1026,8 hPa 0,0 mm 0,1 km/h (0 Bft) NW 307 0 min 0,000 mm 0,0 UV-I 0 W/m 7,5 C 1,6 km/h (1 Bft)
16.07.2016 03:30 7,9 C 7,9 C 97 % 1026,8 hPa 0,0 mm 0,9 km/h (0 Bft) NW 308 0 min 0,000 mm 0,0 UV-I 0 W/m 7,5 C 1,6 km/h (1 Bft)
16.07.2016 03:31 7,9 C 7,9 C 97 % 1026,8 hPa 0,0 mm 0,3 km/h (0 Bft) NW 308 0 min 0,000 mm 0,0 UV-I 0 W/m 7,5 C 1,6 km/h (1 Bft)
16.07.2016 03:32 7,8 C 7,9 C 97 % 1026,8 hPa 0,0 mm 0,0 km/h (0 Bft) NW 308 0 min 0,000 mm 0,0 UV-I 0 W/m 7,4 C 0,0 km/h (0 Bft)
16.07.2016 03:33 7,8 C 7,9 C 97 % 1026,8 hPa 0,0 mm 0,0 km/h (0 Bft) NW 307 0 min 0,000 mm 0,0 UV-I 0 W/m 7,4 C 0,0 km/h (0 Bft)
16.07.2016 03:34 7,9 C 7,9 C 97 % 1026,8 hPa 0,0 mm 0,3 km/h (0 Bft) NW 308 0 min 0,000 mm 0,0 UV-I 0 W/m 7,5 C 1,6 km/h (1 Bft)
16.07.2016 03:35 7,9 C 7,9 C 97 % 1026,8 hPa 0,0 mm 1,1 km/h (1 Bft) NW 308 0 min 0,000 mm 0,0 UV-I 0 W/m 7,5 C 1,6 km/h (1 Bft)
16.07.2016 03:36 7,9 C 7,9 C 97 % 1026,8 hPa 0,0 mm 1,2 km/h (1 Bft) NW 307 0 min 0,000 mm 0,0 UV-I 0 W/m 7,5 C 1,6 km/h (1 Bft)
16.07.2016 03:37 7,9 C 7,9 C 97 % 1026,8 hPa 0,0 mm 1,5 km/h (1 Bft) NW 308 0 min 0,000 mm 0,0 UV-I 0 W/m 7,5 C 1,6 km/h (1 Bft)
16.07.2016 03:38 7,9 C 7,9 C 97 % 1026,7 hPa 0,0 mm 1,3 km/h (1 Bft) NW 308 0 min 0,000 mm 0,0 UV-I 0 W/m 7,5 C 1,6 km/h (1 Bft)
16.07.2016 03:39 7,9 C 7,9 C 97 % 1026,7 hPa 0,0 mm 1,1 km/h (1 Bft) NW 307 0 min 0,000 mm 0,0 UV-I 0 W/m 7,5 C 1,6 km/h (1 Bft)
16.07.2016 03:40 7,9 C 7,9 C 97 % 1026,8 hPa 0,0 mm 1,3 km/h (1 Bft) NW 308 0 min 0,000 mm 0,0 UV-I 0 W/m 7,5 C 1,6 km/h (1 Bft)
16.07.2016 03:41 7,9 C 7,9 C 97 % 1026,8 hPa 0,0 mm 0,7 km/h (0 Bft) NW 307 0 min 0,000 mm 0,0 UV-I 0 W/m 7,5 C 1,6 km/h (1 Bft)
16.07.2016 03:42 7,9 C 7,9 C 97 % 1026,7 hPa 0,0 mm 0,5 km/h (0 Bft) W 281 0 min 0,000 mm 0,0 UV-I 0 W/m 7,5 C 3,2 km/h (1 Bft)
16.07.2016 03:43 7,9 C 7,9 C 97 % 1026,7 hPa 0,0 mm 2,3 km/h (1 Bft) W 281 0 min 0,000 mm 0,0 UV-I 0 W/m 7,5 C 3,2 km/h (1 Bft)
16.07.2016 03:44 7,9 C 7,9 C 97 % 1026,7 hPa 0,0 mm 2,9 km/h (1 Bft) W 281 0 min 0,000 mm 0,0 UV-I 0 W/m 7,5 C 3,2 km/h (1 Bft)
16.07.2016 03:45 7,9 C 7,9 C 97 % 1026,7 hPa 0,0 mm 0,9 km/h (0 Bft) W 281 0 min 0,000 mm 0,0 UV-I 0 W/m 7,5 C 3,2 km/h (1 Bft)
16.07.2016 03:46 7,9 C 7,9 C 97 % 1026,7 hPa 0,0 mm 0,7 km/h (0 Bft) W 281 0 min 0,000 mm 0,0 UV-I 0 W/m 7,5 C 1,6 km/h (1 Bft)
16.07.2016 03:47 7,9 C 7,9 C 97 % 1026,8 hPa 0,0 mm 0,1 km/h (0 Bft) W 281 0 min 0,000 mm 0,0 UV-I 0 W/m 7,5 C 1,6 km/h (1 Bft)
16.07.2016 03:48 7,9 C 7,9 C 97 % 1026,8 hPa 0,0 mm 0,1 km/h (0 Bft) W 281 0 min 0,000 mm 0,0 UV-I 0 W/m 7,5 C 1,6 km/h (1 Bft)
16.07.2016 03:49 7,9 C 7,9 C 97 % 1026,8 hPa 0,0 mm 0,0 km/h (0 Bft) W 281 0 min 0,000 mm 0,0 UV-I 0 W/m 7,5 C 0,0 km/h (0 Bft)
16.07.2016 03:50 7,9 C 7,9 C 97 % 1026,8 hPa 0,0 mm 0,0 km/h (0 Bft) W 281 0 min 0,000 mm 0,0 UV-I 0 W/m 7,5 C 0,0 km/h (0 Bft)
16.07.2016 03:51 7,9 C 7,9 C 97 % 1026,8 hPa 0,0 mm 0,1 km/h (0 Bft) W 281 0 min 0,000 mm 0,0 UV-I 0 W/m 7,5 C 1,6 km/h (1 Bft)
16.07.2016 03:52 7,9 C 7,9 C 97 % 1026,8 hPa 0,0 mm 0,0 km/h (0 Bft) W 281 0 min 0,000 mm 0,0 UV-I 0 W/m 7,5 C 0,0 km/h (0 Bft)
16.07.2016 03:53 7,9 C 7,9 C 97 % 1026,8 hPa 0,0 mm 0,7 km/h (0 Bft) W 281 0 min 0,000 mm 0,0 UV-I 0 W/m 7,5 C 1,6 km/h (1 Bft)
16.07.2016 03:54 7,9 C 7,9 C 97 % 1026,8 hPa 0,0 mm 1,5 km/h (1 Bft) NW 313 0 min 0,000 mm 0,0 UV-I 0 W/m 7,5 C 3,2 km/h (1 Bft)
16.07.2016 03:55 7,9 C 7,9 C 97 % 1026,8 hPa 0,0 mm 1,3 km/h (1 Bft) N-NW 336 0 min 0,000 mm 0,0 UV-I 0 W/m 7,5 C 3,2 km/h (1 Bft)
16.07.2016 03:56 7,9 C 7,9 C 97 % 1026,8 hPa 0,0 mm 0,2 km/h (0 Bft) N-NW 336 0 min 0,000 mm 0,0 UV-I 0 W/m 7,5 C 1,6 km/h (1 Bft)
16.07.2016 03:57 7,9 C 7,9 C 97 % 1026,7 hPa 0,0 mm 0,8 km/h (0 Bft) N-NW 336 0 min 0,000 mm 0,0 UV-I 0 W/m 7,5 C 1,6 km/h (1 Bft)
16.07.2016 03:58 8,0 C 8,0 C 97 % 1026,7 hPa 0,0 mm 1,1 km/h (1 Bft) N-NW 327 0 min 0,000 mm 0,0 UV-I 0 W/m 7,6 C 3,2 km/h (1 Bft)
16.07.2016 03:59 8,0 C 8,1 C 97 % 1026,8 hPa 0,0 mm 0,0 km/h (0 Bft) N-NW 327 0 min 0,000 mm 0,0 UV-I 0 W/m 7,6 C 0,0 km/h (0 Bft)
16.07.2016 04:00 8,1 C 8,1 C 97 % 1026,8 hPa 0,0 mm 0,1 km/h (0 Bft) N-NW 327 0 min 0,000 mm 0,0 UV-I 0 W/m 7,7 C 1,6 km/h (1 Bft)
16.07.2016 04:01 8,1 C 8,1 C 97 % 1026,7 hPa 0,0 mm 1,1 km/h (1 Bft) N-NW 327 0 min 0,000 mm 0,0 UV-I 0 W/m 7,7 C 1,6 km/h (1 Bft)
16.07.2016 04:02 8,1 C 8,1 C 97 % 1026,8 hPa 0,0 mm 2,2 km/h (1 Bft) W 262 0 min 0,000 mm 0,0 UV-I 0 W/m 7,7 C 6,4 km/h (2 Bft)
16.07.2016 04:03 8,1 C 8,1 C 96 % 1026,7 hPa 0,0 mm 2,4 km/h (1 Bft) S-SW 204 0 min 0,000 mm 0,0 UV-I 0 W/m 7,5 C 4,8 km/h (1 Bft)
16.07.2016 04:04 8,1 C 8,1 C 96 % 1026,7 hPa 0,0 mm 1,6 km/h (1 Bft) S-SW 203 0 min 0,000 mm 0,0 UV-I 0 W/m 7,5 C 3,2 km/h (1 Bft)
16.07.2016 04:05 8,2 C 8,2 C 96 % 1026,7 hPa 0,0 mm 1,1 km/h (1 Bft) S-SW 203 0 min 0,000 mm 0,0 UV-I 0 W/m 7,6 C 1,6 km/h (1 Bft)
16.07.2016 04:06 8,2 C 8,2 C 96 % 1026,8 hPa 0,0 mm 0,3 km/h (0 Bft) S-SW 203 0 min 0,000 mm 0,0 UV-I 0 W/m 7,6 C 1,6 km/h (1 Bft)
16.07.2016 04:07 8,2 C 8,2 C 96 % 1026,8 hPa 0,0 mm 1,6 km/h (1 Bft) S-SW 203 0 min 0,000 mm 0,0 UV-I 0 W/m 7,6 C 4,8 km/h (1 Bft)
16.07.2016 04:08 8,2 C 8,2 C 96 % 1026,8 hPa 0,0 mm 0,4 km/h (0 Bft) S-SW 203 0 min 0,000 mm 0,0 UV-I 0 W/m 7,6 C 1,6 km/h (1 Bft)
16.07.2016 04:09 8,2 C 8,2 C 96 % 1026,7 hPa 0,0 mm 0,8 km/h (0 Bft) S-SW 203 0 min 0,000 mm 0,0 UV-I 0 W/m 7,6 C 1,6 km/h (1 Bft)
16.07.2016 04:10 8,2 C 8,2 C 96 % 1026,7 hPa 0,0 mm 1,0 km/h (0 Bft) S-SW 203 0 min 0,000 mm 0,0 UV-I 0 W/m 7,6 C 3,2 km/h (1 Bft)
16.07.2016 04:11 8,2 C 8,2 C 96 % 1026,8 hPa 0,0 mm 0,6 km/h (0 Bft) S-SW 203 0 min 0,000 mm 0,0 UV-I 0 W/m 7,6 C 1,6 km/h (1 Bft)
16.07.2016 04:12 8,2 C 8,2 C 96 % 1026,8 hPa 0,0 mm 0,1 km/h (0 Bft) S-SW 203 0 min 0,000 mm 0,0 UV-I 0 W/m 7,6 C 1,6 km/h (1 Bft)
16.07.2016 04:13 8,2 C 8,2 C 96 % 1026,8 hPa 0,0 mm 0,0 km/h (0 Bft) S-SW 203 0 min 0,000 mm 0,0 UV-I 0 W/m 7,6 C 0,0 km/h (0 Bft)
16.07.2016 04:14 8,2 C 8,2 C 96 % 1026,8 hPa 0,0 mm 0,6 km/h (0 Bft) S-SW 203 0 min 0,000 mm 0,0 UV-I 0 W/m 7,6 C 1,6 km/h (1 Bft)
16.07.2016 04:15 8,2 C 8,2 C 96 % 1026,8 hPa 0,0 mm 1,0 km/h (0 Bft) S-SW 203 0 min 0,000 mm 0,0 UV-I 0 W/m 7,6 C 3,2 km/h (1 Bft)
16.07.2016 04:16 8,2 C 8,2 C 96 % 1026,8 hPa 0,0 mm 0,0 km/h (0 Bft) S-SW 203 0 min 0,000 mm 0,0 UV-I 0 W/m 7,6 C 0,0 km/h (0 Bft)
16.07.2016 04:17 8,1 C 8,2 C 96 % 1026,8 hPa 0,0 mm 0,0 km/h (0 Bft) S-SW 203 0 min 0,000 mm 0,0 UV-I 0 W/m 7,5 C 0,0 km/h (0 Bft)
16.07.2016 04:18 8,1 C 8,1 C 96 % 1026,8 hPa 0,0 mm 0,3 km/h (0 Bft) S-SW 205 0 min 0,000 mm 0,0 UV-I 0 W/m 7,5 C 1,6 km/h (1 Bft)
16.07.2016 04:19 8,1 C 8,1 C 96 % 1026,8 hPa 0,0 mm 0,0 km/h (0 Bft) S-SW 205 0 min 0,000 mm 0,0 UV-I 0 W/m 7,5 C 0,0 km/h (0 Bft)
16.07.2016 04:20 8,1 C 8,1 C 96 % 1026,7 hPa 0,0 mm 0,0 km/h (0 Bft) S-SW 205 0 min 0,000 mm 0,0 UV-I 0 W/m 7,5 C 0,0 km/h (0 Bft)
16.07.2016 04:21 8,1 C 8,1 C 96 % 1026,7 hPa 0,0 mm 0,0 km/h (0 Bft) S-SW 205 0 min 0,000 mm 0,0 UV-I 0 W/m 7,5 C 0,0 km/h (0 Bft)
16.07.2016 04:22 8,1 C 8,1 C 96 % 1026,7 hPa 0,0 mm 0,0 km/h (0 Bft) S-SW 205 0 min 0,000 mm 0,0 UV-I 0 W/m 7,5 C 0,0 km/h (0 Bft)
16.07.2016 04:23 8,1 C 8,1 C 96 % 1026,7 hPa 0,0 mm 0,0 km/h (0 Bft) S-SW 205 0 min 0,000 mm 0,0 UV-I 0 W/m 7,5 C 0,0 km/h (0 Bft)
16.07.2016 04:24 8,1 C 8,1 C 96 % 1026,7 hPa 0,0 mm 0,0 km/h (0 Bft) S-SW 205 0 min 0,000 mm 0,0 UV-I 0 W/m 7,5 C 0,0 km/h (0 Bft)
16.07.2016 04:25 8,1 C 8,1 C 96 % 1026,8 hPa 0,0 mm 0,0 km/h (0 Bft) S-SW 205 0 min 0,000 mm 0,0 UV-I 0 W/m 7,5 C 0,0 km/h (0 Bft)
16.07.2016 04:26 8,1 C 8,1 C 96 % 1026,8 hPa 0,0 mm 0,3 km/h (0 Bft) S-SW 212 0 min 0,000 mm 0,0 UV-I 0 W/m 7,5 C 1,6 km/h (1 Bft)
16.07.2016 04:27 8,1 C 8,1 C 96 % 1026,7 hPa 0,0 mm 2,5 km/h (1 Bft) W-SW 254 0 min 0,000 mm 0,0 UV-I 0 W/m 7,5 C 3,2 km/h (1 Bft)
16.07.2016 04:28 8,1 C 8,1 C 96 % 1026,7 hPa 0,0 mm 1,1 km/h (1 Bft) W-SW 254 0 min 0,000 mm 0,0 UV-I 0 W/m 7,5 C 3,2 km/h (1 Bft)
16.07.2016 04:29 8,2 C 8,2 C 96 % 1026,7 hPa 0,0 mm 1,5 km/h (1 Bft) W-SW 254 0 min 0,000 mm 0,0 UV-I 0 W/m 7,6 C 3,2 km/h (1 Bft)
16.07.2016 04:30 8,2 C 8,2 C 96 % 1026,7 hPa 0,0 mm 1,1 km/h (1 Bft) W-SW 250 0 min 0,000 mm 0,0 UV-I 0 W/m 7,6 C 1,6 km/h (1 Bft)
16.07.2016 04:31 8,2 C 8,2 C 96 % 1026,7 hPa 0,0 mm 0,0 km/h (0 Bft) W-SW 250 0 min 0,000 mm 0,0 UV-I 0 W/m 7,6 C 0,0 km/h (0 Bft)
16.07.2016 04:32 8,2 C 8,2 C 96 % 1026,7 hPa 0,0 mm 0,0 km/h (0 Bft) W-SW 250 0 min 0,000 mm 0,0 UV-I 0 W/m 7,6 C 0,0 km/h (0 Bft)
16.07.2016 04:33 8,2 C 8,2 C 96 % 1026,7 hPa 0,0 mm 0,6 km/h (0 Bft) W-SW 255 0 min 0,000 mm 0,0 UV-I 0 W/m 7,6 C 3,2 km/h (1 Bft)
16.07.2016 04:34 8,3 C 8,3 C 96 % 1026,7 hPa 0,0 mm 2,5 km/h (1 Bft) W 271 0 min 0,000 mm 0,0 UV-I 0 W/m 7,7 C 4,8 km/h (1 Bft)
16.07.2016 04:35 8,2 C 8,3 C 96 % 1026,7 hPa 0,0 mm 1,7 km/h (1 Bft) SW 234 0 min 0,000 mm 0,0 UV-I 0 W/m 7,6 C 4,8 km/h (1 Bft)
16.07.2016 04:36 8,3 C 8,3 C 95 % 1026,7 hPa 0,0 mm 0,4 km/h (0 Bft) SW 234 0 min 0,000 mm 0,0 UV-I 0 W/m 7,5 C 1,6 km/h (1 Bft)
16.07.2016 04:37 8,3 C 8,3 C 95 % 1026,7 hPa 0,0 mm 1,0 km/h (0 Bft) SW 234 0 min 0,000 mm 0,0 UV-I 0 W/m 7,5 C 1,6 km/h (1 Bft)
16.07.2016 04:38 8,3 C 8,3 C 96 % 1026,7 hPa 0,0 mm 0,3 km/h (0 Bft) SW 234 0 min 0,000 mm 0,0 UV-I 0 W/m 7,7 C 1,6 km/h (1 Bft)
16.07.2016 04:39 8,3 C 8,3 C 95 % 1026,7 hPa 0,0 mm 0,5 km/h (0 Bft) SW 234 0 min 0,000 mm 0,0 UV-I 0 W/m 7,5 C 1,6 km/h (1 Bft)
16.07.2016 04:40 8,3 C 8,3 C 96 % 1026,7 hPa 0,0 mm 0,0 km/h (0 Bft) SW 234 0 min 0,000 mm 0,0 UV-I 0 W/m 7,7 C 0,0 km/h (0 Bft)
16.07.2016 04:41 8,2 C 8,3 C 96 % 1026,7 hPa 0,0 mm 0,0 km/h (0 Bft) SW 234 0 min 0,000 mm 0,0 UV-I 0 W/m 7,6 C 0,0 km/h (0 Bft)
16.07.2016 04:42 8,2 C 8,2 C 96 % 1026,7 hPa 0,0 mm 0,0 km/h (0 Bft) SW 234 0 min 0,000 mm 0,0 UV-I 0 W/m 7,6 C 0,0 km/h (0 Bft)
16.07.2016 04:43 8,2 C 8,2 C 96 % 1026,7 hPa 0,0 mm 0,0 km/h (0 Bft) SW 234 0 min 0,000 mm 0,0 UV-I 0 W/m 7,6 C 0,0 km/h (0 Bft)
16.07.2016 04:44 8,2 C 8,2 C 96 % 1026,7 hPa 0,0 mm 0,0 km/h (0 Bft) SW 234 0 min 0,000 mm 0,0 UV-I 0 W/m 7,6 C 0,0 km/h (0 Bft)
16.07.2016 04:45 8,2 C 8,2 C 96 % 1026,8 hPa 0,0 mm 0,0 km/h (0 Bft) SW 234 0 min 0,000 mm 0,0 UV-I 0 W/m 7,6 C 0,0 km/h (0 Bft)
16.07.2016 04:46 8,2 C 8,2 C 96 % 1026,8 hPa 0,0 mm 0,0 km/h (0 Bft) SW 234 0 min 0,000 mm 0,0 UV-I 0 W/m 7,6 C 0,0 km/h (0 Bft)
16.07.2016 04:47 8,2 C 8,2 C 96 % 1026,8 hPa 0,0 mm 0,0 km/h (0 Bft) SW 234 0 min 0,000 mm 0,0 UV-I 0 W/m 7,6 C 0,0 km/h (0 Bft)
16.07.2016 04:48 8,2 C 8,2 C 96 % 1026,8 hPa 0,0 mm 0,0 km/h (0 Bft) SW 234 0 min 0,000 mm 0,0 UV-I 0 W/m 7,6 C 0,0 km/h (0 Bft)
16.07.2016 04:49 8,1 C 8,2 C 96 % 1026,8 hPa 0,0 mm 0,0 km/h (0 Bft) SW 234 0 min 0,000 mm 0,0 UV-I 0 W/m 7,5 C 0,0 km/h (0 Bft)
16.07.2016 04:50 8,1 C 8,2 C 96 % 1026,8 hPa 0,0 mm 0,0 km/h (0 Bft) SW 234 0 min 0,000 mm 0,0 UV-I 0 W/m 7,5 C 0,0 km/h (0 Bft)
16.07.2016 04:51 8,1 C 8,1 C 96 % 1026,8 hPa 0,0 mm 0,0 km/h (0 Bft) SW 234 0 min 0,000 mm 0,0 UV-I 0 W/m 7,5 C 0,0 km/h (0 Bft)
16.07.2016 04:52 8,1 C 8,1 C 96 % 1026,7 hPa 0,0 mm 0,0 km/h (0 Bft) SW 234 0 min 0,000 mm 0,0 UV-I 0 W/m 7,5 C 0,0 km/h (0 Bft)
16.07.2016 04:53 8,1 C 8,1 C 96 % 1026,7 hPa 0,0 mm 0,0 km/h (0 Bft) SW 235 0 min 0,000 mm 0,0 UV-I 0 W/m 7,5 C 0,0 km/h (0 Bft)
16.07.2016 04:54 8,1 C 8,1 C 96 % 1026,7 hPa 0,0 mm 1,1 km/h (1 Bft) W-NW 292 0 min 0,000 mm 0,0 UV-I 0 W/m 7,5 C 3,2 km/h (1 Bft)
16.07.2016 04:55 8,1 C 8,1 C 96 % 1026,7 hPa 0,0 mm 1,0 km/h (0 Bft) W-NW 293 0 min 0,000 mm 0,0 UV-I 0 W/m 7,5 C 1,6 km/h (1 Bft)
16.07.2016 04:56 8,2 C 8,2 C 96 % 1026,7 hPa 0,0 mm 0,5 km/h (0 Bft) W-NW 293 0 min 0,000 mm 0,0 UV-I 0 W/m 7,6 C 1,6 km/h (1 Bft)
16.07.2016 04:57 8,1 C 8,2 C 96 % 1026,7 hPa 0,0 mm 1,1 km/h (1 Bft) W-NW 293 0 min 0,000 mm 0,0 UV-I 0 W/m 7,5 C 1,6 km/h (1 Bft)
16.07.2016 04:58 8,1 C 8,2 C 96 % 1026,8 hPa 0,0 mm 0,0 km/h (0 Bft) W-NW 293 0 min 0,000 mm 0,0 UV-I 0 W/m 7,5 C 0,0 km/h (0 Bft)
16.07.2016 04:59 8,1 C 8,2 C 96 % 1026,8 hPa 0,0 mm 0,0 km/h (0 Bft) W-NW 293 0 min 0,000 mm 0,0 UV-I 0 W/m 7,5 C 0,0 km/h (0 Bft)
16.07.2016 05:00 8,1 C 8,1 C 96 % 1026,8 hPa 0,0 mm 0,3 km/h (0 Bft) W-NW 293 0 min 0,000 mm 0,0 UV-I 0 W/m 7,5 C 1,6 km/h (1 Bft)
16.07.2016 05:01 8,1 C 8,1 C 96 % 1026,8 hPa 0,0 mm 0,1 km/h (0 Bft) W-NW 293 0 min 0,000 mm 0,0 UV-I 0 W/m 7,5 C 1,6 km/h (1 Bft)
16.07.2016 05:02 8,1 C 8,1 C 96 % 1026,8 hPa 0,0 mm 0,0 km/h (0 Bft) W-NW 293 0 min 0,000 mm 0,0 UV-I 0 W/m 7,5 C 0,0 km/h (0 Bft)
16.07.2016 05:03 8,1 C 8,1 C 97 % 1026,8 hPa 0,0 mm 0,0 km/h (0 Bft) W-NW 293 0 min 0,000 mm 0,0 UV-I 0 W/m 7,7 C 0,0 km/h (0 Bft)
16.07.2016 05:04 8,1 C 8,1 C 97 % 1026,8 hPa 0,0 mm 0,0 km/h (0 Bft) W-NW 293 0 min 0,000 mm 0,0 UV-I 0 W/m 7,7 C 0,0 km/h (0 Bft)
16.07.2016 05:05 8,1 C 8,1 C 97 % 1026,8 hPa 0,0 mm 0,0 km/h (0 Bft) W-NW 293 0 min 0,000 mm 0,0 UV-I 0 W/m 7,7 C 0,0 km/h (0 Bft)
16.07.2016 05:06 8,1 C 8,1 C 97 % 1026,8 hPa 0,0 mm 0,1 km/h (0 Bft) W-NW 293 0 min 0,000 mm 0,0 UV-I 0 W/m 7,7 C 1,6 km/h (1 Bft)
16.07.2016 05:07 8,1 C 8,1 C 97 % 1026,8 hPa 0,0 mm 0,5 km/h (0 Bft) W-NW 293 0 min 0,000 mm 0,0 UV-I 0 W/m 7,7 C 1,6 km/h (1 Bft)
16.07.2016 05:08 8,1 C 8,1 C 97 % 1026,8 hPa 0,0 mm 0,5 km/h (0 Bft) W-NW 293 0 min 0,000 mm 0,0 UV-I 0 W/m 7,7 C 1,6 km/h (1 Bft)
16.07.2016 05:09 8,1 C 8,1 C 96 % 1026,8 hPa 0,0 mm 0,7 km/h (0 Bft) W-NW 293 0 min 0,000 mm 0,0 UV-I 0 W/m 7,5 C 1,6 km/h (1 Bft)
16.07.2016 05:10 8,1 C 8,1 C 96 % 1026,8 hPa 0,0 mm 0,0 km/h (0 Bft) W-NW 293 0 min 0,000 mm 0,0 UV-I 0 W/m 7,5 C 0,0 km/h (0 Bft)
16.07.2016 05:11 8,1 C 8,1 C 96 % 1026,9 hPa 0,0 mm 0,0 km/h (0 Bft) W-NW 293 0 min 0,000 mm 0,0 UV-I 0 W/m 7,5 C 0,0 km/h (0 Bft)
16.07.2016 05:12 8,1 C 8,1 C 96 % 1026,9 hPa 0,0 mm 0,0 km/h (0 Bft) W-NW 293 0 min 0,000 mm 0,0 UV-I 0 W/m 7,5 C 0,0 km/h (0 Bft)
16.07.2016 05:13 8,1 C 8,1 C 96 % 1026,9 hPa 0,0 mm 0,0 km/h (0 Bft) W-NW 293 0 min 0,000 mm 0,0 UV-I 0 W/m 7,5 C 0,0 km/h (0 Bft)
16.07.2016 05:14 8,1 C 8,1 C 96 % 1026,9 hPa 0,0 mm 0,0 km/h (0 Bft) W-NW 293 0 min 0,000 mm 0,0 UV-I 0 W/m 7,5 C 0,0 km/h (0 Bft)
16.07.2016 05:15 8,1 C 8,1 C 96 % 1026,9 hPa 0,0 mm 0,0 km/h (0 Bft) W-NW 293 0 min 0,000 mm 0,0 UV-I 0 W/m 7,5 C 0,0 km/h (0 Bft)
16.07.2016 05:16 8,1 C 8,1 C 96 % 1026,9 hPa 0,0 mm 0,6 km/h (0 Bft) W-NW 293 0 min 0,000 mm 0,0 UV-I 0 W/m 7,5 C 1,6 km/h (1 Bft)
16.07.2016 05:17 8,1 C 8,1 C 96 % 1026,9 hPa 0,0 mm 1,7 km/h (1 Bft) W-NW 293 0 min 0,000 mm 0,0 UV-I 0 W/m 7,5 C 3,2 km/h (1 Bft)
16.07.2016 05:18 8,1 C 8,1 C 96 % 1026,9 hPa 0,0 mm 0,6 km/h (0 Bft) W-NW 293 0 min 0,000 mm 0,0 UV-I 0 W/m 7,5 C 1,6 km/h (1 Bft)
16.07.2016 05:19 8,1 C 8,1 C 96 % 1026,9 hPa 0,0 mm 1,8 km/h (1 Bft) W-NW 295 0 min 0,000 mm 0,0 UV-I 0 W/m 7,5 C 3,2 km/h (1 Bft)
16.07.2016 05:20 8,1 C 8,1 C 96 % 1026,8 hPa 0,0 mm 1,0 km/h (0 Bft) W-NW 295 0 min 0,000 mm 0,0 UV-I 0 W/m 7,5 C 3,2 km/h (1 Bft)
16.07.2016 05:21 8,1 C 8,1 C 96 % 1026,8 hPa 0,0 mm 0,8 km/h (0 Bft) W-NW 295 0 min 0,000 mm 0,0 UV-I 0 W/m 7,5 C 1,6 km/h (1 Bft)
16.07.2016 05:22 8,1 C 8,2 C 96 % 1026,8 hPa 0,0 mm 0,4 km/h (0 Bft) W-NW 295 0 min 0,000 mm 0,0 UV-I 0 W/m 7,5 C 1,6 km/h (1 Bft)
16.07.2016 05:23 8,1 C 8,1 C 96 % 1026,8 hPa 0,0 mm 0,3 km/h (0 Bft) W-NW 295 0 min 0,000 mm 0,0 UV-I 0 W/m 7,5 C 1,6 km/h (1 Bft)
16.07.2016 05:24 8,2 C 8,2 C 96 % 1026,8 hPa 0,0 mm 0,1 km/h (0 Bft) W-NW 295 0 min 0,000 mm 0,0 UV-I 0 W/m 7,6 C 1,6 km/h (1 Bft)
16.07.2016 05:25 8,2 C 8,2 C 96 % 1026,9 hPa 0,0 mm 0,0 km/h (0 Bft) W-NW 295 0 min 0,000 mm 0,0 UV-I 0 W/m 7,6 C 0,0 km/h (0 Bft)
16.07.2016 05:26 8,1 C 8,2 C 96 % 1026,9 hPa 0,0 mm 0,0 km/h (0 Bft) W-NW 295 0 min 0,000 mm 0,0 UV-I 0 W/m 7,5 C 0,0 km/h (0 Bft)
16.07.2016 05:27 8,1 C 8,2 C 96 % 1026,9 hPa 0,0 mm 0,0 km/h (0 Bft) W-NW 295 0 min 0,000 mm 0,0 UV-I 0 W/m 7,5 C 0,0 km/h (0 Bft)
16.07.2016 05:28 8,1 C 8,1 C 96 % 1026,9 hPa 0,0 mm 0,1 km/h (0 Bft) W-NW 295 0 min 0,000 mm 0,0 UV-I 0 W/m 7,5 C 1,6 km/h (1 Bft)
16.07.2016 05:29 8,1 C 8,1 C 96 % 1026,8 hPa 0,0 mm 0,1 km/h (0 Bft) W-NW 295 0 min 0,000 mm 0,0 UV-I 0 W/m 7,5 C 1,6 km/h (1 Bft)
16.07.2016 05:30 8,2 C 8,2 C 96 % 1026,9 hPa 0,0 mm 0,0 km/h (0 Bft) W-NW 295 0 min 0,000 mm 0,0 UV-I 0 W/m 7,6 C 0,0 km/h (0 Bft)
16.07.2016 05:31 8,2 C 8,2 C 96 % 1026,8 hPa 0,0 mm 0,1 km/h (0 Bft) W-NW 295 0 min 0,000 mm 0,0 UV-I 0 W/m 7,6 C 1,6 km/h (1 Bft)
16.07.2016 05:32 8,2 C 8,2 C 96 % 1026,9 hPa 0,0 mm 0,8 km/h (0 Bft) W-NW 295 0 min 0,000 mm 0,0 UV-I 0 W/m 7,6 C 1,6 km/h (1 Bft)
16.07.2016 05:33 8,2 C 8,3 C 96 % 1026,8 hPa 0,0 mm 0,7 km/h (0 Bft) W-NW 295 0 min 0,000 mm 0,0 UV-I 0 W/m 7,6 C 1,6 km/h (1 Bft)
16.07.2016 05:34 8,2 C 8,3 C 96 % 1026,8 hPa 0,0 mm 0,0 km/h (0 Bft) W-NW 295 0 min 0,000 mm 0,0 UV-I 0 W/m 7,6 C 0,0 km/h (0 Bft)
16.07.2016 05:35 8,2 C 8,2 C 96 % 1026,8 hPa 0,0 mm 0,6 km/h (0 Bft) W-NW 295 0 min 0,000 mm 0,0 UV-I 0 W/m 7,6 C 1,6 km/h (1 Bft)
16.07.2016 05:36 8,2 C 8,2 C 96 % 1026,8 hPa 0,0 mm 1,3 km/h (1 Bft) W 261 0 min 0,000 mm 0,0 UV-I 0 W/m 7,6 C 3,2 km/h (1 Bft)
16.07.2016 05:37 8,2 C 8,2 C 96 % 1026,8 hPa 0,0 mm 1,2 km/h (1 Bft) SW 231 0 min 0,000 mm 0,0 UV-I 0 W/m 7,6 C 3,2 km/h (1 Bft)
16.07.2016 05:38 8,2 C 8,2 C 96 % 1026,7 hPa 0,0 mm 0,3 km/h (0 Bft) SW 231 0 min 0,000 mm 0,0 UV-I 0 W/m 7,6 C 1,6 km/h (1 Bft)
16.07.2016 05:39 8,2 C 8,2 C 96 % 1026,7 hPa 0,0 mm 0,3 km/h (0 Bft) SW 231 0 min 0,000 mm 0,0 UV-I 0 W/m 7,6 C 1,6 km/h (1 Bft)
16.07.2016 05:40 8,2 C 8,2 C 96 % 1026,7 hPa 0,0 mm 0,7 km/h (0 Bft) SW 231 0 min 0,000 mm 0,0 UV-I 0 W/m 7,6 C 1,6 km/h (1 Bft)
16.07.2016 05:41 8,2 C 8,2 C 96 % 1026,8 hPa 0,0 mm 0,9 km/h (0 Bft) SW 231 0 min 0,000 mm 0,0 UV-I 0 W/m 7,6 C 3,2 km/h (1 Bft)
16.07.2016 05:42 8,2 C 8,2 C 95 % 1026,7 hPa 0,0 mm 2,0 km/h (1 Bft) SW 221 0 min 0,000 mm 0,0 UV-I 0 W/m 7,4 C 3,2 km/h (1 Bft)
16.07.2016 05:43 8,2 C 8,2 C 95 % 1026,7 hPa 0,0 mm 2,2 km/h (1 Bft) SW 221 0 min 0,000 mm 0,0 UV-I 0 W/m 7,4 C 3,2 km/h (1 Bft)
16.07.2016 05:44 8,2 C 8,2 C 96 % 1026,8 hPa 0,0 mm 1,3 km/h (1 Bft) SW 221 0 min 0,000 mm 0,0 UV-I 0 W/m 7,6 C 1,6 km/h (1 Bft)
16.07.2016 05:45 8,2 C 8,2 C 96 % 1026,8 hPa 0,0 mm 0,5 km/h (0 Bft) SW 221 0 min 0,000 mm 0,0 UV-I 0 W/m 7,6 C 1,6 km/h (1 Bft)
16.07.2016 05:46 8,1 C 8,2 C 96 % 1026,8 hPa 0,0 mm 0,0 km/h (0 Bft) SW 221 0 min 0,000 mm 0,0 UV-I 0 W/m 7,5 C 0,0 km/h (0 Bft)
16.07.2016 05:47 8,1 C 8,2 C 96 % 1026,9 hPa 0,0 mm 0,0 km/h (0 Bft) SW 221 0 min 0,000 mm 0,0 UV-I 5 W/m 7,5 C 0,0 km/h (0 Bft)
16.07.2016 05:48 8,1 C 8,1 C 96 % 1026,8 hPa 0,0 mm 0,0 km/h (0 Bft) SW 221 0 min 0,000 mm 0,0 UV-I 5 W/m 7,5 C 0,0 km/h (0 Bft)
16.07.2016 05:49 8,1 C 8,1 C 96 % 1026,9 hPa 0,0 mm 0,0 km/h (0 Bft) SW 221 0 min 0,000 mm 0,0 UV-I 5 W/m 7,5 C 0,0 km/h (0 Bft)
16.07.2016 05:50 8,1 C 8,1 C 96 % 1026,8 hPa 0,0 mm 0,0 km/h (0 Bft) SW 221 0 min 0,000 mm 0,0 UV-I 5 W/m 7,5 C 0,0 km/h (0 Bft)
16.07.2016 05:51 8,1 C 8,1 C 96 % 1026,8 hPa 0,0 mm 0,0 km/h (0 Bft) SW 221 0 min 0,000 mm 0,0 UV-I 5 W/m 7,5 C 0,0 km/h (0 Bft)
16.07.2016 05:52 8,1 C 8,1 C 96 % 1026,8 hPa 0,0 mm 0,0 km/h (0 Bft) SW 221 0 min 0,000 mm 0,0 UV-I 5 W/m 7,5 C 0,0 km/h (0 Bft)
16.07.2016 05:53 8,1 C 8,1 C 96 % 1026,8 hPa 0,0 mm 0,0 km/h (0 Bft) SW 221 0 min 0,000 mm 0,0 UV-I 7 W/m 7,5 C 0,0 km/h (0 Bft)
16.07.2016 05:54 8,1 C 8,1 C 96 % 1026,9 hPa 0,0 mm 0,0 km/h (0 Bft) SW 221 0 min 0,000 mm 0,0 UV-I 7 W/m 7,5 C 0,0 km/h (0 Bft)
16.07.2016 05:55 8,1 C 8,1 C 96 % 1026,9 hPa 0,0 mm 0,0 km/h (0 Bft) SW 221 0 min 0,000 mm 0,0 UV-I 7 W/m 7,5 C 0,0 km/h (0 Bft)
16.07.2016 05:56 8,1 C 8,1 C 96 % 1026,8 hPa 0,0 mm 0,0 km/h (0 Bft) SW 221 0 min 0,000 mm 0,0 UV-I 7 W/m 7,5 C 0,0 km/h (0 Bft)
16.07.2016 05:57 8,0 C 8,1 C 96 % 1026,8 hPa 0,0 mm 0,0 km/h (0 Bft) SW 221 0 min 0,000 mm 0,0 UV-I 9 W/m 7,4 C 0,0 km/h (0 Bft)
16.07.2016 05:58 8,1 C 8,1 C 96 % 1026,9 hPa 0,0 mm 0,0 km/h (0 Bft) SW 221 0 min 0,000 mm 0,0 UV-I 9 W/m 7,5 C 0,0 km/h (0 Bft)
16.07.2016 05:59 8,1 C 8,1 C 96 % 1026,9 hPa 0,0 mm 0,0 km/h (0 Bft) SW 221 0 min 0,000 mm 0,0 UV-I 9 W/m 7,5 C 0,0 km/h (0 Bft)
16.07.2016 06:00 8,1 C 8,1 C 96 % 1026,8 hPa 0,0 mm 0,0 km/h (0 Bft) SW 221 0 min 0,000 mm 0,0 UV-I 9 W/m 7,5 C 0,0 km/h (0 Bft)
16.07.2016 06:01 8,1 C 8,1 C 96 % 1026,8 hPa 0,0 mm 0,0 km/h (0 Bft) SW 221 0 min 0,000 mm 0,0 UV-I 9 W/m 7,5 C 0,0 km/h (0 Bft)
16.07.2016 06:02 8,1 C 8,1 C 96 % 1026,8 hPa 0,0 mm 0,0 km/h (0 Bft) SW 223 0 min 0,000 mm 0,0 UV-I 11 W/m 7,5 C 0,0 km/h (0 Bft)
16.07.2016 06:03 8,1 C 8,2 C 96 % 1026,8 hPa 0,0 mm 0,0 km/h (0 Bft) SW 225 0 min 0,000 mm 0,0 UV-I 11 W/m 7,5 C 0,0 km/h (0 Bft)
16.07.2016 06:04 8,2 C 8,2 C 96 % 1026,8 hPa 0,0 mm 0,0 km/h (0 Bft) SW 225 0 min 0,000 mm 0,0 UV-I 12 W/m 7,6 C 0,0 km/h (0 Bft)
16.07.2016 06:05 8,2 C 8,2 C 96 % 1026,8 hPa 0,0 mm 1,2 km/h (1 Bft) SW 234 0 min 0,000 mm 0,0 UV-I 12 W/m 7,6 C 3,2 km/h (1 Bft)
16.07.2016 06:06 8,2 C 8,2 C 95 % 1026,8 hPa 0,0 mm 3,3 km/h (1 Bft) SW 234 0 min 0,000 mm 0,0 UV-I 12 W/m 7,4 C 4,8 km/h (1 Bft)
16.07.2016 06:07 8,3 C 8,3 C 95 % 1026,8 hPa 0,0 mm 3,2 km/h (1 Bft) W-SW 247 0 min 0,000 mm 0,0 UV-I 12 W/m 7,5 C 4,8 km/h (1 Bft)
16.07.2016 06:08 8,3 C 8,3 C 95 % 1026,8 hPa 0,0 mm 3,4 km/h (1 Bft) SW 227 0 min 0,000 mm 0,0 UV-I 14 W/m 7,5 C 4,8 km/h (1 Bft)
16.07.2016 06:09 8,3 C 8,3 C 95 % 1026,8 hPa 0,0 mm 2,5 km/h (1 Bft) SW 223 0 min 0,000 mm 0,0 UV-I 14 W/m 7,5 C 3,2 km/h (1 Bft)
16.07.2016 06:10 8,3 C 8,3 C 95 % 1026,8 hPa 0,0 mm 2,5 km/h (1 Bft) W 260 0 min 0,000 mm 0,0 UV-I 16 W/m 7,5 C 6,4 km/h (2 Bft)
16.07.2016 06:11 8,3 C 8,3 C 94 % 1026,9 hPa 0,0 mm 2,9 km/h (1 Bft) W-SW 254 0 min 0,000 mm 0,0 UV-I 16 W/m 7,4 C 4,8 km/h (1 Bft)
16.07.2016 06:12 8,3 C 8,3 C 94 % 1026,9 hPa 0,0 mm 2,6 km/h (1 Bft) SW 225 0 min 0,000 mm 0,0 UV-I 16 W/m 7,4 C 4,8 km/h (1 Bft)
16.07.2016 06:13 8,4 C 8,4 C 94 % 1026,9 hPa 0,0 mm 3,1 km/h (1 Bft) W-SW 255 0 min 0,000 mm 0,0 UV-I 16 W/m 7,5 C 4,8 km/h (1 Bft)
16.07.2016 06:14 8,4 C 8,4 C 94 % 1026,9 hPa 0,0 mm 2,5 km/h (1 Bft) W-SW 243 0 min 0,000 mm 0,0 UV-I 18 W/m 7,5 C 4,8 km/h (1 Bft)
16.07.2016 06:15 8,4 C 8,4 C 94 % 1026,8 hPa 0,0 mm 2,5 km/h (1 Bft) S-SW 201 0 min 0,000 mm 0,0 UV-I 18 W/m 7,5 C 4,8 km/h (1 Bft)
16.07.2016 06:16 8,4 C 8,4 C 94 % 1026,9 hPa 0,0 mm 1,1 km/h (1 Bft) S-SW 201 0 min 0,000 mm 0,0 UV-I 19 W/m 7,5 C 3,2 km/h (1 Bft)
16.07.2016 06:17 8,3 C 8,4 C 95 % 1026,9 hPa 0,0 mm 0,0 km/h (0 Bft) S-SW 201 0 min 0,000 mm 0,0 UV-I 19 W/m 7,5 C 0,0 km/h (0 Bft)
16.07.2016 06:18 8,3 C 8,3 C 95 % 1026,8 hPa 0,0 mm 0,0 km/h (0 Bft) S-SW 201 0 min 0,000 mm 0,0 UV-I 19 W/m 7,5 C 0,0 km/h (0 Bft)
16.07.2016 06:19 8,3 C 8,3 C 95 % 1026,9 hPa 0,0 mm 0,4 km/h (0 Bft) S-SW 201 0 min 0,000 mm 0,0 UV-I 19 W/m 7,5 C 1,6 km/h (1 Bft)
16.07.2016 06:20 8,3 C 8,3 C 95 % 1026,8 hPa 0,0 mm 0,1 km/h (0 Bft) S-SW 201 0 min 0,000 mm 0,0 UV-I 21 W/m 7,5 C 1,6 km/h (1 Bft)
16.07.2016 06:21 8,3 C 8,3 C 95 % 1026,8 hPa 0,0 mm 0,3 km/h (0 Bft) S-SW 201 0 min 0,000 mm 0,0 UV-I 21 W/m 7,5 C 1,6 km/h (1 Bft)
16.07.2016 06:22 8,3 C 8,3 C 95 % 1026,9 hPa 0,0 mm 0,1 km/h (0 Bft) S-SW 201 0 min 0,000 mm 0,0 UV-I 21 W/m 7,5 C 1,6 km/h (1 Bft)
16.07.2016 06:23 8,2 C 8,3 C 96 % 1026,9 hPa 0,0 mm 0,0 km/h (0 Bft) S-SW 201 0 min 0,000 mm 0,0 UV-I 21 W/m 7,6 C 0,0 km/h (0 Bft)
16.07.2016 06:24 8,2 C 8,3 C 96 % 1026,9 hPa 0,0 mm 0,7 km/h (0 Bft) S-SW 201 0 min 0,000 mm 0,0 UV-I 21 W/m 7,6 C 1,6 km/h (1 Bft)
16.07.2016 06:25 8,2 C 8,2 C 96 % 1027,0 hPa 0,0 mm 0,3 km/h (0 Bft) S-SW 201 0 min 0,000 mm 0,0 UV-I 21 W/m 7,6 C 1,6 km/h (1 Bft)
16.07.2016 06:26 8,2 C 8,3 C 96 % 1026,9 hPa 0,0 mm 0,0 km/h (0 Bft) S-SW 201 0 min 0,000 mm 0,0 UV-I 23 W/m 7,6 C 0,0 km/h (0 Bft)
16.07.2016 06:27 8,2 C 8,3 C 96 % 1026,9 hPa 0,0 mm 0,1 km/h (0 Bft) S-SW 201 0 min 0,000 mm 0,0 UV-I 23 W/m 7,6 C 1,6 km/h (1 Bft)
16.07.2016 06:28 8,2 C 8,3 C 96 % 1026,9 hPa 0,0 mm 0,0 km/h (0 Bft) S-SW 201 0 min 0,000 mm 0,0 UV-I 25 W/m 7,6 C 0,0 km/h (0 Bft)
16.07.2016 06:29 8,3 C 8,3 C 96 % 1026,9 hPa 0,0 mm 1,1 km/h (1 Bft) S-SW 200 0 min 0,000 mm 0,0 UV-I 25 W/m 7,7 C 3,2 km/h (1 Bft)
16.07.2016 06:30 8,3 C 8,3 C 96 % 1026,9 hPa 0,0 mm 0,3 km/h (0 Bft) S-SW 200 0 min 0,000 mm 0,0 UV-I 25 W/m 7,7 C 1,6 km/h (1 Bft)
16.07.2016 06:31 8,3 C 8,3 C 96 % 1026,9 hPa 0,0 mm 0,8 km/h (0 Bft) S-SW 200 0 min 0,000 mm 0,0 UV-I 25 W/m 7,7 C 1,6 km/h (1 Bft)
16.07.2016 06:32 8,3 C 8,3 C 96 % 1026,9 hPa 0,0 mm 0,0 km/h (0 Bft) S-SW 200 0 min 0,000 mm 0,0 UV-I 26 W/m 7,7 C 0,0 km/h (0 Bft)
16.07.2016 06:33 8,3 C 8,3 C 96 % 1026,9 hPa 0,0 mm 0,0 km/h (0 Bft) S-SW 200 0 min 0,000 mm 0,0 UV-I 26 W/m 7,7 C 0,0 km/h (0 Bft)
16.07.2016 06:34 8,3 C 8,3 C 96 % 1026,8 hPa 0,0 mm 0,3 km/h (0 Bft) S-SW 200 0 min 0,000 mm 0,0 UV-I 28 W/m 7,7 C 1,6 km/h (1 Bft)
16.07.2016 06:35 8,3 C 8,3 C 96 % 1026,9 hPa 0,0 mm 0,3 km/h (0 Bft) S-SW 201 0 min 0,000 mm 0,0 UV-I 28 W/m 7,7 C 1,6 km/h (1 Bft)
16.07.2016 06:36 8,3 C 8,3 C 96 % 1026,8 hPa 0,0 mm 0,7 km/h (0 Bft) S-SW 201 0 min 0,000 mm 0,0 UV-I 30 W/m 7,7 C 1,6 km/h (1 Bft)
16.07.2016 06:37 8,3 C 8,3 C 96 % 1026,8 hPa 0,0 mm 0,1 km/h (0 Bft) S-SW 201 0 min 0,000 mm 0,0 UV-I 32 W/m 7,7 C 1,6 km/h (1 Bft)
16.07.2016 06:38 8,3 C 8,3 C 95 % 1026,8 hPa 0,0 mm 0,1 km/h (0 Bft) S-SW 201 0 min 0,000 mm 0,0 UV-I 32 W/m 7,5 C 1,6 km/h (1 Bft)
16.07.2016 06:39 8,3 C 8,3 C 95 % 1026,8 hPa 0,0 mm 0,1 km/h (0 Bft) S-SW 201 0 min 0,000 mm 0,0 UV-I 32 W/m 7,5 C 1,6 km/h (1 Bft)
16.07.2016 06:40 8,4 C 8,4 C 95 % 1026,8 hPa 0,0 mm 0,6 km/h (0 Bft) S-SW 201 0 min 0,000 mm 0,0 UV-I 32 W/m 7,6 C 1,6 km/h (1 Bft)
16.07.2016 06:41 8,3 C 8,4 C 95 % 1026,8 hPa 0,0 mm 0,3 km/h (0 Bft) S-SW 201 0 min 0,000 mm 0,0 UV-I 33 W/m 7,5 C 1,6 km/h (1 Bft)
16.07.2016 06:42 8,4 C 8,4 C 95 % 1026,8 hPa 0,0 mm 0,8 km/h (0 Bft) S-SW 201 0 min 0,000 mm 0,0 UV-I 33 W/m 7,6 C 1,6 km/h (1 Bft)
16.07.2016 06:43 8,3 C 8,4 C 95 % 1026,8 hPa 0,0 mm 0,2 km/h (0 Bft) S-SW 201 0 min 0,000 mm 0,0 UV-I 33 W/m 7,5 C 1,6 km/h (1 Bft)
16.07.2016 06:44 8,3 C 8,3 C 95 % 1026,8 hPa 0,0 mm 0,0 km/h (0 Bft) S-SW 201 0 min 0,000 mm 0,0 UV-I 33 W/m 7,5 C 0,0 km/h (0 Bft)
16.07.2016 06:45 8,3 C 8,3 C 96 % 1026,8 hPa 0,0 mm 0,0 km/h (0 Bft) S-SW 201 0 min 0,000 mm 0,0 UV-I 33 W/m 7,7 C 0,0 km/h (0 Bft)
16.07.2016 06:46 8,3 C 8,3 C 96 % 1026,8 hPa 0,0 mm 0,1 km/h (0 Bft) S-SW 201 0 min 0,000 mm 0,0 UV-I 35 W/m 7,7 C 1,6 km/h (1 Bft)
16.07.2016 06:47 8,3 C 8,3 C 96 % 1026,7 hPa 0,0 mm 0,3 km/h (0 Bft) S-SW 201 0 min 0,000 mm 0,0 UV-I 35 W/m 7,7 C 1,6 km/h (1 Bft)
16.07.2016 06:48 8,3 C 8,3 C 96 % 1026,8 hPa 0,0 mm 1,7 km/h (1 Bft) S-SW 209 0 min 0,000 mm 0,0 UV-I 35 W/m 7,7 C 3,2 km/h (1 Bft)
16.07.2016 06:49 8,3 C 8,3 C 96 % 1026,8 hPa 0,0 mm 1,7 km/h (1 Bft) W-SW 257 0 min 0,000 mm 0,0 UV-I 37 W/m 7,7 C 4,8 km/h (1 Bft)
16.07.2016 06:50 8,4 C 8,4 C 95 % 1026,8 hPa 0,0 mm 3,3 km/h (1 Bft) SW 221 0 min 0,000 mm 0,0 UV-I 39 W/m 7,6 C 4,8 km/h (1 Bft)
16.07.2016 06:51 8,4 C 8,4 C 95 % 1026,7 hPa 0,0 mm 1,9 km/h (1 Bft) S-SO 166 0 min 0,000 mm 0,0 UV-I 40 W/m 7,6 C 3,2 km/h (1 Bft)
16.07.2016 06:52 8,4 C 8,4 C 95 % 1026,8 hPa 0,0 mm 0,5 km/h (0 Bft) S-SO 166 0 min 0,000 mm 0,0 UV-I 40 W/m 7,6 C 1,6 km/h (1 Bft)
16.07.2016 06:53 8,4 C 8,4 C 95 % 1026,8 hPa 0,0 mm 0,5 km/h (0 Bft) S-SO 166 0 min 0,000 mm 0,0 UV-I 40 W/m 7,6 C 1,6 km/h (1 Bft)
16.07.2016 06:54 8,4 C 8,4 C 94 % 1026,8 hPa 0,0 mm 0,0 km/h (0 Bft) S-SO 166 0 min 0,000 mm 0,0 UV-I 42 W/m 7,5 C 0,0 km/h (0 Bft)
16.07.2016 06:55 8,4 C 8,4 C 95 % 1026,8 hPa 0,0 mm 0,5 km/h (0 Bft) S-SO 165 0 min 0,000 mm 0,0 UV-I 42 W/m 7,6 C 1,6 km/h (1 Bft)
16.07.2016 06:56 8,4 C 8,4 C 95 % 1026,7 hPa 0,0 mm 1,6 km/h (1 Bft) O-NO 73 0 min 0,000 mm 0,0 UV-I 42 W/m 7,6 C 3,2 km/h (1 Bft)
16.07.2016 06:57 8,4 C 8,4 C 95 % 1026,8 hPa 0,0 mm 1,1 km/h (1 Bft) O-NO 73 0 min 0,000 mm 0,0 UV-I 42 W/m 7,6 C 1,6 km/h (1 Bft)
16.07.2016 06:58 8,4 C 8,4 C 95 % 1026,8 hPa 0,0 mm 0,3 km/h (0 Bft) O-NO 73 0 min 0,000 mm 0,0 UV-I 42 W/m 7,6 C 1,6 km/h (1 Bft)
16.07.2016 06:59 8,4 C 8,4 C 95 % 1026,8 hPa 0,0 mm 2,0 km/h (1 Bft) O 88 0 min 0,000 mm 0,0 UV-I 42 W/m 7,6 C 3,2 km/h (1 Bft)
16.07.2016 07:00 8,5 C 8,5 C 96 % 1026,8 hPa 0,0 mm 1,6 km/h (1 Bft) NO 44 0 min 0,000 mm 0,0 UV-I 42 W/m 7,9 C 3,2 km/h (1 Bft)
16.07.2016 07:01 8,5 C 8,5 C 95 % 1026,9 hPa 0,0 mm 0,7 km/h (0 Bft) NO 44 0 min 0,000 mm 0,0 UV-I 42 W/m 7,7 C 1,6 km/h (1 Bft)
16.07.2016 07:02 8,5 C 8,5 C 95 % 1026,8 hPa 0,0 mm 0,6 km/h (0 Bft) NO 44 0 min 0,000 mm 0,0 UV-I 44 W/m 7,7 C 1,6 km/h (1 Bft)
16.07.2016 07:03 8,4 C 8,5 C 95 % 1026,8 hPa 0,0 mm 0,0 km/h (0 Bft) NO 44 0 min 0,000 mm 0,0 UV-I 44 W/m 7,6 C 0,0 km/h (0 Bft)
16.07.2016 07:04 8,6 C 8,6 C 95 % 1026,9 hPa 0,0 mm 2,3 km/h (1 Bft) W 269 0 min 0,000 mm 0,0 UV-I 44 W/m 7,8 C 3,2 km/h (1 Bft)
16.07.2016 07:05 8,6 C 8,6 C 95 % 1026,9 hPa 0,0 mm 0,9 km/h (0 Bft) W 265 0 min 0,000 mm 0,0 UV-I 44 W/m 7,8 C 1,6 km/h (1 Bft)
16.07.2016 07:06 8,6 C 8,6 C 95 % 1026,9 hPa 0,0 mm 1,4 km/h (1 Bft) W 265 0 min 0,000 mm 0,0 UV-I 44 W/m 7,8 C 1,6 km/h (1 Bft)
16.07.2016 07:07 8,6 C 8,6 C 95 % 1026,8 hPa 0,0 mm 0,0 km/h (0 Bft) W 265 0 min 0,000 mm 0,0 UV-I 44 W/m 7,8 C 0,0 km/h (0 Bft)
16.07.2016 07:08 8,6 C 8,6 C 95 % 1026,8 hPa 0,0 mm 0,4 km/h (0 Bft) W 265 0 min 0,000 mm 0,0 UV-I 44 W/m 7,8 C 1,6 km/h (1 Bft)
16.07.2016 07:09 8,7 C 8,7 C 95 % 1026,8 hPa 0,0 mm 0,3 km/h (0 Bft) W 265 0 min 0,000 mm 0,0 UV-I 46 W/m 7,9 C 1,6 km/h (1 Bft)
16.07.2016 07:10 8,6 C 8,7 C 95 % 1026,9 hPa 0,0 mm 1,4 km/h (1 Bft) W 265 0 min 0,000 mm 0,0 UV-I 46 W/m 7,8 C 1,6 km/h (1 Bft)
16.07.2016 07:11 8,7 C 8,7 C 94 % 1026,9 hPa 0,0 mm 1,0 km/h (0 Bft) W 265 0 min 0,000 mm 0,0 UV-I 46 W/m 7,8 C 1,6 km/h (1 Bft)
16.07.2016 07:12 8,7 C 8,7 C 94 % 1026,9 hPa 0,0 mm 0,8 km/h (0 Bft) W 265 0 min 0,000 mm 0,0 UV-I 49 W/m 7,8 C 1,6 km/h (1 Bft)
16.07.2016 07:13 8,7 C 8,7 C 95 % 1026,8 hPa 0,0 mm 0,3 km/h (0 Bft) W 265 0 min 0,000 mm 0,0 UV-I 51 W/m 7,9 C 1,6 km/h (1 Bft)
16.07.2016 07:14 8,7 C 8,7 C 95 % 1026,8 hPa 0,0 mm 0,2 km/h (0 Bft) W 265 0 min 0,000 mm 0,0 UV-I 51 W/m 7,9 C 1,6 km/h (1 Bft)
16.07.2016 07:15 8,7 C 8,7 C 95 % 1026,8 hPa 0,0 mm 0,4 km/h (0 Bft) W 265 0 min 0,000 mm 0,0 UV-I 53 W/m 7,9 C 1,6 km/h (1 Bft)
16.07.2016 07:16 8,7 C 8,7 C 95 % 1026,8 hPa 0,0 mm 0,3 km/h (0 Bft) W 265 0 min 0,000 mm 0,0 UV-I 53 W/m 7,9 C 1,6 km/h (1 Bft)
16.07.2016 07:17 8,7 C 8,7 C 95 % 1026,8 hPa 0,0 mm 1,4 km/h (1 Bft) W 263 0 min 0,000 mm 0,0 UV-I 54 W/m 7,9 C 1,6 km/h (1 Bft)
16.07.2016 07:18 8,7 C 8,7 C 95 % 1026,8 hPa 0,0 mm 1,1 km/h (1 Bft) W 263 0 min 0,000 mm 0,0 UV-I 54 W/m 7,9 C 1,6 km/h (1 Bft)
16.07.2016 07:19 8,7 C 8,7 C 95 % 1026,8 hPa 0,0 mm 0,3 km/h (0 Bft) W 263 0 min 0,000 mm 0,0 UV-I 54 W/m 7,9 C 1,6 km/h (1 Bft)
16.07.2016 07:20 8,7 C 8,7 C 95 % 1026,8 hPa 0,0 mm 1,0 km/h (0 Bft) W 263 0 min 0,000 mm 0,0 UV-I 56 W/m 7,9 C 1,6 km/h (1 Bft)
16.07.2016 07:21 8,7 C 8,7 C 95 % 1026,9 hPa 0,0 mm 0,0 km/h (0 Bft) W 263 0 min 0,000 mm 0,0 UV-I 56 W/m 7,9 C 0,0 km/h (0 Bft)
16.07.2016 07:22 8,7 C 8,7 C 95 % 1026,9 hPa 0,0 mm 0,0 km/h (0 Bft) W 263 0 min 0,000 mm 0,0 UV-I 58 W/m 7,9 C 0,0 km/h (0 Bft)
16.07.2016 07:23 8,7 C 8,7 C 95 % 1026,9 hPa 0,0 mm 0,1 km/h (0 Bft) W 263 0 min 0,000 mm 0,0 UV-I 60 W/m 7,9 C 1,6 km/h (1 Bft)
16.07.2016 07:24 8,7 C 8,7 C 95 % 1026,8 hPa 0,0 mm 0,5 km/h (0 Bft) W 263 0 min 0,000 mm 0,0 UV-I 62 W/m 7,9 C 1,6 km/h (1 Bft)
16.07.2016 07:25 8,7 C 8,8 C 96 % 1026,8 hPa 0,0 mm 0,1 km/h (0 Bft) W 263 0 min 0,000 mm 0,0 UV-I 67 W/m 8,1 C 1,6 km/h (1 Bft)
16.07.2016 07:26 8,8 C 8,8 C 95 % 1026,8 hPa 0,0 mm 0,6 km/h (0 Bft) W 263 0 min 0,000 mm 0,0 UV-I 69 W/m 8,0 C 3,2 km/h (1 Bft)
16.07.2016 07:27 8,8 C 8,8 C 96 % 1026,8 hPa 0,0 mm 1,8 km/h (1 Bft) W 269 0 min 0,000 mm 0,0 UV-I 72 W/m 8,2 C 3,2 km/h (1 Bft)
16.07.2016 07:28 8,9 C 8,9 C 95 % 1026,8 hPa 0,0 mm 1,4 km/h (1 Bft) W 269 0 min 0,000 mm 0,0 UV-I 74 W/m 8,1 C 1,6 km/h (1 Bft)
16.07.2016 07:29 8,9 C 8,9 C 96 % 1026,8 hPa 0,0 mm 0,1 km/h (0 Bft) W 269 0 min 0,000 mm 0,5 UV-I 76 W/m 8,3 C 1,6 km/h (1 Bft)
16.07.2016 07:30 8,9 C 8,9 C 95 % 1026,8 hPa 0,0 mm 0,0 km/h (0 Bft) W 269 0 min 0,000 mm 0,5 UV-I 76 W/m 8,1 C 0,0 km/h (0 Bft)
16.07.2016 07:31 8,9 C 9,0 C 95 % 1026,8 hPa 0,0 mm 0,1 km/h (0 Bft) W 269 0 min 0,000 mm 0,5 UV-I 76 W/m 8,1 C 1,6 km/h (1 Bft)
16.07.2016 07:32 8,9 C 8,9 C 95 % 1026,8 hPa 0,0 mm 0,0 km/h (0 Bft) W 269 0 min 0,000 mm 0,5 UV-I 76 W/m 8,1 C 0,0 km/h (0 Bft)
16.07.2016 07:33 8,9 C 8,9 C 95 % 1026,8 hPa 0,0 mm 0,2 km/h (0 Bft) W 269 0 min 0,000 mm 0,5 UV-I 76 W/m 8,1 C 1,6 km/h (1 Bft)
16.07.2016 07:34 8,9 C 8,9 C 94 % 1026,8 hPa 0,0 mm 0,4 km/h (0 Bft) W 269 0 min 0,000 mm 0,5 UV-I 76 W/m 8,0 C 1,6 km/h (1 Bft)
16.07.2016 07:35 8,9 C 8,9 C 95 % 1026,8 hPa 0,0 mm 1,3 km/h (1 Bft) NW 306 0 min 0,000 mm 0,5 UV-I 74 W/m 8,1 C 1,6 km/h (1 Bft)
16.07.2016 07:36 8,9 C 8,9 C 95 % 1026,9 hPa 0,0 mm 0,7 km/h (0 Bft) NW 304 0 min 0,000 mm 0,5 UV-I 74 W/m 8,1 C 1,6 km/h (1 Bft)
16.07.2016 07:37 8,9 C 8,9 C 95 % 1026,9 hPa 0,0 mm 0,1 km/h (0 Bft) NW 304 0 min 0,000 mm 0,5 UV-I 74 W/m 8,1 C 1,6 km/h (1 Bft)
16.07.2016 07:38 9,0 C 9,0 C 95 % 1026,9 hPa 0,0 mm 0,0 km/h (0 Bft) NW 304 0 min 0,000 mm 0,5 UV-I 72 W/m 8,2 C 0,0 km/h (0 Bft)
16.07.2016 07:39 8,9 C 9,0 C 94 % 1026,9 hPa 0,0 mm 1,2 km/h (1 Bft) N-NW 340 0 min 0,000 mm 0,5 UV-I 72 W/m 8,0 C 4,8 km/h (1 Bft)
16.07.2016 07:40 8,9 C 8,9 C 95 % 1026,9 hPa 0,0 mm 0,2 km/h (0 Bft) N-NW 340 0 min 0,000 mm 0,5 UV-I 74 W/m 8,1 C 1,6 km/h (1 Bft)
16.07.2016 07:41 8,9 C 9,0 C 94 % 1026,9 hPa 0,0 mm 0,1 km/h (0 Bft) N-NW 340 0 min 0,000 mm 0,5 UV-I 76 W/m 8,0 C 1,6 km/h (1 Bft)
16.07.2016 07:42 8,9 C 9,0 C 95 % 1026,9 hPa 0,0 mm 0,6 km/h (0 Bft) N-NW 340 0 min 0,000 mm 0,5 UV-I 79 W/m 8,1 C 1,6 km/h (1 Bft)
16.07.2016 07:43 8,9 C 9,0 C 95 % 1027,0 hPa 0,0 mm 0,8 km/h (0 Bft) N-NW 340 0 min 0,000 mm 0,5 UV-I 81 W/m 8,1 C 1,6 km/h (1 Bft)
16.07.2016 07:44 9,0 C 9,0 C 95 % 1026,9 hPa 0,0 mm 0,5 km/h (0 Bft) N-NW 340 0 min 0,000 mm 0,5 UV-I 83 W/m 8,2 C 1,6 km/h (1 Bft)
16.07.2016 07:45 9,0 C 9,0 C 95 % 1026,9 hPa 0,0 mm 0,3 km/h (0 Bft) N-NW 340 0 min 0,000 mm 0,5 UV-I 84 W/m 8,2 C 1,6 km/h (1 Bft)
16.07.2016 07:46 9,1 C 9,1 C 95 % 1026,9 hPa 0,0 mm 0,0 km/h (0 Bft) N-NW 340 0 min 0,000 mm 0,5 UV-I 84 W/m 8,3 C 0,0 km/h (0 Bft)
16.07.2016 07:47 9,1 C 9,1 C 95 % 1026,9 hPa 0,0 mm 0,0 km/h (0 Bft) N-NW 340 0 min 0,000 mm 0,6 UV-I 86 W/m 8,3 C 0,0 km/h (0 Bft)
16.07.2016 07:48 9,1 C 9,1 C 95 % 1026,9 hPa 0,0 mm 0,1 km/h (0 Bft) N-NW 340 0 min 0,000 mm 0,6 UV-I 88 W/m 8,3 C 1,6 km/h (1 Bft)
16.07.2016 07:49 9,1 C 9,1 C 95 % 1026,9 hPa 0,0 mm 0,1 km/h (0 Bft) N-NW 340 0 min 0,000 mm 0,6 UV-I 88 W/m 8,3 C 1,6 km/h (1 Bft)
16.07.2016 07:50 9,1 C 9,1 C 95 % 1026,9 hPa 0,0 mm 0,2 km/h (0 Bft) N-NW 340 0 min 0,000 mm 0,6 UV-I 90 W/m 8,3 C 1,6 km/h (1 Bft)
16.07.2016 07:51 9,1 C 9,1 C 94 % 1027,0 hPa 0,0 mm 1,1 km/h (1 Bft) N-NW 340 0 min 0,000 mm 0,6 UV-I 90 W/m 8,2 C 1,6 km/h (1 Bft)
16.07.2016 07:52 9,1 C 9,1 C 95 % 1027,0 hPa 0,0 mm 1,5 km/h (1 Bft) N-NW 340 0 min 0,000 mm 0,6 UV-I 90 W/m 8,3 C 1,6 km/h (1 Bft)
16.07.2016 07:53 9,2 C 9,2 C 95 % 1027,0 hPa 0,0 mm 1,3 km/h (1 Bft) N-NW 340 0 min 0,000 mm 0,6 UV-I 90 W/m 8,4 C 3,2 km/h (1 Bft)
16.07.2016 07:54 9,2 C 9,2 C 95 % 1027,0 hPa 0,0 mm 0,3 km/h (0 Bft) N-NW 340 0 min 0,000 mm 0,6 UV-I 91 W/m 8,4 C 1,6 km/h (1 Bft)
16.07.2016 07:55 9,3 C 9,3 C 95 % 1027,0 hPa 0,0 mm 0,1 km/h (0 Bft) N-NW 340 0 min 0,000 mm 0,6 UV-I 95 W/m 8,5 C 1,6 km/h (1 Bft)
16.07.2016 07:56 9,3 C 9,3 C 95 % 1027,0 hPa 0,0 mm 1,3 km/h (1 Bft) N-NW 340 0 min 0,000 mm 0,6 UV-I 98 W/m 8,5 C 3,2 km/h (1 Bft)
16.07.2016 07:57 9,3 C 9,3 C 95 % 1026,9 hPa 0,0 mm 0,5 km/h (0 Bft) N-NW 340 0 min 0,000 mm 0,7 UV-I 104 W/m 8,5 C 1,6 km/h (1 Bft)
16.07.2016 07:58 9,3 C 9,3 C 95 % 1027,0 hPa 0,0 mm 0,6 km/h (0 Bft) N-NW 340 0 min 0,000 mm 0,7 UV-I 107 W/m 8,5 C 1,6 km/h (1 Bft)
16.07.2016 07:59 9,4 C 9,4 C 95 % 1026,9 hPa 0,0 mm 1,1 km/h (1 Bft) N-NW 340 0 min 0,000 mm 0,7 UV-I 111 W/m 8,6 C 1,6 km/h (1 Bft)
16.07.2016 08:00 9,4 C 9,4 C 95 % 1026,9 hPa 0,0 mm 2,7 km/h (1 Bft) W 270 0 min 0,000 mm 0,7 UV-I 113 W/m 8,6 C 4,8 km/h (1 Bft)
16.07.2016 08:01 9,5 C 9,5 C 94 % 1026,9 hPa 0,0 mm 1,7 km/h (1 Bft) S 178 0 min 0,025 mm 0,7 UV-I 111 W/m 8,6 C 3,2 km/h (1 Bft)
16.07.2016 08:02 9,6 C 9,6 C 94 % 1026,9 hPa 0,0 mm 1,2 km/h (1 Bft) SW 225 0 min 0,000 mm 0,7 UV-I 111 W/m 8,7 C 3,2 km/h (1 Bft)
16.07.2016 08:03 9,6 C 9,6 C 94 % 1027,0 hPa 0,0 mm 0,8 km/h (0 Bft) SW 225 0 min 0,000 mm 0,7 UV-I 109 W/m 8,7 C 1,6 km/h (1 Bft)
16.07.2016 08:04 9,6 C 9,6 C 94 % 1027,0 hPa 0,0 mm 0,5 km/h (0 Bft) SW 225 0 min 0,000 mm 0,7 UV-I 107 W/m 8,7 C 1,6 km/h (1 Bft)
16.07.2016 08:05 9,6 C 9,6 C 94 % 1027,0 hPa 0,0 mm 0,9 km/h (0 Bft) SW 219 0 min 0,000 mm 0,7 UV-I 109 W/m 8,7 C 3,2 km/h (1 Bft)
16.07.2016 08:06 9,6 C 9,6 C 94 % 1027,0 hPa 0,0 mm 1,2 km/h (1 Bft) SW 218 0 min 0,000 mm 0,7 UV-I 111 W/m 8,7 C 3,2 km/h (1 Bft)
16.07.2016 08:07 9,6 C 9,6 C 94 % 1027,0 hPa 0,0 mm 0,2 km/h (0 Bft) SW 218 0 min 0,000 mm 0,7 UV-I 113 W/m 8,7 C 1,6 km/h (1 Bft)
16.07.2016 08:08 9,6 C 9,6 C 94 % 1027,0 hPa 0,0 mm 0,7 km/h (0 Bft) SW 216 0 min 0,000 mm 0,8 UV-I 114 W/m 8,7 C 1,6 km/h (1 Bft)
16.07.2016 08:09 9,6 C 9,6 C 95 % 1027,0 hPa 0,0 mm 0,1 km/h (0 Bft) SW 216 0 min 0,000 mm 0,8 UV-I 114 W/m 8,8 C 1,6 km/h (1 Bft)
16.07.2016 08:10 9,7 C 9,7 C 95 % 1027,0 hPa 0,0 mm 0,6 km/h (0 Bft) SW 217 0 min 0,000 mm 0,8 UV-I 114 W/m 8,9 C 1,6 km/h (1 Bft)
16.07.2016 08:11 9,7 C 9,7 C 93 % 1027,0 hPa 0,0 mm 0,7 km/h (0 Bft) SW 217 0 min 0,000 mm 0,8 UV-I 121 W/m 8,6 C 1,6 km/h (1 Bft)
16.07.2016 08:12 9,7 C 9,7 C 92 % 1027,0 hPa 0,0 mm 1,2 km/h (1 Bft) SW 232 0 min 0,000 mm 0,8 UV-I 123 W/m 8,5 C 1,6 km/h (1 Bft)
16.07.2016 08:13 9,8 C 9,8 C 92 % 1027,0 hPa 0,0 mm 0,3 km/h (0 Bft) SW 232 0 min 0,000 mm 0,8 UV-I 123 W/m 8,6 C 1,6 km/h (1 Bft)
16.07.2016 08:14 9,8 C 9,8 C 92 % 1027,0 hPa 0,0 mm 2,1 km/h (1 Bft) S 178 0 min 0,000 mm 0,8 UV-I 125 W/m 8,6 C 3,2 km/h (1 Bft)
16.07.2016 08:15 9,8 C 9,8 C 93 % 1027,0 hPa 0,0 mm 0,7 km/h (0 Bft) S 178 0 min 0,000 mm 0,8 UV-I 127 W/m 8,7 C 1,6 km/h (1 Bft)
16.07.2016 08:16 9,8 C 9,8 C 92 % 1027,0 hPa 0,0 mm 0,9 km/h (0 Bft) S 180 0 min 0,000 mm 0,8 UV-I 127 W/m 8,6 C 1,6 km/h (1 Bft)
16.07.2016 08:17 9,8 C 9,8 C 93 % 1027,0 hPa 0,0 mm 1,1 km/h (1 Bft) O 101 0 min 0,000 mm 0,8 UV-I 125 W/m 8,7 C 3,2 km/h (1 Bft)
16.07.2016 08:18 9,8 C 9,8 C 92 % 1027,0 hPa 0,0 mm 0,5 km/h (0 Bft) O 101 0 min 0,000 mm 0,8 UV-I 125 W/m 8,6 C 1,6 km/h (1 Bft)
16.07.2016 08:19 9,8 C 9,8 C 94 % 1027,0 hPa 0,0 mm 0,0 km/h (0 Bft) O 101 0 min 0,000 mm 0,8 UV-I 125 W/m 8,9 C 0,0 km/h (0 Bft)
16.07.2016 08:20 9,8 C 9,8 C 94 % 1027,0 hPa 0,0 mm 0,0 km/h (0 Bft) O 101 0 min 0,000 mm 0,8 UV-I 125 W/m 8,9 C 0,0 km/h (0 Bft)
16.07.2016 08:21 9,8 C 9,8 C 94 % 1027,1 hPa 0,0 mm 0,0 km/h (0 Bft) O 101 0 min 0,000 mm 0,8 UV-I 125 W/m 8,9 C 0,0 km/h (0 Bft)
16.07.2016 08:22 9,9 C 9,9 C 93 % 1027,1 hPa 0,0 mm 1,0 km/h (0 Bft) O 101 0 min 0,000 mm 0,8 UV-I 125 W/m 8,8 C 3,2 km/h (1 Bft)
16.07.2016 08:23 9,9 C 9,9 C 92 % 1027,1 hPa 0,0 mm 0,3 km/h (0 Bft) O 101 0 min 0,000 mm 0,8 UV-I 125 W/m 8,7 C 1,6 km/h (1 Bft)
16.07.2016 08:24 9,9 C 9,9 C 92 % 1027,1 hPa 0,0 mm 0,5 km/h (0 Bft) O 101 0 min 0,000 mm 0,8 UV-I 127 W/m 8,7 C 1,6 km/h (1 Bft)
16.07.2016 08:25 9,9 C 9,9 C 91 % 1027,1 hPa 0,0 mm 0,9 km/h (0 Bft) O 101 0 min 0,000 mm 0,8 UV-I 128 W/m 8,5 C 1,6 km/h (1 Bft)
16.07.2016 08:26 10,0 C 10,0 C 93 % 1027,1 hPa 0,0 mm 0,5 km/h (0 Bft) O 101 0 min 0,000 mm 0,8 UV-I 130 W/m 8,9 C 1,6 km/h (1 Bft)
16.07.2016 08:27 10,0 C 10,0 C 92 % 1027,1 hPa 0,0 mm 0,1 km/h (0 Bft) O 101 0 min 0,000 mm 0,9 UV-I 132 W/m 8,8 C 1,6 km/h (1 Bft)
16.07.2016 08:28 10,0 C 10,0 C 92 % 1027,1 hPa 0,0 mm 0,0 km/h (0 Bft) O 101 0 min 0,000 mm 0,9 UV-I 134 W/m 8,8 C 0,0 km/h (0 Bft)
16.07.2016 08:29 10,1 C 10,1 C 92 % 1027,1 hPa 0,0 mm 1,3 km/h (1 Bft) O-NO 61 0 min 0,000 mm 0,9 UV-I 141 W/m 8,9 C 3,2 km/h (1 Bft)
16.07.2016 08:30 10,1 C 10,1 C 91 % 1027,1 hPa 0,0 mm 1,7 km/h (1 Bft) O-NO 61 0 min 0,000 mm 0,9 UV-I 142 W/m 8,7 C 3,2 km/h (1 Bft)
16.07.2016 08:31 10,1 C 10,1 C 90 % 1027,1 hPa 0,0 mm 1,4 km/h (1 Bft) O-NO 61 0 min 0,000 mm 1,0 UV-I 144 W/m 8,5 C 3,2 km/h (1 Bft)
16.07.2016 08:32 10,1 C 10,2 C 92 % 1027,0 hPa 0,0 mm 0,3 km/h (0 Bft) O-NO 61 0 min 0,000 mm 1,0 UV-I 146 W/m 8,9 C 1,6 km/h (1 Bft)
16.07.2016 08:33 10,2 C 10,2 C 92 % 1027,0 hPa 0,0 mm 0,3 km/h (0 Bft) O-NO 61 0 min 0,000 mm 1,0 UV-I 148 W/m 9,0 C 1,6 km/h (1 Bft)
16.07.2016 08:34 10,1 C 10,2 C 92 % 1027,1 hPa 0,0 mm 1,0 km/h (0 Bft) O-NO 61 0 min 0,000 mm 1,0 UV-I 146 W/m 8,9 C 1,6 km/h (1 Bft)
16.07.2016 08:35 10,1 C 10,2 C 92 % 1027,1 hPa 0,0 mm 0,3 km/h (0 Bft) O-NO 61 0 min 0,000 mm 1,0 UV-I 146 W/m 8,9 C 1,6 km/h (1 Bft)
16.07.2016 08:36 10,1 C 10,2 C 92 % 1027,1 hPa 0,0 mm 0,0 km/h (0 Bft) O-NO 61 0 min 0,000 mm 1,0 UV-I 148 W/m 8,9 C 0,0 km/h (0 Bft)
16.07.2016 08:37 10,1 C 10,2 C 92 % 1027,1 hPa 0,0 mm 0,1 km/h (0 Bft) O-NO 61 0 min 0,000 mm 1,0 UV-I 148 W/m 8,9 C 1,6 km/h (1 Bft)
16.07.2016 08:38 10,2 C 10,2 C 91 % 1027,0 hPa 0,0 mm 1,3 km/h (1 Bft) O-NO 61 0 min 0,000 mm 1,0 UV-I 155 W/m 8,8 C 1,6 km/h (1 Bft)
16.07.2016 08:39 10,2 C 10,2 C 91 % 1027,0 hPa 0,0 mm 1,3 km/h (1 Bft) O-NO 61 0 min 0,000 mm 1,0 UV-I 158 W/m 8,8 C 3,2 km/h (1 Bft)
16.07.2016 08:40 10,2 C 10,2 C 91 % 1027,1 hPa 0,0 mm 0,1 km/h (0 Bft) O-NO 61 0 min 0,000 mm 1,1 UV-I 165 W/m 8,8 C 1,6 km/h (1 Bft)
16.07.2016 08:41 10,2 C 10,2 C 92 % 1027,0 hPa 0,0 mm 0,0 km/h (0 Bft) O-NO 61 0 min 0,000 mm 1,1 UV-I 167 W/m 9,0 C 0,0 km/h (0 Bft)
16.07.2016 08:42 10,2 C 10,3 C 92 % 1027,0 hPa 0,0 mm 0,5 km/h (0 Bft) O-NO 61 0 min 0,000 mm 1,1 UV-I 169 W/m 9,0 C 1,6 km/h (1 Bft)
16.07.2016 08:43 10,3 C 10,3 C 93 % 1027,0 hPa 0,0 mm 0,3 km/h (0 Bft) O-NO 61 0 min 0,000 mm 1,1 UV-I 171 W/m 9,2 C 1,6 km/h (1 Bft)
16.07.2016 08:44 10,3 C 10,3 C 92 % 1027,0 hPa 0,0 mm 0,7 km/h (0 Bft) O-NO 61 0 min 0,000 mm 1,1 UV-I 171 W/m 9,1 C 1,6 km/h (1 Bft)
16.07.2016 08:45 10,4 C 10,4 C 93 % 1026,9 hPa 0,0 mm 1,5 km/h (1 Bft) NO 46 0 min 0,000 mm 1,1 UV-I 169 W/m 9,3 C 3,2 km/h (1 Bft)
16.07.2016 08:46 10,5 C 10,5 C 93 % 1026,9 hPa 0,0 mm 1,7 km/h (1 Bft) O 89 0 min 0,000 mm 1,1 UV-I 171 W/m 9,4 C 3,2 km/h (1 Bft)
16.07.2016 08:47 10,4 C 10,5 C 92 % 1027,0 hPa 0,0 mm 2,2 km/h (1 Bft) O 89 0 min 0,000 mm 1,2 UV-I 178 W/m 9,2 C 3,2 km/h (1 Bft)
16.07.2016 08:48 10,5 C 10,5 C 91 % 1027,0 hPa 0,0 mm 0,7 km/h (0 Bft) O 82 0 min 0,000 mm 1,2 UV-I 181 W/m 9,1 C 1,6 km/h (1 Bft)
16.07.2016 08:49 10,6 C 10,6 C 92 % 1027,1 hPa 0,0 mm 0,0 km/h (0 Bft) O 82 0 min 0,000 mm 1,2 UV-I 192 W/m 9,4 C 0,0 km/h (0 Bft)
16.07.2016 08:50 10,6 C 10,6 C 93 % 1027,1 hPa 0,0 mm 0,7 km/h (0 Bft) O 82 0 min 0,000 mm 1,2 UV-I 199 W/m 9,5 C 1,6 km/h (1 Bft)
16.07.2016 08:51 10,7 C 10,7 C 92 % 1027,0 hPa 0,0 mm 1,4 km/h (1 Bft) N 10 0 min 0,000 mm 1,3 UV-I 206 W/m 9,5 C 4,8 km/h (1 Bft)
16.07.2016 08:52 10,7 C 10,7 C 91 % 1027,0 hPa 0,0 mm 2,7 km/h (1 Bft) O-NO 61 0 min 0,000 mm 1,4 UV-I 234 W/m 9,3 C 4,8 km/h (1 Bft)
16.07.2016 08:53 10,8 C 10,8 C 92 % 1027,0 hPa 0,0 mm 0,8 km/h (0 Bft) O-NO 61 0 min 0,000 mm 1,3 UV-I 239 W/m 9,6 C 3,2 km/h (1 Bft)
16.07.2016 08:54 10,9 C 10,9 C 90 % 1026,9 hPa 0,0 mm 2,0 km/h (1 Bft) N 5 0 min 0,000 mm 1,5 UV-I 239 W/m 9,3 C 3,2 km/h (1 Bft)
16.07.2016 08:55 11,0 C 11,0 C 90 % 1027,0 hPa 0,0 mm 2,9 km/h (1 Bft) W-NW 294 1 min 0,000 mm 1,5 UV-I 283 W/m 9,4 C 6,4 km/h (2 Bft)
16.07.2016 08:56 11,1 C 11,1 C 92 % 1026,9 hPa 0,0 mm 0,8 km/h (0 Bft) W-NW 294 0 min 0,000 mm 1,5 UV-I 260 W/m 9,8 C 1,6 km/h (1 Bft)
16.07.2016 08:57 11,0 C 11,1 C 90 % 1026,8 hPa 0,0 mm 1,7 km/h (1 Bft) W-NW 294 0 min 0,000 mm 1,6 UV-I 272 W/m 9,4 C 3,2 km/h (1 Bft)
16.07.2016 08:58 11,0 C 11,0 C 91 % 1026,8 hPa 0,0 mm 0,3 km/h (0 Bft) W-SW 244 1 min 0,000 mm 1,7 UV-I 299 W/m 9,6 C 1,6 km/h (1 Bft)
16.07.2016 08:59 11,1 C 11,1 C 90 % 1026,9 hPa 0,0 mm 0,7 km/h (0 Bft) W-SW 246 1 min 0,000 mm 2,2 UV-I 299 W/m 9,5 C 1,6 km/h (1 Bft)
16.07.2016 09:00 11,2 C 11,2 C 92 % 1026,8 hPa 0,0 mm 1,8 km/h (1 Bft) W-SW 251 1 min 0,077 mm 2,0 UV-I 299 W/m 9,9 C 3,2 km/h (1 Bft)
16.07.2016 09:01 11,4 C 11,4 C 89 % 1026,7 hPa 0,0 mm 3,0 km/h (1 Bft) W 259 1 min 0,000 mm 2,0 UV-I 345 W/m 9,7 C 6,4 km/h (2 Bft)
16.07.2016 09:02 11,6 C 11,6 C 85 % 1026,8 hPa 0,0 mm 3,6 km/h (1 Bft) W 269 1 min 0,000 mm 2,2 UV-I 411 W/m 9,2 C 6,4 km/h (2 Bft)
16.07.2016 09:03 11,7 C 11,7 C 88 % 1026,8 hPa 0,0 mm 1,8 km/h (1 Bft) S-SW 194 1 min 0,000 mm 2,2 UV-I 415 W/m 9,8 C 4,8 km/h (1 Bft)
16.07.2016 09:04 11,9 C 11,9 C 91 % 1026,8 hPa 0,0 mm 1,2 km/h (1 Bft) W 265 1 min 0,000 mm 2,7 UV-I 415 W/m 10,5 C 3,2 km/h (1 Bft)
16.07.2016 09:05 12,1 C 12,1 C 89 % 1026,8 hPa 0,0 mm 1,9 km/h (1 Bft) W-SW 254 1 min 0,000 mm 2,5 UV-I 415 W/m 10,3 C 4,8 km/h (1 Bft)
16.07.2016 09:06 12,3 C 12,3 C 89 % 1026,9 hPa 0,0 mm 2,2 km/h (1 Bft) NW 307 1 min 0,000 mm 2,3 UV-I 415 W/m 10,5 C 3,2 km/h (1 Bft)
16.07.2016 09:07 12,4 C 12,4 C 85 % 1026,9 hPa 0,0 mm 4,2 km/h (1 Bft) W-NW 290 1 min 0,000 mm 2,2 UV-I 476 W/m 9,9 C 6,4 km/h (2 Bft)
16.07.2016 09:08 12,4 C 12,4 C 86 % 1026,8 hPa 0,0 mm 3,6 km/h (1 Bft) W 260 1 min 0,000 mm 2,3 UV-I 411 W/m 10,1 C 6,4 km/h (2 Bft)
16.07.2016 09:09 12,6 C 12,6 C 87 % 1026,9 hPa 0,0 mm 2,7 km/h (1 Bft) W 272 1 min 0,000 mm 2,2 UV-I 417 W/m 10,5 C 4,8 km/h (1 Bft)
16.07.2016 09:10 12,6 C 12,6 C 88 % 1026,8 hPa 0,0 mm 3,9 km/h (1 Bft) W 273 1 min 0,000 mm 2,2 UV-I 378 W/m 10,7 C 6,4 km/h (2 Bft)
16.07.2016 09:11 12,6 C 12,6 C 86 % 1026,8 hPa 0,0 mm 5,5 km/h (1 Bft) W-NW 301 1 min 0,000 mm 2,2 UV-I 348 W/m 10,3 C 6,4 km/h (2 Bft)
16.07.2016 09:12 12,6 C 12,6 C 87 % 1026,8 hPa 0,0 mm 5,7 km/h (1 Bft) W 261 1 min 0,000 mm 2,2 UV-I 348 W/m 10,5 C 8,0 km/h (2 Bft)
16.07.2016 09:13 12,7 C 12,7 C 86 % 1026,8 hPa 0,0 mm 3,7 km/h (1 Bft) W-NW 284 1 min 0,000 mm 2,2 UV-I 332 W/m 10,4 C 4,8 km/h (1 Bft)
16.07.2016 09:14 12,7 C 12,7 C 85 % 1026,8 hPa 0,0 mm 4,7 km/h (1 Bft) W-SW 254 1 min 0,000 mm 2,2 UV-I 327 W/m 10,2 C 6,4 km/h (2 Bft)
16.07.2016 09:15 12,6 C 12,7 C 84 % 1026,8 hPa 0,0 mm 2,1 km/h (1 Bft) W-SW 254 1 min 0,000 mm 2,2 UV-I 339 W/m 10,0 C 3,2 km/h (1 Bft)
16.07.2016 09:16 12,6 C 12,6 C 85 % 1026,8 hPa 0,0 mm 2,9 km/h (1 Bft) W-NW 288 1 min 0,000 mm 2,3 UV-I 364 W/m 10,1 C 3,2 km/h (1 Bft)
16.07.2016 09:17 12,6 C 12,6 C 85 % 1026,7 hPa 0,0 mm 5,1 km/h (1 Bft) W 269 1 min 0,000 mm 2,4 UV-I 360 W/m 10,1 C 8,0 km/h (2 Bft)
16.07.2016 09:18 12,6 C 12,6 C 84 % 1026,7 hPa 0,0 mm 4,3 km/h (1 Bft) W-SW 240 1 min 0,000 mm 2,3 UV-I 338 W/m 10,0 C 6,4 km/h (2 Bft)
16.07.2016 09:19 12,6 C 12,6 C 82 % 1026,7 hPa 0,0 mm 1,9 km/h (1 Bft) W-SW 247 1 min 0,000 mm 2,3 UV-I 338 W/m 9,6 C 3,2 km/h (1 Bft)
16.07.2016 09:20 12,6 C 12,6 C 81 % 1026,7 hPa 0,0 mm 3,8 km/h (1 Bft) S-SW 200 1 min 0,000 mm 2,5 UV-I 397 W/m 9,4 C 4,8 km/h (1 Bft)
16.07.2016 09:21 12,6 C 12,6 C 81 % 1026,7 hPa 0,0 mm 1,3 km/h (1 Bft) S-SW 200 1 min 0,000 mm 2,5 UV-I 373 W/m 9,4 C 3,2 km/h (1 Bft)
16.07.2016 09:22 12,5 C 12,6 C 80 % 1026,7 hPa 0,0 mm 2,9 km/h (1 Bft) S-SW 197 1 min 0,000 mm 3,0 UV-I 373 W/m 9,1 C 4,8 km/h (1 Bft)
16.07.2016 09:23 12,5 C 12,6 C 80 % 1026,7 hPa 0,0 mm 1,1 km/h (1 Bft) S-SW 193 1 min 0,000 mm 2,9 UV-I 531 W/m 9,1 C 1,6 km/h (1 Bft)
16.07.2016 09:24 12,6 C 12,6 C 82 % 1026,7 hPa 0,0 mm 1,9 km/h (1 Bft) S-SW 210 1 min 0,000 mm 2,6 UV-I 531 W/m 9,6 C 4,8 km/h (1 Bft)
16.07.2016 09:25 12,6 C 12,6 C 82 % 1026,7 hPa 0,0 mm 2,1 km/h (1 Bft) SW 229 1 min 0,000 mm 3,0 UV-I 531 W/m 9,6 C 3,2 km/h (1 Bft)
16.07.2016 09:26 12,6 C 12,6 C 80 % 1026,7 hPa 0,0 mm 3,2 km/h (1 Bft) S-SW 207 1 min 0,000 mm 3,0 UV-I 541 W/m 9,2 C 6,4 km/h (2 Bft)
16.07.2016 09:27 12,6 C 12,6 C 80 % 1026,7 hPa 0,0 mm 1,5 km/h (1 Bft) W-SW 252 1 min 0,000 mm 3,0 UV-I 547 W/m 9,2 C 3,2 km/h (1 Bft)
16.07.2016 09:28 12,7 C 12,7 C 81 % 1026,7 hPa 0,0 mm 1,1 km/h (1 Bft) W-SW 243 1 min 0,000 mm 3,1 UV-I 547 W/m 9,5 C 1,6 km/h (1 Bft)
16.07.2016 09:29 12,8 C 12,8 C 82 % 1026,7 hPa 0,0 mm 2,7 km/h (1 Bft) W 261 1 min 0,000 mm 3,1 UV-I 548 W/m 9,8 C 6,4 km/h (2 Bft)
16.07.2016 09:30 12,9 C 12,9 C 82 % 1026,6 hPa 0,0 mm 2,5 km/h (1 Bft) W-NW 292 1 min 0,000 mm 3,1 UV-I 548 W/m 9,9 C 4,8 km/h (1 Bft)
16.07.2016 09:31 13,1 C 13,1 C 81 % 1026,6 hPa 0,0 mm 5,7 km/h (1 Bft) W 278 1 min 0,000 mm 3,1 UV-I 548 W/m 9,9 C 6,4 km/h (2 Bft)
16.07.2016 09:32 13,1 C 13,1 C 81 % 1026,6 hPa 0,0 mm 5,2 km/h (1 Bft) W-NW 291 1 min 0,000 mm 3,1 UV-I 552 W/m 9,9 C 9,7 km/h (2 Bft)
16.07.2016 09:33 13,1 C 13,1 C 84 % 1026,7 hPa 0,0 mm 4,1 km/h (1 Bft) W-NW 282 1 min 0,000 mm 3,2 UV-I 557 W/m 10,5 C 6,4 km/h (2 Bft)
16.07.2016 09:34 13,2 C 13,2 C 83 % 1026,7 hPa 0,0 mm 7,0 km/h (2 Bft) W-SW 252 1 min 0,000 mm 3,2 UV-I 561 W/m 10,4 C 11,3 km/h (2 Bft)
16.07.2016 09:35 13,0 C 13,2 C 76 % 1026,6 hPa 0,0 mm 3,4 km/h (1 Bft) SW 233 1 min 0,000 mm 3,2 UV-I 564 W/m 8,9 C 6,4 km/h (2 Bft)
16.07.2016 09:36 12,9 C 13,0 C 79 % 1026,6 hPa 0,0 mm 6,8 km/h (2 Bft) W-SW 249 1 min 0,000 mm 3,2 UV-I 564 W/m 9,3 C 11,3 km/h (2 Bft)
16.07.2016 09:37 13,1 C 13,1 C 80 % 1026,7 hPa 0,0 mm 5,6 km/h (1 Bft) W 273 1 min 0,000 mm 3,3 UV-I 570 W/m 9,7 C 9,7 km/h (2 Bft)
16.07.2016 09:38 13,1 C 13,1 C 80 % 1026,6 hPa 0,0 mm 4,2 km/h (1 Bft) W-SW 252 1 min 0,000 mm 3,3 UV-I 575 W/m 9,7 C 6,4 km/h (2 Bft)
16.07.2016 09:39 13,1 C 13,1 C 76 % 1026,7 hPa 0,0 mm 2,9 km/h (1 Bft) S-SW 195 1 min 0,000 mm 3,3 UV-I 580 W/m 9,0 C 4,8 km/h (1 Bft)
16.07.2016 09:40 13,1 C 13,1 C 79 % 1026,5 hPa 0,0 mm 3,5 km/h (1 Bft) SW 225 1 min 0,000 mm 3,4 UV-I 585 W/m 9,5 C 6,4 km/h (2 Bft)
16.07.2016 09:41 13,2 C 13,2 C 80 % 1026,6 hPa 0,0 mm 3,0 km/h (1 Bft) W 261 1 min 0,000 mm 3,4 UV-I 587 W/m 9,8 C 4,8 km/h (1 Bft)
16.07.2016 09:42 13,3 C 13,3 C 81 % 1026,5 hPa 0,0 mm 4,5 km/h (1 Bft) SW 235 1 min 0,000 mm 3,4 UV-I 589 W/m 10,1 C 6,4 km/h (2 Bft)
16.07.2016 09:43 13,3 C 13,3 C 79 % 1026,5 hPa 0,0 mm 5,3 km/h (1 Bft) W-NW 293 1 min 0,000 mm 3,5 UV-I 591 W/m 9,7 C 6,4 km/h (2 Bft)
16.07.2016 09:44 13,3 C 13,3 C 77 % 1026,5 hPa 0,0 mm 4,6 km/h (1 Bft) W-SW 250 1 min 0,000 mm 3,5 UV-I 594 W/m 9,4 C 6,4 km/h (2 Bft)
16.07.2016 09:45 13,4 C 13,4 C 84 % 1026,5 hPa 0,0 mm 5,2 km/h (1 Bft) W-SW 241 1 min 0,000 mm 3,5 UV-I 601 W/m 10,8 C 6,4 km/h (2 Bft)
16.07.2016 09:46 13,5 C 13,5 C 84 % 1026,5 hPa 0,0 mm 4,6 km/h (1 Bft) SW 236 1 min 0,000 mm 3,6 UV-I 606 W/m 10,8 C 4,8 km/h (1 Bft)
16.07.2016 09:47 13,5 C 13,5 C 75 % 1026,5 hPa 0,0 mm 4,7 km/h (1 Bft) W 261 1 min 0,000 mm 3,6 UV-I 612 W/m 9,2 C 6,4 km/h (2 Bft)
16.07.2016 09:48 13,6 C 13,6 C 75 % 1026,5 hPa 0,0 mm 5,3 km/h (1 Bft) W-SW 252 1 min 0,000 mm 3,6 UV-I 615 W/m 9,3 C 9,7 km/h (2 Bft)
16.07.2016 09:49 13,4 C 13,6 C 74 % 1026,5 hPa 0,0 mm 2,7 km/h (1 Bft) W-SW 242 1 min 0,000 mm 3,6 UV-I 617 W/m 8,9 C 4,8 km/h (1 Bft)
16.07.2016 09:50 13,3 C 13,4 C 75 % 1026,5 hPa 0,0 mm 5,8 km/h (2 Bft) W 267 1 min 0,000 mm 3,7 UV-I 621 W/m 9,0 C 9,7 km/h (2 Bft)
16.07.2016 09:51 13,4 C 13,4 C 79 % 1026,6 hPa 0,0 mm 6,9 km/h (2 Bft) W-SW 248 1 min 0,000 mm 3,7 UV-I 640 W/m 9,8 C 11,3 km/h (2 Bft)
16.07.2016 09:52 13,4 C 13,4 C 73 % 1026,6 hPa 0,0 mm 1,7 km/h (1 Bft) W-SW 248 1 min 0,000 mm 3,8 UV-I 652 W/m 8,7 C 4,8 km/h (1 Bft)
16.07.2016 09:53 13,4 C 13,4 C 77 % 1026,6 hPa 0,0 mm 2,2 km/h (1 Bft) N 355 1 min 0,000 mm 3,9 UV-I 659 W/m 9,5 C 3,2 km/h (1 Bft)
16.07.2016 09:54 13,5 C 13,5 C 75 % 1026,5 hPa 0,0 mm 1,9 km/h (1 Bft) N 355 1 min 0,000 mm 3,7 UV-I 673 W/m 9,2 C 3,2 km/h (1 Bft)
16.07.2016 09:55 13,5 C 13,6 C 72 % 1026,6 hPa 0,0 mm 5,2 km/h (1 Bft) W 279 1 min 0,000 mm 4,0 UV-I 689 W/m 8,6 C 8,0 km/h (2 Bft)
16.07.2016 09:56 13,6 C 13,6 C 75 % 1026,6 hPa 0,0 mm 7,2 km/h (2 Bft) W 271 1 min 0,000 mm 4,1 UV-I 722 W/m 9,3 C 11,3 km/h (2 Bft)
16.07.2016 09:57 13,7 C 13,7 C 73 % 1026,6 hPa 0,0 mm 6,1 km/h (2 Bft) NW 308 1 min 0,000 mm 4,1 UV-I 738 W/m 8,9 C 8,0 km/h (2 Bft)
16.07.2016 09:58 13,8 C 13,8 C 71 % 1026,6 hPa 0,0 mm 4,0 km/h (1 Bft) N-NW 340 1 min 0,000 mm 4,2 UV-I 758 W/m 8,6 C 6,4 km/h (2 Bft)
16.07.2016 09:59 13,9 C 13,9 C 70 % 1026,6 hPa 0,0 mm 3,2 km/h (1 Bft) W 267 1 min 0,000 mm 4,1 UV-I 777 W/m 8,5 C 4,8 km/h (1 Bft)
16.07.2016 10:00 13,9 C 14,0 C 71 % 1026,5 hPa 0,0 mm 3,9 km/h (1 Bft) W-SW 256 1 min 0,000 mm 4,4 UV-I 795 W/m 8,7 C 4,8 km/h (1 Bft)
16.07.2016 10:01 14,0 C 14,0 C 77 % 1026,7 hPa 0,0 mm 7,4 km/h (2 Bft) W 269 1 min 0,279 mm 4,4 UV-I 809 W/m 10,0 C 11,3 km/h (2 Bft)
16.07.2016 10:02 14,2 C 14,2 C 70 % 1026,6 hPa 0,0 mm 8,4 km/h (2 Bft) W 264 1 min 0,000 mm 4,5 UV-I 838 W/m 8,8 C 12,9 km/h (3 Bft)
16.07.2016 10:03 14,3 C 14,3 C 69 % 1026,6 hPa 0,0 mm 6,3 km/h (2 Bft) W-SW 254 1 min 0,000 mm 4,5 UV-I 854 W/m 8,7 C 8,0 km/h (2 Bft)
16.07.2016 10:04 14,3 C 14,3 C 69 % 1026,7 hPa 0,0 mm 7,8 km/h (2 Bft) W-NW 296 1 min 0,000 mm 4,5 UV-I 868 W/m 8,7 C 11,3 km/h (2 Bft)
16.07.2016 10:05 14,3 C 14,4 C 68 % 1026,7 hPa 0,0 mm 4,7 km/h (1 Bft) W 261 1 min 0,000 mm 4,5 UV-I 889 W/m 8,5 C 11,3 km/h (2 Bft)
16.07.2016 10:06 14,3 C 14,3 C 70 % 1026,6 hPa 0,0 mm 7,5 km/h (2 Bft) W 267 1 min 0,000 mm 3,7 UV-I 889 W/m 8,9 C 11,3 km/h (2 Bft)
16.07.2016 10:07 14,2 C 14,3 C 65 % 1026,7 hPa 0,0 mm 3,4 km/h (1 Bft) W-SW 255 1 min 0,000 mm 3,1 UV-I 889 W/m 7,7 C 6,4 km/h (2 Bft)
16.07.2016 10:08 14,1 C 14,2 C 68 % 1026,7 hPa 0,0 mm 9,0 km/h (2 Bft) W 267 1 min 0,000 mm 3,6 UV-I 889 W/m 8,3 C 14,5 km/h (3 Bft)
16.07.2016 10:09 14,1 C 14,2 C 71 % 1026,7 hPa 0,0 mm 10,8 km/h (2 Bft) W-NW 302 0 min 0,000 mm 2,1 UV-I 257 W/m 8,9 C 14,5 km/h (3 Bft)
16.07.2016 10:10 14,0 C 14,1 C 68 % 1026,7 hPa 0,0 mm 9,5 km/h (2 Bft) W-NW 301 0 min 0,000 mm 2,0 UV-I 251 W/m 8,2 C 14,5 km/h (3 Bft)
16.07.2016 10:11 13,8 C 14,0 C 70 % 1026,7 hPa 0,0 mm 10,1 km/h (2 Bft) W-NW 299 0 min 0,000 mm 2,0 UV-I 251 W/m 8,4 C 12,9 km/h (3 Bft)
16.07.2016 10:12 13,6 C 13,8 C 68 % 1026,7 hPa 0,0 mm 7,6 km/h (2 Bft) W-NW 302 0 min 0,000 mm 1,9 UV-I 236 W/m 7,8 C 12,9 km/h (3 Bft)
16.07.2016 10:13 13,4 C 13,6 C 69 % 1026,8 hPa 0,0 mm 7,6 km/h (2 Bft) NW 309 0 min 0,000 mm 1,7 UV-I 218 W/m 7,8 C 14,5 km/h (3 Bft)
16.07.2016 10:14 13,3 C 13,4 C 69 % 1026,8 hPa 0,0 mm 5,9 km/h (2 Bft) NW 325 0 min 0,000 mm 1,7 UV-I 192 W/m 7,7 C 11,3 km/h (2 Bft)
16.07.2016 10:15 13,2 C 13,3 C 69 % 1026,8 hPa 0,0 mm 6,9 km/h (2 Bft) NW 306 0 min 0,000 mm 1,6 UV-I 185 W/m 7,6 C 9,7 km/h (2 Bft)
16.07.2016 10:16 13,2 C 13,2 C 70 % 1026,8 hPa 0,0 mm 4,8 km/h (1 Bft) NW 315 0 min 0,000 mm 1,6 UV-I 178 W/m 7,9 C 8,0 km/h (2 Bft)
16.07.2016 10:17 13,1 C 13,2 C 72 % 1026,8 hPa 0,0 mm 4,4 km/h (1 Bft) W 275 0 min 0,000 mm 1,5 UV-I 178 W/m 8,2 C 6,4 km/h (2 Bft)
16.07.2016 10:18 13,0 C 13,1 C 70 % 1026,8 hPa 0,0 mm 6,0 km/h (2 Bft) W 273 0 min 0,000 mm 1,4 UV-I 169 W/m 7,7 C 9,7 km/h (2 Bft)
16.07.2016 10:19 12,9 C 13,0 C 72 % 1026,8 hPa 0,0 mm 4,2 km/h (1 Bft) NW 306 0 min 0,000 mm 1,4 UV-I 169 W/m 8,0 C 6,4 km/h (2 Bft)
16.07.2016 10:20 12,8 C 12,9 C 71 % 1026,8 hPa 0,0 mm 2,9 km/h (1 Bft) W-NW 291 0 min 0,000 mm 1,4 UV-I 169 W/m 7,7 C 4,8 km/h (1 Bft)
16.07.2016 10:21 12,8 C 12,8 C 71 % 1026,8 hPa 0,0 mm 3,4 km/h (1 Bft) W-NW 300 0 min 0,000 mm 1,4 UV-I 169 W/m 7,7 C 4,8 km/h (1 Bft)
16.07.2016 10:22 12,8 C 12,8 C 73 % 1026,8 hPa 0,0 mm 5,6 km/h (1 Bft) W-SW 240 0 min 0,000 mm 1,5 UV-I 167 W/m 8,1 C 11,3 km/h (2 Bft)
16.07.2016 10:23 12,7 C 12,8 C 69 % 1026,8 hPa 0,0 mm 6,3 km/h (2 Bft) W-NW 287 0 min 0,000 mm 1,5 UV-I 169 W/m 7,2 C 8,0 km/h (2 Bft)
16.07.2016 10:24 12,7 C 12,7 C 71 % 1026,8 hPa 0,0 mm 4,2 km/h (1 Bft) W 263 0 min 0,000 mm 1,5 UV-I 169 W/m 7,6 C 6,4 km/h (2 Bft)
16.07.2016 10:25 12,7 C 12,7 C 73 % 1026,8 hPa 0,0 mm 2,9 km/h (1 Bft) W 266 0 min 0,000 mm 1,5 UV-I 169 W/m 8,0 C 4,8 km/h (1 Bft)
16.07.2016 10:26 12,7 C 12,7 C 75 % 1026,8 hPa 0,0 mm 3,6 km/h (1 Bft) W-SW 257 0 min 0,000 mm 1,5 UV-I 167 W/m 8,4 C 4,8 km/h (1 Bft)
16.07.2016 10:27 12,7 C 12,7 C 75 % 1026,9 hPa 0,0 mm 4,6 km/h (1 Bft) W-SW 238 0 min 0,000 mm 1,5 UV-I 171 W/m 8,4 C 6,4 km/h (2 Bft)
16.07.2016 10:28 12,7 C 12,7 C 75 % 1026,9 hPa 0,0 mm 4,2 km/h (1 Bft) W-SW 248 0 min 0,000 mm 1,5 UV-I 172 W/m 8,4 C 6,4 km/h (2 Bft)
16.07.2016 10:29 12,7 C 12,7 C 74 % 1026,9 hPa 0,0 mm 4,2 km/h (1 Bft) W-SW 242 0 min 0,000 mm 1,4 UV-I 171 W/m 8,2 C 6,4 km/h (2 Bft)
16.07.2016 10:30 12,7 C 12,7 C 74 % 1026,9 hPa 0,0 mm 3,0 km/h (1 Bft) SW 229 0 min 0,000 mm 1,4 UV-I 169 W/m 8,2 C 4,8 km/h (1 Bft)
16.07.2016 10:31 12,7 C 12,7 C 73 % 1027,0 hPa 0,0 mm 2,9 km/h (1 Bft) W-SW 257 0 min 0,000 mm 1,4 UV-I 167 W/m 8,0 C 4,8 km/h (1 Bft)
16.07.2016 10:32 12,7 C 12,7 C 73 % 1027,0 hPa 0,0 mm 2,2 km/h (1 Bft) W-SW 257 0 min 0,000 mm 1,4 UV-I 167 W/m 8,0 C 4,8 km/h (1 Bft)
16.07.2016 10:33 12,8 C 12,8 C 72 % 1026,9 hPa 0,0 mm 3,4 km/h (1 Bft) W 279 0 min 0,000 mm 1,4 UV-I 171 W/m 7,9 C 4,8 km/h (1 Bft)
16.07.2016 10:34 12,8 C 12,8 C 75 % 1027,0 hPa 0,0 mm 2,1 km/h (1 Bft) W 279 0 min 0,000 mm 1,5 UV-I 174 W/m 8,5 C 3,2 km/h (1 Bft)
16.07.2016 10:35 12,7 C 12,8 C 77 % 1027,0 hPa 0,0 mm 0,3 km/h (0 Bft) W 279 0 min 0,000 mm 1,5 UV-I 178 W/m 8,8 C 1,6 km/h (1 Bft)
16.07.2016 10:36 12,7 C 12,7 C 76 % 1026,9 hPa 0,0 mm 1,0 km/h (0 Bft) W 279 0 min 0,000 mm 1,5 UV-I 181 W/m 8,6 C 3,2 km/h (1 Bft)
16.07.2016 10:37 12,6 C 12,7 C 77 % 1027,0 hPa 0,0 mm 1,7 km/h (1 Bft) W 279 0 min 0,000 mm 1,5 UV-I 185 W/m 8,7 C 3,2 km/h (1 Bft)
16.07.2016 10:38 12,6 C 12,6 C 77 % 1027,0 hPa 0,0 mm 0,9 km/h (0 Bft) W 278 0 min 0,000 mm 1,5 UV-I 185 W/m 8,7 C 3,2 km/h (1 Bft)
16.07.2016 10:39 12,6 C 12,6 C 77 % 1027,0 hPa 0,0 mm 0,6 km/h (0 Bft) W 279 0 min 0,000 mm 1,5 UV-I 179 W/m 8,7 C 1,6 km/h (1 Bft)
16.07.2016 10:40 12,6 C 12,7 C 80 % 1027,0 hPa 0,0 mm 0,3 km/h (0 Bft) W 278 0 min 0,000 mm 1,4 UV-I 176 W/m 9,2 C 1,6 km/h (1 Bft)
16.07.2016 10:41 12,7 C 12,7 C 83 % 1027,0 hPa 0,0 mm 0,7 km/h (0 Bft) W-SW 244 0 min 0,000 mm 1,4 UV-I 172 W/m 9,9 C 3,2 km/h (1 Bft)
16.07.2016 10:42 12,7 C 12,7 C 75 % 1027,0 hPa 0,0 mm 3,4 km/h (1 Bft) W-SW 247 0 min 0,000 mm 1,4 UV-I 169 W/m 8,4 C 4,8 km/h (1 Bft)
16.07.2016 10:43 12,8 C 12,8 C 78 % 1027,0 hPa 0,0 mm 2,0 km/h (1 Bft) W-SW 247 0 min 0,000 mm 1,3 UV-I 165 W/m 9,1 C 3,2 km/h (1 Bft)
16.07.2016 10:44 12,8 C 12,8 C 76 % 1027,0 hPa 0,0 mm 1,8 km/h (1 Bft) W-SW 247 0 min 0,000 mm 1,3 UV-I 167 W/m 8,7 C 3,2 km/h (1 Bft)
16.07.2016 10:45 12,8 C 12,8 C 73 % 1027,1 hPa 0,0 mm 1,0 km/h (0 Bft) W-SW 247 0 min 0,000 mm 1,4 UV-I 167 W/m 8,1 C 3,2 km/h (1 Bft)
16.07.2016 10:46 12,8 C 12,8 C 72 % 1027,0 hPa 0,0 mm 1,5 km/h (1 Bft) W-SW 247 0 min 0,000 mm 1,4 UV-I 169 W/m 7,9 C 3,2 km/h (1 Bft)
16.07.2016 10:47 12,8 C 12,8 C 75 % 1027,1 hPa 0,0 mm 2,5 km/h (1 Bft) W-SW 247 0 min 0,000 mm 1,4 UV-I 169 W/m 8,5 C 3,2 km/h (1 Bft)
16.07.2016 10:48 12,8 C 12,8 C 74 % 1027,0 hPa 0,0 mm 1,0 km/h (0 Bft) W-SW 247 0 min 0,000 mm 1,4 UV-I 169 W/m 8,3 C 1,6 km/h (1 Bft)
16.07.2016 10:49 12,8 C 12,8 C 78 % 1027,1 hPa 0,0 mm 0,5 km/h (0 Bft) W-SW 247 0 min 0,000 mm 1,4 UV-I 167 W/m 9,1 C 1,6 km/h (1 Bft)
16.07.2016 10:50 12,7 C 12,8 C 78 % 1027,1 hPa 0,0 mm 1,7 km/h (1 Bft) O-SO 106 0 min 0,000 mm 1,4 UV-I 169 W/m 9,0 C 3,2 km/h (1 Bft)
16.07.2016 10:51 12,7 C 12,7 C 78 % 1027,1 hPa 0,0 mm 1,1 km/h (1 Bft) O-SO 107 0 min 0,000 mm 1,4 UV-I 169 W/m 9,0 C 3,2 km/h (1 Bft)
16.07.2016 10:52 12,7 C 12,7 C 80 % 1027,1 hPa 0,0 mm 1,7 km/h (1 Bft) SW 218 0 min 0,000 mm 1,4 UV-I 169 W/m 9,3 C 4,8 km/h (1 Bft)
16.07.2016 10:53 12,7 C 12,7 C 74 % 1027,1 hPa 0,0 mm 2,0 km/h (1 Bft) S-SW 197 0 min 0,000 mm 1,4 UV-I 171 W/m 8,2 C 3,2 km/h (1 Bft)
16.07.2016 10:54 12,7 C 12,7 C 75 % 1027,1 hPa 0,0 mm 0,3 km/h (0 Bft) S-SW 197 0 min 0,000 mm 1,4 UV-I 172 W/m 8,4 C 1,6 km/h (1 Bft)
16.07.2016 10:55 12,7 C 12,7 C 73 % 1027,1 hPa 0,0 mm 2,3 km/h (1 Bft) SW 234 0 min 0,000 mm 1,4 UV-I 178 W/m 8,0 C 3,2 km/h (1 Bft)
16.07.2016 10:56 12,8 C 12,8 C 79 % 1027,1 hPa 0,0 mm 2,2 km/h (1 Bft) SW 230 0 min 0,000 mm 1,5 UV-I 178 W/m 9,2 C 3,2 km/h (1 Bft)
16.07.2016 10:57 12,8 C 12,8 C 74 % 1027,1 hPa 0,0 mm 1,7 km/h (1 Bft) SW 230 0 min 0,000 mm 1,5 UV-I 178 W/m 8,3 C 3,2 km/h (1 Bft)
16.07.2016 10:58 12,8 C 12,8 C 77 % 1027,1 hPa 0,0 mm 1,8 km/h (1 Bft) SW 230 0 min 0,000 mm 1,4 UV-I 178 W/m 8,9 C 4,8 km/h (1 Bft)
16.07.2016 10:59 12,8 C 12,8 C 73 % 1027,1 hPa 0,0 mm 2,1 km/h (1 Bft) SW 230 0 min 0,000 mm 1,4 UV-I 174 W/m 8,1 C 3,2 km/h (1 Bft)
16.07.2016 11:00 12,8 C 12,8 C 73 % 1027,2 hPa 0,0 mm 1,5 km/h (1 Bft) SW 230 0 min 0,127 mm 1,4 UV-I 172 W/m 8,1 C 3,2 km/h (1 Bft)
16.07.2016 11:01 12,8 C 12,8 C 78 % 1027,2 hPa 0,0 mm 0,4 km/h (0 Bft) SW 230 0 min 0,000 mm 1,4 UV-I 165 W/m 9,1 C 1,6 km/h (1 Bft)
16.07.2016 11:02 12,7 C 12,8 C 78 % 1027,2 hPa 0,0 mm 0,3 km/h (0 Bft) SW 230 0 min 0,000 mm 1,3 UV-I 160 W/m 9,0 C 1,6 km/h (1 Bft)
16.07.2016 11:03 12,7 C 12,7 C 82 % 1027,2 hPa 0,0 mm 0,0 km/h (0 Bft) SW 230 0 min 0,000 mm 1,3 UV-I 156 W/m 9,7 C 0,0 km/h (0 Bft)
16.07.2016 11:04 12,6 C 12,7 C 82 % 1027,2 hPa 0,0 mm 0,8 km/h (0 Bft) SW 220 0 min 0,000 mm 1,3 UV-I 153 W/m 9,6 C 3,2 km/h (1 Bft)
16.07.2016 11:05 12,6 C 12,6 C 79 % 1027,2 hPa 0,0 mm 2,4 km/h (1 Bft) S-SW 202 0 min 0,000 mm 1,3 UV-I 151 W/m 9,1 C 4,8 km/h (1 Bft)
16.07.2016 11:06 12,6 C 12,6 C 76 % 1027,3 hPa 0,0 mm 0,8 km/h (0 Bft) S-SW 202 0 min 0,000 mm 1,3 UV-I 151 W/m 8,5 C 1,6 km/h (1 Bft)
16.07.2016 11:07 12,6 C 12,6 C 81 % 1027,2 hPa 0,0 mm 1,4 km/h (1 Bft) S-SW 202 0 min 0,000 mm 1,3 UV-I 151 W/m 9,4 C 3,2 km/h (1 Bft)
16.07.2016 11:08 12,6 C 12,6 C 78 % 1027,3 hPa 0,0 mm 1,0 km/h (0 Bft) S-SW 202 0 min 0,000 mm 1,3 UV-I 153 W/m 8,9 C 1,6 km/h (1 Bft)
16.07.2016 11:09 12,6 C 12,6 C 77 % 1027,3 hPa 0,0 mm 1,5 km/h (1 Bft) S-SW 202 0 min 0,000 mm 1,3 UV-I 153 W/m 8,7 C 1,6 km/h (1 Bft)
16.07.2016 11:10 12,5 C 12,6 C 81 % 1027,2 hPa 0,0 mm 0,8 km/h (0 Bft) S-SW 202 0 min 0,000 mm 1,3 UV-I 155 W/m 9,3 C 1,6 km/h (1 Bft)
16.07.2016 11:11 12,4 C 12,5 C 81 % 1027,2 hPa 0,0 mm 0,8 km/h (0 Bft) S-SW 202 0 min 0,000 mm 1,3 UV-I 155 W/m 9,2 C 1,6 km/h (1 Bft)
16.07.2016 11:12 12,4 C 12,4 C 83 % 1027,2 hPa 0,0 mm 0,3 km/h (0 Bft) S-SW 202 0 min 0,000 mm 1,3 UV-I 162 W/m 9,6 C 1,6 km/h (1 Bft)
16.07.2016 11:13 12,3 C 12,4 C 84 % 1027,3 hPa 0,0 mm 0,6 km/h (0 Bft) S-SW 202 0 min 0,000 mm 1,4 UV-I 167 W/m 9,7 C 1,6 km/h (1 Bft)
16.07.2016 11:14 12,4 C 12,4 C 83 % 1027,3 hPa 0,0 mm 0,7 km/h (0 Bft) S-SW 202 0 min 0,000 mm 1,4 UV-I 169 W/m 9,6 C 1,6 km/h (1 Bft)
16.07.2016 11:15 12,4 C 12,4 C 79 % 1027,3 hPa 0,0 mm 0,1 km/h (0 Bft) S-SW 202 0 min 0,000 mm 1,5 UV-I 172 W/m 8,9 C 1,6 km/h (1 Bft)
16.07.2016 11:16 12,6 C 12,6 C 83 % 1027,3 hPa 0,0 mm 0,2 km/h (0 Bft) S-SW 202 0 min 0,000 mm 1,5 UV-I 174 W/m 9,8 C 1,6 km/h (1 Bft)
16.07.2016 11:17 12,6 C 12,6 C 83 % 1027,3 hPa 0,0 mm 0,5 km/h (0 Bft) S-SW 202 0 min 0,000 mm 1,5 UV-I 176 W/m 9,8 C 1,6 km/h (1 Bft)
16.07.2016 11:18 12,6 C 12,6 C 81 % 1027,3 hPa 0,0 mm 0,3 km/h (0 Bft) SW 223 0 min 0,000 mm 1,5 UV-I 179 W/m 9,4 C 1,6 km/h (1 Bft)
16.07.2016 11:19 12,6 C 12,6 C 84 % 1027,3 hPa 0,0 mm 1,7 km/h (1 Bft) SW 223 0 min 0,000 mm 1,5 UV-I 181 W/m 10,0 C 3,2 km/h (1 Bft)
16.07.2016 11:20 12,5 C 12,6 C 83 % 1027,3 hPa 0,0 mm 2,8 km/h (1 Bft) SW 234 0 min 0,000 mm 1,5 UV-I 181 W/m 9,7 C 3,2 km/h (1 Bft)
16.07.2016 11:21 12,6 C 12,6 C 81 % 1027,3 hPa 0,0 mm 2,3 km/h (1 Bft) SW 234 0 min 0,000 mm 1,5 UV-I 181 W/m 9,4 C 3,2 km/h (1 Bft)
16.07.2016 11:22 12,7 C 12,7 C 82 % 1027,3 hPa 0,0 mm 2,7 km/h (1 Bft) SW 234 0 min 0,000 mm 1,5 UV-I 178 W/m 9,7 C 4,8 km/h (1 Bft)
16.07.2016 11:23 12,8 C 12,8 C 82 % 1027,4 hPa 0,0 mm 2,6 km/h (1 Bft) SW 234 0 min 0,000 mm 1,5 UV-I 174 W/m 9,8 C 3,2 km/h (1 Bft)
16.07.2016 11:24 12,8 C 12,8 C 74 % 1027,3 hPa 0,0 mm 2,6 km/h (1 Bft) SW 234 0 min 0,000 mm 1,5 UV-I 169 W/m 8,3 C 3,2 km/h (1 Bft)
16.07.2016 11:25 12,9 C 12,9 C 75 % 1027,4 hPa 0,0 mm 1,8 km/h (1 Bft) SW 234 0 min 0,000 mm 1,4 UV-I 165 W/m 8,6 C 3,2 km/h (1 Bft)
16.07.2016 11:26 12,9 C 12,9 C 75 % 1027,3 hPa 0,0 mm 1,5 km/h (1 Bft) SW 234 0 min 0,000 mm 1,4 UV-I 162 W/m 8,6 C 3,2 km/h (1 Bft)
16.07.2016 11:27 12,9 C 12,9 C 73 % 1027,4 hPa 0,0 mm 2,4 km/h (1 Bft) SW 234 0 min 0,000 mm 1,4 UV-I 160 W/m 8,2 C 3,2 km/h (1 Bft)
16.07.2016 11:28 13,0 C 13,0 C 76 % 1027,4 hPa 0,0 mm 1,5 km/h (1 Bft) SW 234 0 min 0,000 mm 1,4 UV-I 162 W/m 8,9 C 3,2 km/h (1 Bft)
16.07.2016 11:29 13,0 C 13,0 C 76 % 1027,3 hPa 0,0 mm 1,4 km/h (1 Bft) SW 234 0 min 0,000 mm 1,4 UV-I 162 W/m 8,9 C 3,2 km/h (1 Bft)
16.07.2016 11:30 12,9 C 13,0 C 72 % 1027,3 hPa 0,0 mm 1,5 km/h (1 Bft) SW 234 0 min 0,000 mm 1,4 UV-I 163 W/m 8,0 C 3,2 km/h (1 Bft)
16.07.2016 11:31 13,0 C 13,0 C 77 % 1027,3 hPa 0,0 mm 2,4 km/h (1 Bft) S-SW 198 0 min 0,000 mm 1,4 UV-I 163 W/m 9,1 C 3,2 km/h (1 Bft)
16.07.2016 11:32 13,0 C 13,1 C 74 % 1027,3 hPa 0,0 mm 2,1 km/h (1 Bft) W-SW 238 0 min 0,000 mm 1,4 UV-I 165 W/m 8,5 C 3,2 km/h (1 Bft)
16.07.2016 11:33 13,1 C 13,1 C 77 % 1027,3 hPa 0,0 mm 2,5 km/h (1 Bft) W-SW 241 0 min 0,000 mm 1,4 UV-I 163 W/m 9,2 C 3,2 km/h (1 Bft)
16.07.2016 11:34 13,1 C 13,1 C 78 % 1027,3 hPa 0,0 mm 0,7 km/h (0 Bft) W-SW 241 0 min 0,000 mm 1,4 UV-I 163 W/m 9,4 C 1,6 km/h (1 Bft)
16.07.2016 11:35 13,0 C 13,1 C 79 % 1027,3 hPa 0,0 mm 3,1 km/h (1 Bft) W 259 0 min 0,000 mm 1,4 UV-I 167 W/m 9,4 C 6,4 km/h (2 Bft)
16.07.2016 11:36 13,0 C 13,0 C 77 % 1027,2 hPa 0,0 mm 2,0 km/h (1 Bft) W-SW 258 0 min 0,000 mm 1,4 UV-I 172 W/m 9,1 C 3,2 km/h (1 Bft)
16.07.2016 11:37 12,9 C 13,0 C 76 % 1027,3 hPa 0,0 mm 1,0 km/h (0 Bft) W-SW 258 0 min 0,000 mm 1,5 UV-I 174 W/m 8,8 C 3,2 km/h (1 Bft)
16.07.2016 11:38 12,9 C 12,9 C 77 % 1027,3 hPa 0,0 mm 0,6 km/h (0 Bft) W-SW 257 0 min 0,000 mm 1,4 UV-I 174 W/m 9,0 C 1,6 km/h (1 Bft)
16.07.2016 11:39 12,9 C 13,0 C 75 % 1027,3 hPa 0,0 mm 2,1 km/h (1 Bft) W-SW 257 0 min 0,000 mm 1,4 UV-I 169 W/m 8,6 C 3,2 km/h (1 Bft)
16.07.2016 11:40 12,9 C 12,9 C 74 % 1027,3 hPa 0,0 mm 1,2 km/h (1 Bft) W-SW 257 0 min 0,000 mm 1,4 UV-I 165 W/m 8,4 C 3,2 km/h (1 Bft)
16.07.2016 11:41 12,9 C 12,9 C 73 % 1027,3 hPa 0,0 mm 0,6 km/h (0 Bft) W-SW 257 0 min 0,000 mm 1,4 UV-I 163 W/m 8,2 C 1,6 km/h (1 Bft)
16.07.2016 11:42 12,9 C 12,9 C 72 % 1027,3 hPa 0,0 mm 0,5 km/h (0 Bft) SW 217 0 min 0,000 mm 1,4 UV-I 163 W/m 8,0 C 1,6 km/h (1 Bft)
16.07.2016 11:43 12,9 C 12,9 C 70 % 1027,3 hPa 0,0 mm 0,4 km/h (0 Bft) SW 217 0 min 0,000 mm 1,4 UV-I 165 W/m 7,6 C 1,6 km/h (1 Bft)
16.07.2016 11:44 12,9 C 12,9 C 72 % 1027,3 hPa 0,0 mm 2,0 km/h (1 Bft) W-NW 290 0 min 0,000 mm 1,4 UV-I 171 W/m 8,0 C 3,2 km/h (1 Bft)
16.07.2016 11:45 12,9 C 13,0 C 74 % 1027,3 hPa 0,0 mm 2,8 km/h (1 Bft) W-NW 286 0 min 0,000 mm 1,5 UV-I 178 W/m 8,4 C 3,2 km/h (1 Bft)
16.07.2016 11:46 13,1 C 13,1 C 76 % 1027,3 hPa 0,0 mm 1,1 km/h (1 Bft) W-NW 286 0 min 0,000 mm 1,5 UV-I 185 W/m 9,0 C 3,2 km/h (1 Bft)
16.07.2016 11:47 13,1 C 13,1 C 74 % 1027,3 hPa 0,0 mm 0,2 km/h (0 Bft) W-NW 286 0 min 0,000 mm 1,5 UV-I 192 W/m 8,6 C 1,6 km/h (1 Bft)
16.07.2016 11:48 13,1 C 13,1 C 73 % 1027,2 hPa 0,0 mm 0,7 km/h (0 Bft) W-NW 286 0 min 0,000 mm 1,7 UV-I 209 W/m 8,4 C 1,6 km/h (1 Bft)
16.07.2016 11:49 13,1 C 13,1 C 73 % 1027,3 hPa 0,0 mm 0,7 km/h (0 Bft) W-NW 286 0 min 0,000 mm 1,9 UV-I 218 W/m 8,4 C 1,6 km/h (1 Bft)
16.07.2016 11:50 13,1 C 13,1 C 73 % 1027,3 hPa 0,0 mm 1,6 km/h (1 Bft) W-NW 286 0 min 0,000 mm 2,0 UV-I 230 W/m 8,4 C 3,2 km/h (1 Bft)
16.07.2016 11:51 13,2 C 13,2 C 76 % 1027,3 hPa 0,0 mm 4,2 km/h (1 Bft) W-SW 252 0 min 0,000 mm 2,1 UV-I 243 W/m 9,1 C 6,4 km/h (2 Bft)
16.07.2016 11:52 13,2 C 13,2 C 72 % 1027,2 hPa 0,0 mm 3,1 km/h (1 Bft) W 268 0 min 0,000 mm 2,2 UV-I 253 W/m 8,3 C 4,8 km/h (1 Bft)
16.07.2016 11:53 13,2 C 13,2 C 73 % 1027,2 hPa 0,0 mm 2,5 km/h (1 Bft) W 267 0 min 0,000 mm 2,3 UV-I 264 W/m 8,5 C 3,2 km/h (1 Bft)
16.07.2016 11:54 13,3 C 13,3 C 72 % 1027,2 hPa 0,0 mm 1,5 km/h (1 Bft) W 267 0 min 0,000 mm 2,3 UV-I 278 W/m 8,4 C 3,2 km/h (1 Bft)
16.07.2016 11:55 13,3 C 13,3 C 73 % 1027,2 hPa 0,0 mm 3,0 km/h (1 Bft) SW 235 0 min 0,000 mm 2,5 UV-I 285 W/m 8,6 C 6,4 km/h (2 Bft)
16.07.2016 11:56 13,3 C 13,3 C 73 % 1027,2 hPa 0,0 mm 4,3 km/h (1 Bft) W-SW 248 0 min 0,000 mm 2,6 UV-I 285 W/m 8,6 C 4,8 km/h (1 Bft)
16.07.2016 11:57 13,3 C 13,3 C 71 % 1027,1 hPa 0,0 mm 4,3 km/h (1 Bft) W-SW 254 0 min 0,000 mm 2,6 UV-I 299 W/m 8,2 C 4,8 km/h (1 Bft)
16.07.2016 11:58 13,3 C 13,3 C 73 % 1027,2 hPa 0,0 mm 3,9 km/h (1 Bft) W-SW 254 0 min 0,000 mm 2,7 UV-I 309 W/m 8,6 C 4,8 km/h (1 Bft)
16.07.2016 11:59 13,3 C 13,3 C 70 % 1027,2 hPa 0,0 mm 2,0 km/h (1 Bft) W-SW 252 0 min 0,000 mm 2,8 UV-I 320 W/m 7,9 C 3,2 km/h (1 Bft)
16.07.2016 12:00 13,3 C 13,3 C 71 % 1027,2 hPa 0,0 mm 2,5 km/h (1 Bft) W-SW 257 0 min 0,102 mm 2,8 UV-I 323 W/m 8,2 C 3,2 km/h (1 Bft)
16.07.2016 12:01 13,4 C 13,4 C 73 % 1027,2 hPa 0,0 mm 1,6 km/h (1 Bft) W 269 0 min 0,000 mm 2,9 UV-I 325 W/m 8,7 C 3,2 km/h (1 Bft)
16.07.2016 12:02 13,4 C 13,4 C 74 % 1027,2 hPa 0,0 mm 2,5 km/h (1 Bft) S 185 0 min 0,000 mm 2,9 UV-I 325 W/m 8,9 C 4,8 km/h (1 Bft)
16.07.2016 12:03 13,4 C 13,4 C 71 % 1027,2 hPa 0,0 mm 1,1 km/h (1 Bft) S 185 0 min 0,000 mm 2,9 UV-I 327 W/m 8,3 C 3,2 km/h (1 Bft)
16.07.2016 12:04 13,4 C 13,4 C 69 % 1027,1 hPa 0,0 mm 1,3 km/h (1 Bft) S 185 0 min 0,000 mm 3,0 UV-I 329 W/m 7,8 C 3,2 km/h (1 Bft)
16.07.2016 12:05 13,4 C 13,4 C 67 % 1027,1 hPa 0,0 mm 0,3 km/h (0 Bft) S 170 0 min 0,000 mm 3,0 UV-I 334 W/m 7,4 C 1,6 km/h (1 Bft)
16.07.2016 12:06 13,4 C 13,4 C 67 % 1027,1 hPa 0,0 mm 0,2 km/h (0 Bft) S 170 0 min 0,000 mm 3,1 UV-I 343 W/m 7,4 C 1,6 km/h (1 Bft)
16.07.2016 12:07 13,5 C 13,5 C 70 % 1027,2 hPa 0,0 mm 3,0 km/h (1 Bft) W 263 0 min 0,000 mm 3,3 UV-I 355 W/m 8,1 C 4,8 km/h (1 Bft)
16.07.2016 12:08 13,6 C 13,6 C 68 % 1027,1 hPa 0,0 mm 3,5 km/h (1 Bft) W-SW 254 0 min 0,000 mm 3,5 UV-I 369 W/m 7,8 C 4,8 km/h (1 Bft)
16.07.2016 12:09 13,6 C 13,6 C 70 % 1027,1 hPa 0,0 mm 2,9 km/h (1 Bft) W 262 0 min 0,000 mm 3,6 UV-I 388 W/m 8,2 C 4,8 km/h (1 Bft)
16.07.2016 12:10 13,6 C 13,6 C 67 % 1027,1 hPa 0,0 mm 2,4 km/h (1 Bft) W-SW 252 1 min 0,000 mm 4,7 UV-I 483 W/m 7,6 C 3,2 km/h (1 Bft)
16.07.2016 12:11 13,6 C 13,6 C 67 % 1027,1 hPa 0,0 mm 2,1 km/h (1 Bft) W 269 1 min 0,000 mm 4,3 UV-I 476 W/m 7,6 C 4,8 km/h (1 Bft)
16.07.2016 12:12 13,8 C 13,8 C 69 % 1027,1 hPa 0,0 mm 4,5 km/h (1 Bft) W-SW 257 1 min 0,000 mm 7,4 UV-I 476 W/m 8,2 C 6,4 km/h (2 Bft)
16.07.2016 12:13 14,1 C 14,1 C 73 % 1027,0 hPa 0,0 mm 4,2 km/h (1 Bft) W 275 1 min 0,000 mm 7,7 UV-I 1292 W/m 9,3 C 9,7 km/h (2 Bft)
16.07.2016 12:14 14,2 C 14,2 C 67 % 1027,0 hPa 0,0 mm 3,2 km/h (1 Bft) W-SW 257 1 min 0,000 mm 6,0 UV-I 1292 W/m 8,2 C 4,8 km/h (1 Bft)
16.07.2016 12:15 14,3 C 14,3 C 63 % 1027,0 hPa 0,0 mm 3,9 km/h (1 Bft) W-NW 288 1 min 0,000 mm 5,1 UV-I 1292 W/m 7,4 C 4,8 km/h (1 Bft)
16.07.2016 12:16 14,4 C 14,4 C 65 % 1027,0 hPa 0,0 mm 4,4 km/h (1 Bft) W 267 1 min 0,000 mm 7,9 UV-I 1292 W/m 7,9 C 6,4 km/h (2 Bft)
16.07.2016 12:17 14,3 C 14,4 C 64 % 1027,0 hPa 0,0 mm 3,5 km/h (1 Bft) W 273 1 min 0,000 mm 6,1 UV-I 654 W/m 7,6 C 4,8 km/h (1 Bft)
16.07.2016 12:18 14,4 C 14,4 C 68 % 1027,0 hPa 0,0 mm 5,8 km/h (2 Bft) W-NW 290 1 min 0,000 mm 6,0 UV-I 654 W/m 8,6 C 9,7 km/h (2 Bft)
16.07.2016 12:19 14,6 C 14,6 C 71 % 1027,0 hPa 0,0 mm 4,2 km/h (1 Bft) W-NW 295 1 min 0,000 mm 8,0 UV-I 654 W/m 9,4 C 6,4 km/h (2 Bft)
16.07.2016 12:20 14,7 C 14,7 C 68 % 1027,0 hPa 0,0 mm 6,8 km/h (2 Bft) W 275 1 min 0,000 mm 6,3 UV-I 905 W/m 8,9 C 11,3 km/h (2 Bft)
16.07.2016 12:21 14,8 C 14,8 C 69 % 1027,0 hPa 0,0 mm 5,6 km/h (1 Bft) NW 319 1 min 0,000 mm 7,7 UV-I 905 W/m 9,2 C 9,7 km/h (2 Bft)
16.07.2016 12:22 14,9 C 14,9 C 63 % 1026,9 hPa 0,0 mm 6,4 km/h (2 Bft) W-NW 302 1 min 0,000 mm 6,5 UV-I 905 W/m 7,9 C 8,0 km/h (2 Bft)
16.07.2016 12:23 14,8 C 14,9 C 61 % 1027,0 hPa 0,0 mm 5,2 km/h (1 Bft) NW 319 1 min 0,000 mm 5,6 UV-I 622 W/m 7,4 C 6,4 km/h (2 Bft)
16.07.2016 12:24 14,8 C 14,8 C 64 % 1026,9 hPa 0,0 mm 4,5 km/h (1 Bft) N-NW 342 1 min 0,000 mm 4,5 UV-I 485 W/m 8,1 C 4,8 km/h (1 Bft)
16.07.2016 12:25 14,7 C 14,8 C 66 % 1026,9 hPa 0,0 mm 3,2 km/h (1 Bft) N-NW 331 1 min 0,000 mm 4,6 UV-I 497 W/m 8,4 C 4,8 km/h (1 Bft)
16.07.2016 12:26 14,7 C 14,7 C 62 % 1026,9 hPa 0,0 mm 1,1 km/h (1 Bft) N-NW 331 1 min 0,000 mm 5,4 UV-I 497 W/m 7,5 C 1,6 km/h (1 Bft)
16.07.2016 12:27 14,5 C 14,7 C 61 % 1026,8 hPa 0,0 mm 3,2 km/h (1 Bft) N-NO 14 1 min 0,000 mm 6,5 UV-I 497 W/m 7,1 C 6,4 km/h (2 Bft)
16.07.2016 12:28 14,4 C 14,5 C 62 % 1026,9 hPa 0,0 mm 4,8 km/h (1 Bft) N 360 1 min 0,000 mm 4,8 UV-I 791 W/m 7,2 C 6,4 km/h (2 Bft)
16.07.2016 12:29 14,4 C 14,5 C 64 % 1026,9 hPa 0,0 mm 2,5 km/h (1 Bft) N 5 0 min 0,000 mm 4,0 UV-I 439 W/m 7,7 C 4,8 km/h (1 Bft)
16.07.2016 12:30 14,5 C 14,5 C 62 % 1026,9 hPa 0,0 mm 2,0 km/h (1 Bft) N 5 0 min 0,000 mm 3,4 UV-I 401 W/m 7,3 C 3,2 km/h (1 Bft)
16.07.2016 12:31 14,6 C 14,6 C 65 % 1026,8 hPa 0,0 mm 0,7 km/h (0 Bft) N 5 0 min 0,000 mm 2,9 UV-I 341 W/m 8,1 C 1,6 km/h (1 Bft)
16.07.2016 12:32 14,6 C 14,6 C 62 % 1026,9 hPa 0,0 mm 1,5 km/h (1 Bft) N 5 0 min 0,000 mm 2,7 UV-I 315 W/m 7,4 C 3,2 km/h (1 Bft)
16.07.2016 12:33 14,6 C 14,6 C 68 % 1026,9 hPa 0,0 mm 1,9 km/h (1 Bft) NW 322 0 min 0,000 mm 2,5 UV-I 295 W/m 8,8 C 3,2 km/h (1 Bft)
16.07.2016 12:34 14,6 C 14,6 C 66 % 1026,8 hPa 0,0 mm 2,6 km/h (1 Bft) W-NW 302 0 min 0,000 mm 2,2 UV-I 267 W/m 8,3 C 3,2 km/h (1 Bft)
16.07.2016 12:35 14,5 C 14,6 C 68 % 1026,9 hPa 0,0 mm 3,6 km/h (1 Bft) W-SW 252 0 min 0,000 mm 2,0 UV-I 220 W/m 8,7 C 4,8 km/h (1 Bft)
16.07.2016 12:36 14,4 C 14,5 C 68 % 1026,9 hPa 0,0 mm 5,4 km/h (1 Bft) W-NW 291 0 min 0,000 mm 2,0 UV-I 223 W/m 8,6 C 6,4 km/h (2 Bft)
16.07.2016 12:37 14,3 C 14,4 C 66 % 1026,9 hPa 0,0 mm 6,4 km/h (2 Bft) W-NW 283 0 min 0,000 mm 1,4 UV-I 178 W/m 8,0 C 11,3 km/h (2 Bft)
16.07.2016 12:38 14,2 C 14,3 C 62 % 1026,9 hPa 0,0 mm 4,5 km/h (1 Bft) W 265 0 min 0,000 mm 1,3 UV-I 156 W/m 7,0 C 6,4 km/h (2 Bft)
16.07.2016 12:39 14,1 C 14,2 C 65 % 1027,0 hPa 0,0 mm 2,9 km/h (1 Bft) W 281 0 min 0,000 mm 1,2 UV-I 144 W/m 7,6 C 4,8 km/h (1 Bft)
16.07.2016 12:40 14,0 C 14,1 C 63 % 1026,9 hPa 0,0 mm 2,4 km/h (1 Bft) W 280 0 min 0,000 mm 1,1 UV-I 135 W/m 7,1 C 4,8 km/h (1 Bft)
16.07.2016 12:41 13,9 C 14,0 C 63 % 1026,9 hPa 0,0 mm 3,6 km/h (1 Bft) W-NW 299 0 min 0,000 mm 1,1 UV-I 125 W/m 7,0 C 6,4 km/h (2 Bft)
16.07.2016 12:42 13,8 C 13,9 C 64 % 1026,9 hPa 0,0 mm 2,0 km/h (1 Bft) W 277 0 min 0,000 mm 1,0 UV-I 123 W/m 7,1 C 3,2 km/h (1 Bft)
16.07.2016 12:43 13,8 C 13,8 C 67 % 1026,9 hPa 0,0 mm 2,2 km/h (1 Bft) W-SW 246 0 min 0,000 mm 1,0 UV-I 121 W/m 7,8 C 3,2 km/h (1 Bft)
16.07.2016 12:44 13,7 C 13,8 C 66 % 1026,9 hPa 0,0 mm 3,2 km/h (1 Bft) W 261 0 min 0,000 mm 1,0 UV-I 121 W/m 7,5 C 4,8 km/h (1 Bft)
16.07.2016 12:45 13,7 C 13,7 C 71 % 1027,0 hPa 0,0 mm 2,1 km/h (1 Bft) W-SW 247 0 min 0,000 mm 1,0 UV-I 123 W/m 8,5 C 3,2 km/h (1 Bft)
16.07.2016 12:46 13,6 C 13,7 C 72 % 1026,9 hPa 0,0 mm 1,9 km/h (1 Bft) W-SW 246 0 min 0,000 mm 1,1 UV-I 128 W/m 8,6 C 3,2 km/h (1 Bft)
16.07.2016 12:47 13,6 C 13,6 C 67 % 1026,9 hPa 0,0 mm 1,7 km/h (1 Bft) W-SW 246 0 min 0,000 mm 1,1 UV-I 134 W/m 7,6 C 3,2 km/h (1 Bft)
16.07.2016 12:48 13,6 C 13,6 C 69 % 1026,9 hPa 0,0 mm 1,7 km/h (1 Bft) W-SW 246 0 min 0,000 mm 1,2 UV-I 141 W/m 8,0 C 3,2 km/h (1 Bft)
16.07.2016 12:49 13,5 C 13,6 C 71 % 1026,9 hPa 0,0 mm 1,7 km/h (1 Bft) W-SW 246 0 min 0,000 mm 1,3 UV-I 149 W/m 8,3 C 3,2 km/h (1 Bft)
16.07.2016 12:50 13,5 C 13,5 C 67 % 1026,9 hPa 0,0 mm 0,2 km/h (0 Bft) W-SW 246 0 min 0,000 mm 1,4 UV-I 162 W/m 7,5 C 1,6 km/h (1 Bft)
16.07.2016 12:51 13,4 C 13,5 C 71 % 1026,9 hPa 0,0 mm 0,0 km/h (0 Bft) W-SW 246 0 min 0,000 mm 1,6 UV-I 174 W/m 8,3 C 0,0 km/h (0 Bft)
16.07.2016 12:52 13,3 C 13,4 C 74 % 1026,9 hPa 0,0 mm 1,9 km/h (1 Bft) S 188 0 min 0,000 mm 1,7 UV-I 204 W/m 8,8 C 4,8 km/h (1 Bft)
16.07.2016 12:53 13,3 C 13,4 C 76 % 1026,8 hPa 0,0 mm 2,4 km/h (1 Bft) S 178 0 min 0,000 mm 2,0 UV-I 218 W/m 9,2 C 3,2 km/h (1 Bft)
16.07.2016 12:54 13,3 C 13,3 C 70 % 1026,8 hPa 0,0 mm 2,7 km/h (1 Bft) S 172 0 min 0,000 mm 2,1 UV-I 230 W/m 7,9 C 4,8 km/h (1 Bft)
16.07.2016 12:55 13,3 C 13,3 C 67 % 1026,8 hPa 0,0 mm 2,5 km/h (1 Bft) O-SO 116 0 min 0,000 mm 2,2 UV-I 243 W/m 7,3 C 4,8 km/h (1 Bft)
16.07.2016 12:56 13,3 C 13,3 C 76 % 1026,8 hPa 0,0 mm 4,4 km/h (1 Bft) S-SO 159 0 min 0,000 mm 2,3 UV-I 253 W/m 9,2 C 6,4 km/h (2 Bft)
16.07.2016 12:57 13,3 C 13,3 C 70 % 1026,8 hPa 0,0 mm 5,2 km/h (1 Bft) S-SO 155 0 min 0,000 mm 2,4 UV-I 264 W/m 7,9 C 9,7 km/h (2 Bft)
16.07.2016 12:58 13,4 C 13,4 C 65 % 1026,8 hPa 0,0 mm 3,0 km/h (1 Bft) S-SO 156 0 min 0,000 mm 2,5 UV-I 278 W/m 7,0 C 4,8 km/h (1 Bft)
16.07.2016 12:59 13,4 C 13,4 C 65 % 1026,8 hPa 0,0 mm 2,4 km/h (1 Bft) S-SO 157 0 min 0,000 mm 2,7 UV-I 287 W/m 7,0 C 3,2 km/h (1 Bft)
16.07.2016 13:00 13,5 C 13,5 C 69 % 1026,9 hPa 0,0 mm 1,7 km/h (1 Bft) S 182 0 min 0,000 mm 2,8 UV-I 301 W/m 7,9 C 4,8 km/h (1 Bft)
16.07.2016 13:01 13,6 C 13,6 C 65 % 1026,8 hPa 0,0 mm 0,9 km/h (0 Bft) S-SW 194 0 min 0,228 mm 3,0 UV-I 318 W/m 7,1 C 3,2 km/h (1 Bft)
16.07.2016 13:02 13,8 C 13,8 C 63 % 1026,8 hPa 0,0 mm 1,5 km/h (1 Bft) SW 221 0 min 0,000 mm 3,2 UV-I 345 W/m 6,9 C 3,2 km/h (1 Bft)
16.07.2016 13:03 13,8 C 13,8 C 63 % 1026,8 hPa 0,0 mm 1,3 km/h (1 Bft) N-NW 333 0 min 0,000 mm 3,3 UV-I 380 W/m 6,9 C 3,2 km/h (1 Bft)
16.07.2016 13:04 13,9 C 13,9 C 64 % 1026,8 hPa 0,0 mm 2,3 km/h (1 Bft) N-NW 331 0 min 0,000 mm 3,4 UV-I 383 W/m 7,2 C 3,2 km/h (1 Bft)
16.07.2016 13:05 14,1 C 14,1 C 68 % 1026,7 hPa 0,0 mm 3,3 km/h (1 Bft) N-NW 345 0 min 0,000 mm 3,5 UV-I 396 W/m 8,3 C 4,8 km/h (1 Bft)
16.07.2016 13:06 14,1 C 14,2 C 65 % 1026,8 hPa 0,0 mm 1,9 km/h (1 Bft) NW 317 0 min 0,000 mm 3,7 UV-I 427 W/m 7,6 C 3,2 km/h (1 Bft)
16.07.2016 13:07 14,2 C 14,2 C 64 % 1026,7 hPa 0,0 mm 1,7 km/h (1 Bft) NW 317 1 min 0,000 mm 4,2 UV-I 489 W/m 7,5 C 3,2 km/h (1 Bft)
16.07.2016 13:08 14,2 C 14,2 C 62 % 1026,7 hPa 0,0 mm 0,1 km/h (0 Bft) NW 317 1 min 0,000 mm 4,6 UV-I 508 W/m 7,0 C 1,6 km/h (1 Bft)
16.07.2016 13:09 14,3 C 14,3 C 63 % 1026,7 hPa 0,0 mm 2,7 km/h (1 Bft) W-NW 290 1 min 0,000 mm 4,2 UV-I 485 W/m 7,4 C 4,8 km/h (1 Bft)
16.07.2016 13:10 14,3 C 14,3 C 63 % 1026,7 hPa 0,0 mm 2,1 km/h (1 Bft) W-NW 296 1 min 0,000 mm 4,8 UV-I 517 W/m 7,4 C 3,2 km/h (1 Bft)
16.07.2016 13:11 14,6 C 14,6 C 63 % 1026,7 hPa 0,0 mm 1,9 km/h (1 Bft) NW 323 1 min 0,000 mm 5,6 UV-I 517 W/m 7,6 C 3,2 km/h (1 Bft)
16.07.2016 13:12 14,8 C 14,8 C 67 % 1026,7 hPa 0,0 mm 2,1 km/h (1 Bft) NW 321 1 min 0,000 mm 5,8 UV-I 724 W/m 8,7 C 4,8 km/h (1 Bft)
16.07.2016 13:13 14,9 C 14,9 C 65 % 1026,7 hPa 0,0 mm 3,0 km/h (1 Bft) N-NW 342 1 min 0,000 mm 5,3 UV-I 724 W/m 8,4 C 4,8 km/h (1 Bft)
16.07.2016 13:14 15,0 C 15,0 C 64 % 1026,7 hPa 0,0 mm 1,4 km/h (1 Bft) W-NW 300 1 min 0,000 mm 4,3 UV-I 490 W/m 8,2 C 3,2 km/h (1 Bft)
16.07.2016 13:15 14,9 C 15,0 C 64 % 1026,7 hPa 0,0 mm 1,0 km/h (0 Bft) W-NW 301 1 min 0,000 mm 5,3 UV-I 534 W/m 8,2 C 3,2 km/h (1 Bft)
16.07.2016 13:16 14,9 C 14,9 C 63 % 1026,7 hPa 0,0 mm 0,8 km/h (0 Bft) W-NW 285 1 min 0,000 mm 7,4 UV-I 874 W/m 7,9 C 3,2 km/h (1 Bft)
16.07.2016 13:17 14,8 C 14,9 C 58 % 1026,7 hPa 0,0 mm 0,5 km/h (0 Bft) W-NW 284 1 min 0,000 mm 4,7 UV-I 874 W/m 6,6 C 1,6 km/h (1 Bft)
16.07.2016 13:18 14,8 C 14,8 C 60 % 1026,7 hPa 0,0 mm 3,0 km/h (1 Bft) O-NO 71 1 min 0,000 mm 4,1 UV-I 504 W/m 7,1 C 4,8 km/h (1 Bft)
16.07.2016 13:19 14,8 C 14,9 C 66 % 1026,7 hPa 0,0 mm 1,7 km/h (1 Bft) S-SO 152 0 min 0,000 mm 4,0 UV-I 461 W/m 8,5 C 3,2 km/h (1 Bft)
16.07.2016 13:20 14,8 C 14,8 C 60 % 1026,7 hPa 0,0 mm 2,2 km/h (1 Bft) S-SW 192 0 min 0,000 mm 4,0 UV-I 459 W/m 7,1 C 4,8 km/h (1 Bft)
16.07.2016 13:21 14,7 C 14,8 C 64 % 1026,7 hPa 0,0 mm 3,4 km/h (1 Bft) W-SW 245 0 min 0,000 mm 4,1 UV-I 476 W/m 8,0 C 4,8 km/h (1 Bft)
16.07.2016 13:22 14,7 C 14,7 C 60 % 1026,6 hPa 0,0 mm 2,0 km/h (1 Bft) W-SW 245 1 min 0,000 mm 4,1 UV-I 490 W/m 7,0 C 3,2 km/h (1 Bft)
16.07.2016 13:23 14,7 C 14,7 C 65 % 1026,6 hPa 0,0 mm 1,5 km/h (1 Bft) W-SW 253 1 min 0,000 mm 4,7 UV-I 508 W/m 8,2 C 3,2 km/h (1 Bft)
16.07.2016 13:24 14,7 C 14,7 C 62 % 1026,6 hPa 0,0 mm 2,5 km/h (1 Bft) W 259 1 min 0,000 mm 4,3 UV-I 494 W/m 7,5 C 4,8 km/h (1 Bft)
16.07.2016 13:25 14,6 C 14,7 C 58 % 1026,6 hPa 0,0 mm 3,0 km/h (1 Bft) S-SW 196 1 min 0,000 mm 6,0 UV-I 494 W/m 6,4 C 4,8 km/h (1 Bft)
16.07.2016 13:26 14,6 C 14,6 C 59 % 1026,6 hPa 0,0 mm 0,8 km/h (0 Bft) S-SW 196 1 min 0,000 mm 6,5 UV-I 494 W/m 6,7 C 3,2 km/h (1 Bft)
16.07.2016 13:27 14,6 C 14,6 C 61 % 1026,5 hPa 0,0 mm 2,8 km/h (1 Bft) W-SW 254 1 min 0,000 mm 4,2 UV-I 494 W/m 7,2 C 11,3 km/h (2 Bft)
16.07.2016 13:28 14,6 C 14,6 C 62 % 1026,5 hPa 0,0 mm 4,9 km/h (1 Bft) S 183 0 min 0,000 mm 4,0 UV-I 431 W/m 7,4 C 6,4 km/h (2 Bft)
16.07.2016 13:29 14,7 C 14,7 C 62 % 1026,5 hPa 0,0 mm 4,4 km/h (1 Bft) W-NW 288 0 min 0,000 mm 4,0 UV-I 425 W/m 7,5 C 8,0 km/h (2 Bft)
16.07.2016 13:30 14,7 C 14,7 C 62 % 1026,5 hPa 0,0 mm 5,9 km/h (2 Bft) W 265 0 min 0,000 mm 4,0 UV-I 420 W/m 7,5 C 9,7 km/h (2 Bft)
16.07.2016 13:31 14,8 C 14,8 C 61 % 1026,5 hPa 0,0 mm 6,0 km/h (2 Bft) W 261 0 min 0,000 mm 4,1 UV-I 425 W/m 7,4 C 9,7 km/h (2 Bft)
16.07.2016 13:32 14,8 C 14,8 C 60 % 1026,5 hPa 0,0 mm 6,2 km/h (2 Bft) W 261 0 min 0,000 mm 4,7 UV-I 425 W/m 7,1 C 9,7 km/h (2 Bft)
16.07.2016 13:33 14,8 C 14,8 C 60 % 1026,5 hPa 0,0 mm 5,2 km/h (1 Bft) W-SW 258 0 min 0,000 mm 5,9 UV-I 425 W/m 7,1 C 6,4 km/h (2 Bft)
16.07.2016 13:34 14,8 C 14,8 C 58 % 1026,5 hPa 0,0 mm 5,0 km/h (1 Bft) W 265 1 min 0,000 mm 4,8 UV-I 554 W/m 6,6 C 9,7 km/h (2 Bft)
16.07.2016 13:35 14,8 C 14,8 C 56 % 1026,5 hPa 0,0 mm 1,9 km/h (1 Bft) W 279 1 min 0,000 mm 4,8 UV-I 520 W/m 6,1 C 3,2 km/h (1 Bft)
16.07.2016 13:36 14,8 C 14,8 C 57 % 1026,5 hPa 0,0 mm 1,8 km/h (1 Bft) W-NW 283 1 min 0,000 mm 4,8 UV-I 501 W/m 6,4 C 3,2 km/h (1 Bft)
16.07.2016 13:37 14,9 C 14,9 C 55 % 1026,4 hPa 0,0 mm 2,0 km/h (1 Bft) NO 42 1 min 0,000 mm 6,3 UV-I 501 W/m 5,9 C 4,8 km/h (1 Bft)
16.07.2016 13:38 15,2 C 15,2 C 65 % 1026,4 hPa 0,0 mm 1,5 km/h (1 Bft) NO 54 1 min 0,000 mm 8,2 UV-I 501 W/m 8,7 C 3,2 km/h (1 Bft)
16.07.2016 13:39 15,3 C 15,3 C 55 % 1026,5 hPa 0,0 mm 4,8 km/h (1 Bft) S-SO 164 1 min 0,000 mm 5,8 UV-I 501 W/m 6,3 C 8,0 km/h (2 Bft)
16.07.2016 13:40 15,2 C 15,3 C 54 % 1026,5 hPa 0,0 mm 2,1 km/h (1 Bft) S 173 1 min 0,000 mm 6,9 UV-I 501 W/m 6,0 C 6,4 km/h (2 Bft)
16.07.2016 13:41 15,0 C 15,2 C 56 % 1026,5 hPa 0,0 mm 2,1 km/h (1 Bft) S-SO 150 1 min 0,000 mm 5,5 UV-I 570 W/m 6,3 C 3,2 km/h (1 Bft)
16.07.2016 13:42 14,9 C 15,0 C 59 % 1026,4 hPa 0,0 mm 4,9 km/h (1 Bft) W 263 1 min 0,000 mm 5,5 UV-I 642 W/m 7,0 C 9,7 km/h (2 Bft)
16.07.2016 13:43 14,9 C 14,9 C 55 % 1026,4 hPa 0,0 mm 3,6 km/h (1 Bft) W 265 1 min 0,000 mm 6,2 UV-I 582 W/m 5,9 C 4,8 km/h (1 Bft)
16.07.2016 13:44 14,9 C 14,9 C 57 % 1026,4 hPa 0,0 mm 2,2 km/h (1 Bft) SW 229 1 min 0,000 mm 7,7 UV-I 582 W/m 6,5 C 4,8 km/h (1 Bft)
16.07.2016 13:45 15,0 C 15,0 C 58 % 1026,4 hPa 0,0 mm 0,7 km/h (0 Bft) S-SO 167 1 min 0,000 mm 8,3 UV-I 582 W/m 6,8 C 1,6 km/h (1 Bft)
16.07.2016 13:46 15,1 C 15,1 C 59 % 1026,4 hPa 0,0 mm 3,0 km/h (1 Bft) O 85 1 min 0,000 mm 5,6 UV-I 765 W/m 7,1 C 4,8 km/h (1 Bft)
16.07.2016 13:47 15,1 C 15,1 C 56 % 1026,4 hPa 0,0 mm 4,1 km/h (1 Bft) SO 135 1 min 0,000 mm 7,6 UV-I 765 W/m 6,4 C 6,4 km/h (2 Bft)
16.07.2016 13:48 15,0 C 15,1 C 57 % 1026,4 hPa 0,0 mm 1,9 km/h (1 Bft) SO 128 1 min 0,000 mm 6,6 UV-I 765 W/m 6,6 C 4,8 km/h (1 Bft)
16.07.2016 13:49 15,1 C 15,1 C 58 % 1026,3 hPa 0,0 mm 1,3 km/h (1 Bft) SO 128 1 min 0,000 mm 4,2 UV-I 765 W/m 6,9 C 3,2 km/h (1 Bft)
16.07.2016 13:50 15,1 C 15,1 C 59 % 1026,3 hPa 0,0 mm 2,7 km/h (1 Bft) S-SO 167 0 min 0,000 mm 4,0 UV-I 355 W/m 7,1 C 6,4 km/h (2 Bft)
16.07.2016 13:51 14,9 C 15,1 C 58 % 1026,3 hPa 0,0 mm 3,9 km/h (1 Bft) S-SO 165 0 min 0,000 mm 4,0 UV-I 369 W/m 6,7 C 6,4 km/h (2 Bft)
16.07.2016 13:52 14,8 C 14,9 C 55 % 1026,4 hPa 0,0 mm 4,7 km/h (1 Bft) S-SO 150 0 min 0,000 mm 4,2 UV-I 383 W/m 5,8 C 6,4 km/h (2 Bft)
16.07.2016 13:53 14,7 C 14,8 C 56 % 1026,3 hPa 0,0 mm 3,2 km/h (1 Bft) SO 134 0 min 0,000 mm 6,7 UV-I 383 W/m 6,0 C 4,8 km/h (1 Bft)
16.07.2016 13:54 14,7 C 14,7 C 55 % 1026,3 hPa 0,0 mm 2,1 km/h (1 Bft) SO 134 0 min 0,000 mm 4,9 UV-I 383 W/m 5,8 C 3,2 km/h (1 Bft)
16.07.2016 13:55 14,8 C 14,8 C 61 % 1026,3 hPa 0,0 mm 0,6 km/h (0 Bft) SO 134 1 min 0,000 mm 5,2 UV-I 735 W/m 7,4 C 1,6 km/h (1 Bft)
16.07.2016 13:56 14,9 C 14,9 C 60 % 1026,3 hPa 0,0 mm 3,2 km/h (1 Bft) W-NW 302 1 min 0,000 mm 4,8 UV-I 735 W/m 7,2 C 4,8 km/h (1 Bft)
16.07.2016 13:57 15,1 C 15,1 C 64 % 1026,3 hPa 0,0 mm 2,2 km/h (1 Bft) W-NW 288 0 min 0,000 mm 4,5 UV-I 436 W/m 8,3 C 3,2 km/h (1 Bft)
16.07.2016 13:58 15,1 C 15,1 C 56 % 1026,3 hPa 0,0 mm 2,5 km/h (1 Bft) W-NW 301 0 min 0,000 mm 6,7 UV-I 436 W/m 6,4 C 4,8 km/h (1 Bft)
16.07.2016 13:59 15,3 C 15,3 C 61 % 1026,3 hPa 0,0 mm 3,0 km/h (1 Bft) N-NW 334 0 min 0,000 mm 7,7 UV-I 436 W/m 7,8 C 4,8 km/h (1 Bft)
16.07.2016 14:00 15,7 C 15,7 C 63 % 1026,3 hPa 0,0 mm 5,3 km/h (1 Bft) W-SW 250 0 min 0,000 mm 7,7 UV-I 436 W/m 8,7 C 6,4 km/h (2 Bft)
16.07.2016 14:01 15,9 C 15,9 C 63 % 1026,2 hPa 0,0 mm 4,1 km/h (1 Bft) NW 323 0 min 0,330 mm 8,0 UV-I 436 W/m 8,9 C 8,0 km/h (2 Bft)
16.07.2016 14:02 15,9 C 15,9 C 58 % 1026,3 hPa 0,0 mm 7,9 km/h (2 Bft) W-NW 291 1 min 0,000 mm 8,0 UV-I 1162 W/m 7,6 C 12,9 km/h (3 Bft)
16.07.2016 14:03 16,0 C 16,0 C 61 % 1026,3 hPa 0,0 mm 5,7 km/h (1 Bft) W-NW 289 1 min 0,000 mm 7,9 UV-I 1132 W/m 8,5 C 8,0 km/h (2 Bft)
16.07.2016 14:04 16,2 C 16,2 C 61 % 1026,2 hPa 0,0 mm 4,5 km/h (1 Bft) W-NW 295 1 min 0,000 mm 6,3 UV-I 1107 W/m 8,7 C 11,3 km/h (2 Bft)
16.07.2016 14:05 16,3 C 16,3 C 64 % 1026,3 hPa 0,0 mm 9,4 km/h (2 Bft) NW 306 1 min 0,000 mm 4,2 UV-I 1107 W/m 9,5 C 12,9 km/h (3 Bft)
16.07.2016 14:06 16,3 C 16,3 C 59 % 1026,3 hPa 0,0 mm 6,3 km/h (2 Bft) W 279 0 min 0,000 mm 4,1 UV-I 367 W/m 8,3 C 8,0 km/h (2 Bft)
16.07.2016 14:07 16,1 C 16,3 C 60 % 1026,2 hPa 0,0 mm 6,0 km/h (2 Bft) W 275 0 min 0,000 mm 4,3 UV-I 390 W/m 8,3 C 11,3 km/h (2 Bft)
16.07.2016 14:08 16,0 C 16,1 C 60 % 1026,2 hPa 0,0 mm 12,3 km/h (3 Bft) W-NW 286 0 min 0,000 mm 4,4 UV-I 432 W/m 8,2 C 16,1 km/h (3 Bft)
16.07.2016 14:09 15,8 C 16,0 C 56 % 1026,2 hPa 0,0 mm 6,9 km/h (2 Bft) W-SW 243 0 min 0,000 mm 4,5 UV-I 455 W/m 7,0 C 14,5 km/h (3 Bft)
16.07.2016 14:10 15,8 C 15,8 C 64 % 1026,2 hPa 0,0 mm 3,8 km/h (1 Bft) W-SW 244 1 min 0,000 mm 5,0 UV-I 483 W/m 9,0 C 11,3 km/h (2 Bft)
16.07.2016 14:11 15,7 C 15,8 C 63 % 1026,2 hPa 0,0 mm 7,2 km/h (2 Bft) W-SW 246 1 min 0,000 mm 7,7 UV-I 483 W/m 8,7 C 12,9 km/h (3 Bft)
16.07.2016 14:12 15,8 C 15,8 C 63 % 1026,2 hPa 0,0 mm 4,1 km/h (1 Bft) W 266 1 min 0,000 mm 7,8 UV-I 1296 W/m 8,8 C 6,4 km/h (2 Bft)
16.07.2016 14:13 16,1 C 16,1 C 61 % 1026,2 hPa 0,0 mm 4,4 km/h (1 Bft) NW 311 1 min 0,000 mm 7,2 UV-I 1206 W/m 8,6 C 6,4 km/h (2 Bft)
16.07.2016 14:14 16,3 C 16,3 C 63 % 1026,3 hPa 0,0 mm 7,0 km/h (2 Bft) W 281 1 min 0,000 mm 6,1 UV-I 1206 W/m 9,2 C 11,3 km/h (2 Bft)
16.07.2016 14:15 16,4 C 16,4 C 65 % 1026,2 hPa 0,0 mm 4,4 km/h (1 Bft) W-SW 238 1 min 0,000 mm 6,3 UV-I 1206 W/m 9,8 C 9,7 km/h (2 Bft)
16.07.2016 14:16 16,3 C 16,4 C 63 % 1026,2 hPa 0,0 mm 8,4 km/h (2 Bft) W 280 1 min 0,000 mm 6,9 UV-I 1206 W/m 9,2 C 16,1 km/h (3 Bft)
16.07.2016 14:17 16,3 C 16,3 C 61 % 1026,2 hPa 0,0 mm 10,6 km/h (2 Bft) W-SW 247 1 min 0,000 mm 5,8 UV-I 1206 W/m 8,8 C 14,5 km/h (3 Bft)
16.07.2016 14:18 16,3 C 16,3 C 60 % 1026,2 hPa 0,0 mm 8,3 km/h (2 Bft) W 274 1 min 0,000 mm 7,4 UV-I 1206 W/m 8,5 C 14,5 km/h (3 Bft)
16.07.2016 14:19 16,3 C 16,3 C 57 % 1026,3 hPa 0,0 mm 11,2 km/h (2 Bft) W-NW 282 1 min 0,000 mm 6,8 UV-I 1209 W/m 7,8 C 16,1 km/h (3 Bft)
16.07.2016 14:20 16,2 C 16,3 C 61 % 1026,3 hPa 0,0 mm 7,6 km/h (2 Bft) W-SW 247 1 min 0,000 mm 5,3 UV-I 570 W/m 8,7 C 11,3 km/h (2 Bft)
16.07.2016 14:21 16,1 C 16,2 C 56 % 1026,3 hPa 0,0 mm 5,3 km/h (1 Bft) W-NW 289 1 min 0,000 mm 5,1 UV-I 489 W/m 7,3 C 9,7 km/h (2 Bft)
16.07.2016 14:22 16,1 C 16,1 C 59 % 1026,3 hPa 0,0 mm 5,2 km/h (1 Bft) W 259 1 min 0,000 mm 7,4 UV-I 489 W/m 8,1 C 9,7 km/h (2 Bft)
16.07.2016 14:23 16,0 C 16,1 C 60 % 1026,3 hPa 0,0 mm 5,7 km/h (1 Bft) W-SW 248 1 min 0,000 mm 4,5 UV-I 489 W/m 8,2 C 6,4 km/h (2 Bft)
16.07.2016 14:24 15,9 C 16,0 C 57 % 1026,3 hPa 0,0 mm 3,4 km/h (1 Bft) S 177 1 min 0,000 mm 6,5 UV-I 489 W/m 7,4 C 6,4 km/h (2 Bft)
16.07.2016 14:25 15,7 C 15,9 C 55 % 1026,3 hPa 0,0 mm 1,1 km/h (1 Bft) S 184 1 min 0,000 mm 6,5 UV-I 656 W/m 6,7 C 3,2 km/h (1 Bft)
16.07.2016 14:26 15,6 C 15,7 C 55 % 1026,2 hPa 0,0 mm 2,2 km/h (1 Bft) NW 304 1 min 0,000 mm 5,0 UV-I 656 W/m 6,6 C 3,2 km/h (1 Bft)
16.07.2016 14:27 15,6 C 15,6 C 60 % 1026,2 hPa 0,0 mm 1,3 km/h (1 Bft) W 273 1 min 0,000 mm 5,2 UV-I 656 W/m 7,9 C 3,2 km/h (1 Bft)
16.07.2016 14:28 15,7 C 15,7 C 61 % 1026,2 hPa 0,0 mm 3,5 km/h (1 Bft) W-NW 298 1 min 0,000 mm 6,7 UV-I 656 W/m 8,2 C 4,8 km/h (1 Bft)
16.07.2016 14:29 15,7 C 15,7 C 62 % 1026,3 hPa 0,0 mm 6,4 km/h (2 Bft) W 279 1 min 0,000 mm 4,0 UV-I 656 W/m 8,4 C 11,3 km/h (2 Bft)
16.07.2016 14:30 15,7 C 15,8 C 58 % 1026,3 hPa 0,0 mm 10,9 km/h (2 Bft) W-NW 287 1 min 0,000 mm 5,7 UV-I 656 W/m 7,5 C 14,5 km/h (3 Bft)
16.07.2016 14:31 15,8 C 15,8 C 61 % 1026,3 hPa 0,0 mm 5,5 km/h (1 Bft) W-NW 284 1 min 0,000 mm 6,1 UV-I 656 W/m 8,3 C 9,7 km/h (2 Bft)
16.07.2016 14:32 15,7 C 15,8 C 61 % 1026,3 hPa 0,0 mm 4,2 km/h (1 Bft) N-NW 328 1 min 0,000 mm 3,8 UV-I 656 W/m 8,2 C 6,4 km/h (2 Bft)
16.07.2016 14:33 15,7 C 15,7 C 60 % 1026,3 hPa 0,0 mm 5,4 km/h (1 Bft) W-NW 299 1 min 0,000 mm 5,8 UV-I 606 W/m 8,0 C 8,0 km/h (2 Bft)
16.07.2016 14:34 15,9 C 15,9 C 65 % 1026,3 hPa 0,0 mm 5,8 km/h (2 Bft) NW 321 1 min 0,000 mm 3,8 UV-I 606 W/m 9,3 C 8,0 km/h (2 Bft)
16.07.2016 14:35 15,9 C 15,9 C 61 % 1026,3 hPa 0,0 mm 5,5 km/h (1 Bft) W 277 0 min 0,000 mm 3,8 UV-I 353 W/m 8,4 C 9,7 km/h (2 Bft)
16.07.2016 14:36 15,8 C 15,9 C 59 % 1026,3 hPa 0,0 mm 9,1 km/h (2 Bft) W 272 0 min 0,000 mm 3,6 UV-I 353 W/m 7,8 C 11,3 km/h (2 Bft)
16.07.2016 14:37 15,7 C 15,8 C 60 % 1026,3 hPa 0,0 mm 4,4 km/h (1 Bft) W-NW 292 0 min 0,000 mm 3,7 UV-I 366 W/m 8,0 C 9,7 km/h (2 Bft)
16.07.2016 14:38 15,6 C 15,7 C 61 % 1026,2 hPa 0,0 mm 3,4 km/h (1 Bft) W-NW 289 0 min 0,000 mm 4,0 UV-I 431 W/m 8,1 C 4,8 km/h (1 Bft)
16.07.2016 14:39 15,5 C 15,6 C 57 % 1026,3 hPa 0,0 mm 1,3 km/h (1 Bft) W-NW 289 0 min 0,000 mm 4,3 UV-I 434 W/m 7,0 C 3,2 km/h (1 Bft)
16.07.2016 14:40 15,4 C 15,5 C 59 % 1026,2 hPa 0,0 mm 1,3 km/h (1 Bft) W-NW 290 0 min 0,000 mm 4,8 UV-I 434 W/m 7,4 C 3,2 km/h (1 Bft)
16.07.2016 14:41 15,4 C 15,4 C 58 % 1026,2 hPa 0,0 mm 0,7 km/h (0 Bft) SW 221 1 min 0,000 mm 5,1 UV-I 503 W/m 7,2 C 1,6 km/h (1 Bft)
16.07.2016 14:42 15,4 C 15,4 C 62 % 1026,2 hPa 0,0 mm 0,9 km/h (0 Bft) S 182 1 min 0,000 mm 7,1 UV-I 547 W/m 8,2 C 3,2 km/h (1 Bft)
16.07.2016 14:43 15,4 C 15,4 C 63 % 1026,2 hPa 0,0 mm 1,1 km/h (1 Bft) S 182 1 min 0,000 mm 7,1 UV-I 1028 W/m 8,4 C 3,2 km/h (1 Bft)
16.07.2016 14:44 15,7 C 15,7 C 66 % 1026,2 hPa 0,0 mm 4,6 km/h (1 Bft) W-NW 296 1 min 0,000 mm 7,1 UV-I 1053 W/m 9,4 C 9,7 km/h (2 Bft)
16.07.2016 14:45 16,0 C 16,0 C 62 % 1026,1 hPa 0,0 mm 5,8 km/h (2 Bft) N-NW 343 1 min 0,000 mm 7,0 UV-I 988 W/m 8,7 C 8,0 km/h (2 Bft)
16.07.2016 14:46 16,2 C 16,2 C 60 % 1026,2 hPa 0,0 mm 4,5 km/h (1 Bft) N-NW 331 1 min 0,000 mm 6,5 UV-I 972 W/m 8,4 C 8,0 km/h (2 Bft)
16.07.2016 14:47 16,3 C 16,3 C 57 % 1026,2 hPa 0,0 mm 5,4 km/h (1 Bft) N-NW 331 1 min 0,000 mm 4,9 UV-I 972 W/m 7,8 C 11,3 km/h (2 Bft)
16.07.2016 14:48 16,4 C 16,4 C 56 % 1026,2 hPa 0,0 mm 2,2 km/h (1 Bft) N-NO 18 1 min 0,000 mm 6,6 UV-I 972 W/m 7,6 C 3,2 km/h (1 Bft)
16.07.2016 14:49 16,4 C 16,4 C 59 % 1026,2 hPa 0,0 mm 3,3 km/h (1 Bft) NW 306 1 min 0,000 mm 6,9 UV-I 993 W/m 8,4 C 6,4 km/h (2 Bft)
16.07.2016 14:50 16,5 C 16,5 C 58 % 1026,2 hPa 0,0 mm 7,1 km/h (2 Bft) W 278 1 min 0,000 mm 6,9 UV-I 988 W/m 8,2 C 9,7 km/h (2 Bft)
16.07.2016 14:51 16,7 C 16,7 C 61 % 1026,2 hPa 0,0 mm 9,9 km/h (2 Bft) W-NW 285 1 min 0,000 mm 6,9 UV-I 935 W/m 9,1 C 12,9 km/h (3 Bft)
16.07.2016 14:52 16,5 C 16,7 C 58 % 1026,2 hPa 0,0 mm 6,9 km/h (2 Bft) W-NW 285 1 min 0,000 mm 5,4 UV-I 935 W/m 8,2 C 9,7 km/h (2 Bft)
16.07.2016 14:53 16,3 C 16,5 C 55 % 1026,2 hPa 0,0 mm 4,5 km/h (1 Bft) W 268 0 min 0,000 mm 4,2 UV-I 420 W/m 7,2 C 6,4 km/h (2 Bft)
16.07.2016 14:54 16,2 C 16,3 C 57 % 1026,1 hPa 0,0 mm 4,1 km/h (1 Bft) W-NW 303 0 min 0,000 mm 4,0 UV-I 420 W/m 7,7 C 6,4 km/h (2 Bft)
16.07.2016 14:55 16,1 C 16,2 C 58 % 1026,1 hPa 0,0 mm 5,2 km/h (1 Bft) W-NW 294 0 min 0,000 mm 4,0 UV-I 257 W/m 7,8 C 8,0 km/h (2 Bft)
16.07.2016 14:56 16,1 C 16,1 C 59 % 1026,1 hPa 0,0 mm 5,7 km/h (1 Bft) NW 306 1 min 0,000 mm 6,6 UV-I 865 W/m 8,1 C 11,3 km/h (2 Bft)
16.07.2016 14:57 16,3 C 16,3 C 60 % 1026,1 hPa 0,0 mm 8,8 km/h (2 Bft) NW 312 1 min 0,000 mm 6,7 UV-I 793 W/m 8,5 C 12,9 km/h (3 Bft)
16.07.2016 14:58 16,4 C 16,4 C 60 % 1026,1 hPa 0,0 mm 8,2 km/h (2 Bft) NW 304 1 min 0,000 mm 4,2 UV-I 793 W/m 8,6 C 12,9 km/h (3 Bft)
16.07.2016 14:59 16,4 C 16,4 C 59 % 1026,1 hPa 0,0 mm 8,4 km/h (2 Bft) W-NW 303 1 min 0,000 mm 5,8 UV-I 793 W/m 8,4 C 11,3 km/h (2 Bft)
16.07.2016 15:00 16,3 C 16,4 C 57 % 1026,1 hPa 0,0 mm 3,7 km/h (1 Bft) W-NW 295 1 min 0,000 mm 4,5 UV-I 793 W/m 7,8 C 6,4 km/h (2 Bft)
16.07.2016 15:01 16,2 C 16,3 C 60 % 1026,1 hPa 0,0 mm 3,3 km/h (1 Bft) W-SW 237 1 min 0,406 mm 4,5 UV-I 793 W/m 8,4 C 8,0 km/h (2 Bft)
16.07.2016 15:02 16,1 C 16,2 C 58 % 1026,1 hPa 0,0 mm 8,1 km/h (2 Bft) W-SW 248 1 min 0,001 mm 6,8 UV-I 793 W/m 7,8 C 11,3 km/h (2 Bft)
16.07.2016 15:03 16,1 C 16,1 C 57 % 1026,1 hPa 0,0 mm 5,0 km/h (1 Bft) W 280 1 min 0,000 mm 6,8 UV-I 969 W/m 7,6 C 6,4 km/h (2 Bft)
16.07.2016 15:04 16,1 C 16,1 C 55 % 1026,1 hPa 0,0 mm 2,7 km/h (1 Bft) W 264 1 min 0,000 mm 6,8 UV-I 984 W/m 7,1 C 4,8 km/h (1 Bft)
16.07.2016 15:05 16,1 C 16,1 C 55 % 1026,1 hPa 0,0 mm 0,8 km/h (0 Bft) W 267 1 min 0,000 mm 6,7 UV-I 981 W/m 7,1 C 3,2 km/h (1 Bft)
16.07.2016 15:06 16,2 C 16,2 C 61 % 1026,1 hPa 0,0 mm 1,8 km/h (1 Bft) O-NO 77 1 min 0,000 mm 6,6 UV-I 974 W/m 8,7 C 4,8 km/h (1 Bft)
16.07.2016 15:07 16,3 C 16,3 C 55 % 1026,1 hPa 0,0 mm 2,7 km/h (1 Bft) O-NO 76 1 min 0,000 mm 6,5 UV-I 946 W/m 7,2 C 4,8 km/h (1 Bft)
16.07.2016 15:08 16,4 C 16,4 C 58 % 1026,1 hPa 0,0 mm 1,3 km/h (1 Bft) O 90 1 min 0,000 mm 6,3 UV-I 928 W/m 8,1 C 3,2 km/h (1 Bft)
16.07.2016 15:09 16,4 C 16,4 C 53 % 1026,0 hPa 0,0 mm 5,8 km/h (2 Bft) S 183 1 min 0,000 mm 6,3 UV-I 918 W/m 6,8 C 9,7 km/h (2 Bft)
16.07.2016 15:10 16,3 C 16,4 C 54 % 1026,0 hPa 0,0 mm 9,3 km/h (2 Bft) SO 135 1 min 0,000 mm 6,3 UV-I 916 W/m 7,0 C 11,3 km/h (2 Bft)
16.07.2016 15:11 16,2 C 16,3 C 52 % 1026,0 hPa 0,0 mm 5,7 km/h (1 Bft) SO 125 1 min 0,000 mm 6,1 UV-I 872 W/m 6,3 C 11,3 km/h (2 Bft)
16.07.2016 15:12 16,0 C 16,2 C 54 % 1026,0 hPa 0,0 mm 1,0 km/h (0 Bft) NW 309 1 min 0,000 mm 6,1 UV-I 891 W/m 6,7 C 3,2 km/h (1 Bft)
16.07.2016 15:13 16,1 C 16,1 C 56 % 1026,0 hPa 0,0 mm 3,5 km/h (1 Bft) NW 309 1 min 0,000 mm 6,0 UV-I 847 W/m 7,3 C 6,4 km/h (2 Bft)
16.07.2016 15:14 16,2 C 16,2 C 54 % 1025,9 hPa 0,0 mm 4,9 km/h (1 Bft) NW 323 1 min 0,000 mm 6,0 UV-I 828 W/m 6,9 C 6,4 km/h (2 Bft)
16.07.2016 15:15 16,3 C 16,3 C 54 % 1025,9 hPa 0,0 mm 1,5 km/h (1 Bft) W-NW 297 1 min 0,000 mm 6,1 UV-I 828 W/m 7,0 C 3,2 km/h (1 Bft)
16.07.2016 15:16 16,5 C 16,5 C 53 % 1025,9 hPa 0,0 mm 1,4 km/h (1 Bft) W-NW 288 1 min 0,000 mm 6,1 UV-I 856 W/m 6,9 C 3,2 km/h (1 Bft)
16.07.2016 15:17 16,6 C 16,6 C 58 % 1025,9 hPa 0,0 mm 5,5 km/h (1 Bft) S-SO 150 1 min 0,000 mm 6,2 UV-I 854 W/m 8,3 C 9,7 km/h (2 Bft)
16.07.2016 15:18 16,3 C 16,6 C 51 % 1025,9 hPa 0,0 mm 4,9 km/h (1 Bft) S-SO 157 1 min 0,000 mm 6,2 UV-I 886 W/m 6,1 C 8,0 km/h (2 Bft)
16.07.2016 15:19 16,3 C 16,3 C 55 % 1025,9 hPa 0,0 mm 1,9 km/h (1 Bft) W-NW 287 1 min 0,000 mm 6,2 UV-I 886 W/m 7,2 C 3,2 km/h (1 Bft)
16.07.2016 15:20 16,1 C 16,3 C 54 % 1025,9 hPa 0,0 mm 5,7 km/h (1 Bft) W-NW 295 0 min 0,000 mm 3,2 UV-I 160 W/m 6,8 C 9,7 km/h (2 Bft)
16.07.2016 15:21 16,0 C 16,1 C 55 % 1025,9 hPa 0,0 mm 6,4 km/h (2 Bft) NW 307 0 min 0,000 mm 4,8 UV-I 160 W/m 7,0 C 11,3 km/h (2 Bft)
16.07.2016 15:22 15,9 C 16,0 C 54 % 1025,9 hPa 0,0 mm 5,9 km/h (2 Bft) N-NW 340 0 min 0,000 mm 5,8 UV-I 160 W/m 6,6 C 11,3 km/h (2 Bft)
16.07.2016 15:23 16,0 C 16,0 C 57 % 1025,9 hPa 0,0 mm 5,5 km/h (1 Bft) N-NW 336 1 min 0,000 mm 5,8 UV-I 895 W/m 7,5 C 8,0 km/h (2 Bft)
16.07.2016 15:24 16,1 C 16,1 C 54 % 1026,0 hPa 0,0 mm 3,6 km/h (1 Bft) N 5 1 min 0,000 mm 3,7 UV-I 895 W/m 6,8 C 6,4 km/h (2 Bft)
16.07.2016 15:25 16,1 C 16,2 C 52 % 1025,9 hPa 0,0 mm 5,8 km/h (2 Bft) N-NO 17 1 min 0,000 mm 5,8 UV-I 895 W/m 6,2 C 8,0 km/h (2 Bft)
16.07.2016 15:26 16,1 C 16,1 C 52 % 1025,9 hPa 0,0 mm 5,2 km/h (1 Bft) N 9 1 min 0,000 mm 3,2 UV-I 895 W/m 6,2 C 6,4 km/h (2 Bft)
16.07.2016 15:27 16,1 C 16,1 C 52 % 1026,0 hPa 0,0 mm 3,5 km/h (1 Bft) N 5 0 min 0,000 mm 3,3 UV-I 274 W/m 6,2 C 6,4 km/h (2 Bft)
16.07.2016 15:28 16,1 C 16,1 C 52 % 1025,9 hPa 0,0 mm 4,8 km/h (1 Bft) W-SW 244 0 min 0,000 mm 4,7 UV-I 274 W/m 6,2 C 9,7 km/h (2 Bft)
16.07.2016 15:29 16,0 C 16,1 C 57 % 1025,9 hPa 0,0 mm 4,2 km/h (1 Bft) W-SW 238 0 min 0,000 mm 5,4 UV-I 274 W/m 7,5 C 6,4 km/h (2 Bft)
16.07.2016 15:30 16,1 C 16,1 C 56 % 1025,9 hPa 0,0 mm 0,9 km/h (0 Bft) S-SW 209 1 min 0,000 mm 5,3 UV-I 867 W/m 7,3 C 1,6 km/h (1 Bft)
16.07.2016 15:31 16,2 C 16,2 C 56 % 1025,9 hPa 0,0 mm 6,5 km/h (2 Bft) NW 311 1 min 0,000 mm 3,5 UV-I 867 W/m 7,4 C 11,3 km/h (2 Bft)
16.07.2016 15:32 16,2 C 16,2 C 55 % 1025,9 hPa 0,0 mm 7,3 km/h (2 Bft) W 277 1 min 0,000 mm 5,4 UV-I 867 W/m 7,2 C 9,7 km/h (2 Bft)
16.07.2016 15:33 16,3 C 16,3 C 60 % 1026,0 hPa 0,0 mm 6,3 km/h (2 Bft) NW 309 1 min 0,000 mm 5,5 UV-I 867 W/m 8,5 C 9,7 km/h (2 Bft)
16.07.2016 15:34 16,3 C 16,3 C 57 % 1026,0 hPa 0,0 mm 1,5 km/h (1 Bft) NO 38 1 min 0,000 mm 5,7 UV-I 946 W/m 7,8 C 4,8 km/h (1 Bft)
16.07.2016 15:35 16,3 C 16,3 C 53 % 1025,9 hPa 0,0 mm 0,9 km/h (0 Bft) NO 38 1 min 0,000 mm 5,8 UV-I 942 W/m 6,7 C 1,6 km/h (1 Bft)
16.07.2016 15:36 16,4 C 16,4 C 64 % 1025,8 hPa 0,0 mm 3,9 km/h (1 Bft) N 360 1 min 0,000 mm 5,7 UV-I 886 W/m 9,6 C 6,4 km/h (2 Bft)
16.07.2016 15:37 16,6 C 16,6 C 54 % 1025,9 hPa 0,0 mm 5,0 km/h (1 Bft) NO 41 1 min 0,000 mm 5,6 UV-I 874 W/m 7,3 C 6,4 km/h (2 Bft)
16.07.2016 15:38 16,7 C 16,7 C 52 % 1025,8 hPa 0,0 mm 2,7 km/h (1 Bft) W-NW 294 1 min 0,000 mm 5,6 UV-I 860 W/m 6,8 C 4,8 km/h (1 Bft)
16.07.2016 15:39 16,9 C 16,9 C 57 % 1025,8 hPa 0,0 mm 2,4 km/h (1 Bft) SW 219 1 min 0,000 mm 5,6 UV-I 847 W/m 8,3 C 4,8 km/h (1 Bft)
16.07.2016 15:40 16,8 C 16,9 C 50 % 1025,8 hPa 0,0 mm 0,9 km/h (0 Bft) SW 223 1 min 0,000 mm 5,5 UV-I 847 W/m 6,3 C 3,2 km/h (1 Bft)
16.07.2016 15:41 16,7 C 16,8 C 53 % 1025,8 hPa 0,0 mm 3,0 km/h (1 Bft) N-NW 329 1 min 0,000 mm 5,4 UV-I 828 W/m 7,1 C 4,8 km/h (1 Bft)
16.07.2016 15:42 16,7 C 16,7 C 58 % 1025,8 hPa 0,0 mm 4,4 km/h (1 Bft) N-NO 28 1 min 0,000 mm 5,4 UV-I 844 W/m 8,4 C 6,4 km/h (2 Bft)
16.07.2016 15:43 16,7 C 16,7 C 56 % 1025,8 hPa 0,0 mm 3,1 km/h (1 Bft) W-NW 288 1 min 0,000 mm 3,4 UV-I 844 W/m 7,9 C 4,8 km/h (1 Bft)
16.07.2016 15:44 16,7 C 16,7 C 54 % 1025,8 hPa 0,0 mm 5,5 km/h (1 Bft) W-NW 294 0 min 0,000 mm 3,5 UV-I 309 W/m 7,3 C 8,0 km/h (2 Bft)
16.07.2016 15:45 16,6 C 16,7 C 55 % 1025,8 hPa 0,0 mm 4,1 km/h (1 Bft) NW 313 0 min 0,000 mm 3,1 UV-I 239 W/m 7,5 C 6,4 km/h (2 Bft)
16.07.2016 15:46 16,4 C 16,6 C 55 % 1025,8 hPa 0,0 mm 2,3 km/h (1 Bft) NW 321 0 min 0,000 mm 3,2 UV-I 297 W/m 7,3 C 3,2 km/h (1 Bft)
16.07.2016 15:47 16,3 C 16,4 C 58 % 1025,9 hPa 0,0 mm 2,0 km/h (1 Bft) NW 318 0 min 0,000 mm 3,0 UV-I 297 W/m 8,0 C 3,2 km/h (1 Bft)
16.07.2016 15:48 16,2 C 16,3 C 54 % 1025,8 hPa 0,0 mm 2,4 km/h (1 Bft) N 355 0 min 0,000 mm 2,7 UV-I 172 W/m 6,9 C 3,2 km/h (1 Bft)
16.07.2016 15:49 16,1 C 16,2 C 55 % 1025,8 hPa 0,0 mm 1,0 km/h (0 Bft) N 351 0 min 0,000 mm 2,6 UV-I 163 W/m 7,1 C 1,6 km/h (1 Bft)
16.07.2016 15:50 16,0 C 16,1 C 53 % 1025,8 hPa 0,0 mm 2,3 km/h (1 Bft) W-NW 290 0 min 0,000 mm 2,5 UV-I 162 W/m 6,4 C 3,2 km/h (1 Bft)
16.07.2016 15:51 15,8 C 16,0 C 57 % 1025,7 hPa 0,0 mm 3,9 km/h (1 Bft) W-NW 302 0 min 0,000 mm 2,5 UV-I 162 W/m 7,3 C 6,4 km/h (2 Bft)
16.07.2016 15:52 15,8 C 15,8 C 57 % 1025,8 hPa 0,0 mm 2,3 km/h (1 Bft) W-NW 302 0 min 0,000 mm 2,5 UV-I 160 W/m 7,3 C 3,2 km/h (1 Bft)
16.07.2016 15:53 15,7 C 15,8 C 57 % 1025,7 hPa 0,0 mm 2,0 km/h (1 Bft) W-NW 302 0 min 0,000 mm 2,5 UV-I 160 W/m 7,2 C 3,2 km/h (1 Bft)
16.07.2016 15:54 15,7 C 15,7 C 59 % 1025,8 hPa 0,0 mm 2,4 km/h (1 Bft) W-SW 246 0 min 0,000 mm 2,5 UV-I 167 W/m 7,7 C 4,8 km/h (1 Bft)
16.07.2016 15:55 15,6 C 15,7 C 59 % 1025,8 hPa 0,0 mm 4,4 km/h (1 Bft) W-NW 286 0 min 0,000 mm 2,6 UV-I 171 W/m 7,6 C 6,4 km/h (2 Bft)
16.07.2016 15:56 15,6 C 15,6 C 60 % 1025,8 hPa 0,0 mm 2,5 km/h (1 Bft) W 268 0 min 0,000 mm 3,7 UV-I 227 W/m 7,9 C 3,2 km/h (1 Bft)
16.07.2016 15:57 15,6 C 15,6 C 59 % 1025,8 hPa 0,0 mm 3,8 km/h (1 Bft) W-SW 254 0 min 0,000 mm 4,6 UV-I 227 W/m 7,6 C 6,4 km/h (2 Bft)
16.07.2016 15:58 15,6 C 15,6 C 59 % 1025,7 hPa 0,0 mm 3,1 km/h (1 Bft) W-NW 297 1 min 0,000 mm 4,7 UV-I 768 W/m 7,6 C 4,8 km/h (1 Bft)
16.07.2016 15:59 15,8 C 15,8 C 58 % 1025,7 hPa 0,0 mm 4,8 km/h (1 Bft) W 276 1 min 0,000 mm 4,8 UV-I 770 W/m 7,6 C 8,0 km/h (2 Bft)
16.07.2016 16:00 15,9 C 15,9 C 58 % 1025,7 hPa 0,0 mm 5,0 km/h (1 Bft) W 271 1 min 0,000 mm 4,8 UV-I 788 W/m 7,6 C 11,3 km/h (2 Bft)
16.07.2016 16:01 16,1 C 16,1 C 56 % 1025,6 hPa 0,0 mm 9,3 km/h (2 Bft) NW 319 1 min 0,355 mm 4,7 UV-I 788 W/m 7,3 C 12,9 km/h (3 Bft)
16.07.2016 16:02 16,2 C 16,2 C 57 % 1025,6 hPa 0,0 mm 6,9 km/h (2 Bft) NW 306 1 min 0,000 mm 4,0 UV-I 580 W/m 7,7 C 11,3 km/h (2 Bft)
16.07.2016 16:03 16,3 C 16,3 C 57 % 1025,6 hPa 0,0 mm 5,2 km/h (1 Bft) W 261 1 min 0,000 mm 4,6 UV-I 580 W/m 7,8 C 6,4 km/h (2 Bft)
16.07.2016 16:04 16,4 C 16,4 C 56 % 1025,6 hPa 0,0 mm 5,8 km/h (2 Bft) W-SW 251 1 min 0,000 mm 4,8 UV-I 740 W/m 7,6 C 9,7 km/h (2 Bft)
16.07.2016 16:05 16,3 C 16,4 C 52 % 1025,6 hPa 0,0 mm 3,8 km/h (1 Bft) W 278 1 min 0,000 mm 4,8 UV-I 744 W/m 6,4 C 6,4 km/h (2 Bft)
16.07.2016 16:06 16,3 C 16,3 C 60 % 1025,6 hPa 0,0 mm 1,9 km/h (1 Bft) W-NW 298 1 min 0,000 mm 4,8 UV-I 745 W/m 8,5 C 3,2 km/h (1 Bft)
16.07.2016 16:07 16,3 C 16,3 C 59 % 1025,6 hPa 0,0 mm 1,8 km/h (1 Bft) N 360 1 min 0,000 mm 4,7 UV-I 735 W/m 8,3 C 3,2 km/h (1 Bft)
16.07.2016 16:08 16,3 C 16,3 C 56 % 1025,6 hPa 0,0 mm 4,2 km/h (1 Bft) N-NO 26 1 min 0,000 mm 4,7 UV-I 737 W/m 7,5 C 6,4 km/h (2 Bft)
16.07.2016 16:09 16,4 C 16,4 C 56 % 1025,6 hPa 0,0 mm 3,2 km/h (1 Bft) N 9 1 min 0,000 mm 4,6 UV-I 729 W/m 7,6 C 4,8 km/h (1 Bft)
16.07.2016 16:10 16,6 C 16,6 C 58 % 1025,6 hPa 0,0 mm 3,4 km/h (1 Bft) NW 323 1 min 0,000 mm 4,5 UV-I 640 W/m 8,3 C 6,4 km/h (2 Bft)
16.07.2016 16:11 16,7 C 16,7 C 55 % 1025,5 hPa 0,0 mm 6,8 km/h (2 Bft) NW 315 1 min 0,000 mm 4,5 UV-I 731 W/m 7,6 C 12,9 km/h (3 Bft)
16.07.2016 16:12 16,7 C 16,7 C 57 % 1025,5 hPa 0,0 mm 4,0 km/h (1 Bft) W-SW 243 1 min 0,000 mm 4,6 UV-I 733 W/m 8,1 C 6,4 km/h (2 Bft)
16.07.2016 16:13 16,7 C 16,7 C 58 % 1025,5 hPa 0,0 mm 8,5 km/h (2 Bft) W-SW 254 1 min 0,000 mm 4,6 UV-I 735 W/m 8,4 C 11,3 km/h (2 Bft)
16.07.2016 16:14 16,8 C 16,8 C 60 % 1025,5 hPa 0,0 mm 10,3 km/h (2 Bft) W 261 1 min 0,000 mm 4,6 UV-I 731 W/m 9,0 C 12,9 km/h (3 Bft)
16.07.2016 16:15 16,7 C 16,8 C 59 % 1025,5 hPa 0,0 mm 7,6 km/h (2 Bft) W-SW 255 1 min 0,000 mm 4,5 UV-I 721 W/m 8,6 C 11,3 km/h (2 Bft)
16.07.2016 16:16 16,7 C 16,8 C 56 % 1025,5 hPa 0,0 mm 6,4 km/h (2 Bft) S 173 1 min 0,000 mm 4,3 UV-I 710 W/m 7,9 C 9,7 km/h (2 Bft)
16.07.2016 16:17 16,7 C 16,7 C 54 % 1025,5 hPa 0,0 mm 5,2 km/h (1 Bft) S-SW 194 1 min 0,000 mm 3,8 UV-I 701 W/m 7,3 C 9,7 km/h (2 Bft)
16.07.2016 16:18 16,6 C 16,7 C 53 % 1025,5 hPa 0,0 mm 5,1 km/h (1 Bft) W 269 1 min 0,000 mm 3,1 UV-I 701 W/m 7,0 C 8,0 km/h (2 Bft)
16.07.2016 16:19 16,4 C 16,6 C 54 % 1025,5 hPa 0,0 mm 2,9 km/h (1 Bft) N-NO 13 1 min 0,000 mm 2,6 UV-I 701 W/m 7,1 C 6,4 km/h (2 Bft)
16.07.2016 16:20 16,3 C 16,4 C 55 % 1025,5 hPa 0,0 mm 4,7 km/h (1 Bft) NW 324 0 min 0,000 mm 2,6 UV-I 116 W/m 7,2 C 6,4 km/h (2 Bft)
16.07.2016 16:21 16,3 C 16,3 C 55 % 1025,5 hPa 0,0 mm 2,5 km/h (1 Bft) W 265 0 min 0,000 mm 2,6 UV-I 116 W/m 7,2 C 6,4 km/h (2 Bft)
16.07.2016 16:22 16,3 C 16,3 C 54 % 1025,5 hPa 0,0 mm 4,9 km/h (1 Bft) W 269 0 min 0,000 mm 2,6 UV-I 116 W/m 7,0 C 12,9 km/h (3 Bft)
16.07.2016 16:23 16,3 C 16,3 C 56 % 1025,5 hPa 0,0 mm 7,7 km/h (2 Bft) W 261 0 min 0,000 mm 2,6 UV-I 121 W/m 7,5 C 11,3 km/h (2 Bft)
16.07.2016 16:24 16,3 C 16,3 C 56 % 1025,5 hPa 0,0 mm 4,8 km/h (1 Bft) W 274 0 min 0,000 mm 2,6 UV-I 121 W/m 7,5 C 8,0 km/h (2 Bft)
16.07.2016 16:25 16,3 C 16,3 C 54 % 1025,5 hPa 0,0 mm 2,3 km/h (1 Bft) W-NW 288 0 min 0,000 mm 2,5 UV-I 121 W/m 7,0 C 3,2 km/h (1 Bft)
16.07.2016 16:26 16,3 C 16,3 C 53 % 1025,5 hPa 0,0 mm 3,5 km/h (1 Bft) W-SW 242 0 min 0,000 mm 2,5 UV-I 121 W/m 6,7 C 6,4 km/h (2 Bft)
16.07.2016 16:27 16,4 C 16,4 C 57 % 1025,5 hPa 0,0 mm 4,8 km/h (1 Bft) W 280 0 min 0,000 mm 2,5 UV-I 121 W/m 7,9 C 6,4 km/h (2 Bft)
16.07.2016 16:28 16,4 C 16,4 C 53 % 1025,5 hPa 0,0 mm 4,5 km/h (1 Bft) NW 304 0 min 0,000 mm 2,5 UV-I 121 W/m 6,8 C 6,4 km/h (2 Bft)
16.07.2016 16:29 16,5 C 16,5 C 56 % 1025,5 hPa 0,0 mm 7,1 km/h (2 Bft) NW 308 0 min 0,000 mm 2,5 UV-I 125 W/m 7,7 C 8,0 km/h (2 Bft)
16.07.2016 16:30 16,6 C 16,6 C 56 % 1025,4 hPa 0,0 mm 5,6 km/h (1 Bft) W-NW 287 0 min 0,000 mm 2,4 UV-I 125 W/m 7,8 C 8,0 km/h (2 Bft)
16.07.2016 16:31 16,6 C 16,6 C 52 % 1025,5 hPa 0,0 mm 2,0 km/h (1 Bft) NW 311 0 min 0,000 mm 2,4 UV-I 128 W/m 6,7 C 4,8 km/h (1 Bft)
16.07.2016 16:32 16,6 C 16,6 C 54 % 1025,5 hPa 0,0 mm 4,2 km/h (1 Bft) W-NW 298 0 min 0,000 mm 2,4 UV-I 134 W/m 7,3 C 8,0 km/h (2 Bft)
16.07.2016 16:33 16,6 C 16,6 C 53 % 1025,5 hPa 0,0 mm 5,4 km/h (1 Bft) NW 317 0 min 0,000 mm 2,4 UV-I 153 W/m 7,0 C 6,4 km/h (2 Bft)
16.07.2016 16:34 16,6 C 16,6 C 51 % 1025,5 hPa 0,0 mm 3,5 km/h (1 Bft) NW 315 0 min 0,000 mm 2,4 UV-I 155 W/m 6,4 C 4,8 km/h (1 Bft)
16.07.2016 16:35 16,5 C 16,6 C 54 % 1025,4 hPa 0,0 mm 1,1 km/h (1 Bft) NW 304 0 min 0,000 mm 2,5 UV-I 151 W/m 7,2 C 3,2 km/h (1 Bft)
16.07.2016 16:36 16,6 C 16,6 C 55 % 1025,4 hPa 0,0 mm 1,9 km/h (1 Bft) N-NW 333 0 min 0,000 mm 2,5 UV-I 146 W/m 7,5 C 4,8 km/h (1 Bft)
16.07.2016 16:37 16,7 C 16,7 C 55 % 1025,4 hPa 0,0 mm 2,7 km/h (1 Bft) N-NW 345 0 min 0,000 mm 2,4 UV-I 139 W/m 7,6 C 4,8 km/h (1 Bft)
16.07.2016 16:38 16,6 C 16,7 C 52 % 1025,4 hPa 0,0 mm 2,3 km/h (1 Bft) N 350 0 min 0,000 mm 2,4 UV-I 134 W/m 6,7 C 3,2 km/h (1 Bft)
16.07.2016 16:39 16,6 C 16,6 C 51 % 1025,3 hPa 0,0 mm 1,6 km/h (1 Bft) N 350 0 min 0,000 mm 2,4 UV-I 137 W/m 6,4 C 3,2 km/h (1 Bft)
16.07.2016 16:40 16,5 C 16,6 C 55 % 1025,3 hPa 0,0 mm 1,2 km/h (1 Bft) NW 317 0 min 0,000 mm 2,4 UV-I 142 W/m 7,4 C 3,2 km/h (1 Bft)
16.07.2016 16:41 16,6 C 16,6 C 53 % 1025,3 hPa 0,0 mm 3,2 km/h (1 Bft) NW 320 0 min 0,000 mm 2,4 UV-I 144 W/m 7,0 C 4,8 km/h (1 Bft)
16.07.2016 16:42 16,6 C 16,6 C 57 % 1025,4 hPa 0,0 mm 4,8 km/h (1 Bft) W-NW 289 0 min 0,000 mm 2,4 UV-I 144 W/m 8,0 C 8,0 km/h (2 Bft)
16.07.2016 16:43 16,7 C 16,7 C 55 % 1025,3 hPa 0,0 mm 9,3 km/h (2 Bft) W 271 0 min 0,000 mm 2,4 UV-I 144 W/m 7,6 C 14,5 km/h (3 Bft)
16.07.2016 16:44 16,8 C 16,8 C 55 % 1025,4 hPa 0,0 mm 9,1 km/h (2 Bft) W 276 0 min 0,000 mm 2,3 UV-I 142 W/m 7,7 C 14,5 km/h (3 Bft)
16.07.2016 16:45 16,9 C 16,9 C 56 % 1025,4 hPa 0,0 mm 8,2 km/h (2 Bft) W 265 0 min 0,000 mm 2,3 UV-I 142 W/m 8,1 C 11,3 km/h (2 Bft)
16.07.2016 16:46 16,9 C 16,9 C 57 % 1025,3 hPa 0,0 mm 11,7 km/h (2 Bft) S-SW 209 0 min 0,000 mm 2,3 UV-I 137 W/m 8,3 C 14,5 km/h (3 Bft)
16.07.2016 16:47 16,8 C 16,9 C 53 % 1025,4 hPa 0,0 mm 7,6 km/h (2 Bft) W-SW 249 0 min 0,000 mm 2,3 UV-I 134 W/m 7,2 C 11,3 km/h (2 Bft)
16.07.2016 16:48 16,7 C 16,8 C 55 % 1025,4 hPa 0,0 mm 5,4 km/h (1 Bft) SW 215 0 min 0,000 mm 2,3 UV-I 128 W/m 7,6 C 9,7 km/h (2 Bft)
16.07.2016 16:49 16,7 C 16,7 C 55 % 1025,3 hPa 0,0 mm 4,6 km/h (1 Bft) NW 317 0 min 0,000 mm 2,2 UV-I 121 W/m 7,6 C 9,7 km/h (2 Bft)
16.07.2016 16:50 16,7 C 16,7 C 56 % 1025,4 hPa 0,0 mm 6,9 km/h (2 Bft) NW 309 0 min 0,000 mm 2,2 UV-I 111 W/m 7,9 C 12,9 km/h (3 Bft)
16.07.2016 16:51 16,8 C 16,8 C 57 % 1025,4 hPa 0,0 mm 6,0 km/h (2 Bft) W 265 0 min 0,000 mm 2,2 UV-I 105 W/m 8,2 C 8,0 km/h (2 Bft)
16.07.2016 16:52 16,8 C 16,8 C 54 % 1025,3 hPa 0,0 mm 7,3 km/h (2 Bft) NW 304 0 min 0,000 mm 2,2 UV-I 102 W/m 7,4 C 11,3 km/h (2 Bft)
16.07.2016 16:53 16,8 C 16,8 C 56 % 1025,3 hPa 0,0 mm 3,0 km/h (1 Bft) W-NW 298 0 min 0,000 mm 2,2 UV-I 98 W/m 8,0 C 4,8 km/h (1 Bft)
16.07.2016 16:54 16,8 C 16,8 C 56 % 1025,3 hPa 0,0 mm 3,4 km/h (1 Bft) N-NO 17 0 min 0,000 mm 2,1 UV-I 98 W/m 8,0 C 6,4 km/h (2 Bft)
16.07.2016 16:55 16,8 C 16,8 C 53 % 1025,3 hPa 0,0 mm 3,7 km/h (1 Bft) N 360 0 min 0,000 mm 2,1 UV-I 95 W/m 7,2 C 4,8 km/h (1 Bft)
16.07.2016 16:56 16,8 C 16,8 C 55 % 1025,3 hPa 0,0 mm 3,4 km/h (1 Bft) NW 311 0 min 0,000 mm 2,1 UV-I 93 W/m 7,7 C 6,4 km/h (2 Bft)
16.07.2016 16:57 16,8 C 16,8 C 56 % 1025,2 hPa 0,0 mm 4,3 km/h (1 Bft) NW 312 0 min 0,000 mm 2,1 UV-I 88 W/m 8,0 C 6,4 km/h (2 Bft)
16.07.2016 16:58 16,8 C 16,8 C 54 % 1025,3 hPa 0,0 mm 4,2 km/h (1 Bft) NW 304 0 min 0,000 mm 2,1 UV-I 83 W/m 7,4 C 6,4 km/h (2 Bft)
16.07.2016 16:59 16,8 C 16,8 C 54 % 1025,3 hPa 0,0 mm 3,6 km/h (1 Bft) W-SW 241 0 min 0,000 mm 2,0 UV-I 83 W/m 7,4 C 6,4 km/h (2 Bft)
16.07.2016 17:00 16,8 C 16,8 C 55 % 1025,3 hPa 0,0 mm 8,1 km/h (2 Bft) W-NW 286 0 min 0,000 mm 2,0 UV-I 84 W/m 7,7 C 14,5 km/h (3 Bft)
16.07.2016 17:01 16,8 C 16,8 C 57 % 1025,4 hPa 0,0 mm 8,4 km/h (2 Bft) W-NW 288 0 min 0,203 mm 2,0 UV-I 86 W/m 8,2 C 12,9 km/h (3 Bft)
16.07.2016 17:02 16,9 C 16,9 C 58 % 1025,3 hPa 0,0 mm 6,8 km/h (2 Bft) W 259 0 min 0,001 mm 2,0 UV-I 86 W/m 8,6 C 11,3 km/h (2 Bft)
16.07.2016 17:03 16,9 C 16,9 C 54 % 1025,4 hPa 0,0 mm 7,2 km/h (2 Bft) W-SW 240 0 min 0,000 mm 2,0 UV-I 88 W/m 7,5 C 12,9 km/h (3 Bft)
16.07.2016 17:04 16,8 C 16,9 C 57 % 1025,3 hPa 0,0 mm 9,1 km/h (2 Bft) SW 225 0 min 0,000 mm 2,0 UV-I 84 W/m 8,2 C 12,9 km/h (3 Bft)
16.07.2016 17:05 16,8 C 16,8 C 55 % 1025,3 hPa 0,0 mm 6,6 km/h (2 Bft) W 260 0 min 0,000 mm 1,9 UV-I 72 W/m 7,7 C 9,7 km/h (2 Bft)
16.07.2016 17:06 16,6 C 16,8 C 54 % 1025,3 hPa 0,0 mm 4,0 km/h (1 Bft) W-NW 299 0 min 0,000 mm 1,9 UV-I 70 W/m 7,3 C 4,8 km/h (1 Bft)
16.07.2016 17:07 16,5 C 16,6 C 54 % 1025,4 hPa 0,0 mm 7,0 km/h (2 Bft) W-SW 253 0 min 0,000 mm 1,9 UV-I 70 W/m 7,2 C 9,7 km/h (2 Bft)
16.07.2016 17:08 16,3 C 16,5 C 54 % 1025,3 hPa 0,0 mm 5,2 km/h (1 Bft) W 277 0 min 0,000 mm 1,8 UV-I 69 W/m 7,0 C 6,4 km/h (2 Bft)
16.07.2016 17:09 16,2 C 16,3 C 58 % 1025,3 hPa 0,0 mm 3,8 km/h (1 Bft) W 259 0 min 0,000 mm 1,8 UV-I 65 W/m 7,9 C 4,8 km/h (1 Bft)
16.07.2016 17:10 16,1 C 16,3 C 58 % 1025,2 hPa 0,0 mm 2,3 km/h (1 Bft) W-NW 300 0 min 0,000 mm 1,7 UV-I 62 W/m 7,8 C 4,8 km/h (1 Bft)
16.07.2016 17:11 16,1 C 16,2 C 58 % 1025,3 hPa 0,0 mm 3,2 km/h (1 Bft) W 275 0 min 0,000 mm 1,7 UV-I 63 W/m 7,8 C 4,8 km/h (1 Bft)
16.07.2016 17:12 16,0 C 16,1 C 61 % 1025,3 hPa 0,0 mm 4,7 km/h (1 Bft) W-SW 252 0 min 0,000 mm 1,7 UV-I 67 W/m 8,5 C 6,4 km/h (2 Bft)
16.07.2016 17:13 15,9 C 16,0 C 55 % 1025,3 hPa 0,0 mm 3,8 km/h (1 Bft) W 268 0 min 0,000 mm 1,6 UV-I 69 W/m 6,9 C 6,4 km/h (2 Bft)
16.07.2016 17:14 15,8 C 15,9 C 58 % 1025,3 hPa 0,0 mm 5,1 km/h (1 Bft) W-SW 255 0 min 0,000 mm 1,6 UV-I 74 W/m 7,6 C 6,4 km/h (2 Bft)
16.07.2016 17:15 15,7 C 15,8 C 60 % 1025,3 hPa 0,0 mm 4,1 km/h (1 Bft) W 265 0 min 0,000 mm 1,6 UV-I 76 W/m 8,0 C 6,4 km/h (2 Bft)
16.07.2016 17:16 15,6 C 15,7 C 60 % 1025,3 hPa 0,0 mm 1,8 km/h (1 Bft) W-SW 252 0 min 0,000 mm 1,7 UV-I 77 W/m 7,9 C 3,2 km/h (1 Bft)
16.07.2016 17:17 15,4 C 15,6 C 63 % 1025,3 hPa 0,0 mm 0,1 km/h (0 Bft) W-SW 252 0 min 0,000 mm 1,7 UV-I 84 W/m 8,4 C 1,6 km/h (1 Bft)
16.07.2016 17:18 15,3 C 15,4 C 64 % 1025,3 hPa 0,0 mm 0,4 km/h (0 Bft) W-SW 252 0 min 0,000 mm 1,8 UV-I 98 W/m 8,5 C 1,6 km/h (1 Bft)
16.07.2016 17:19 15,3 C 15,3 C 64 % 1025,3 hPa 0,0 mm 0,1 km/h (0 Bft) W-SW 252 0 min 0,000 mm 1,8 UV-I 102 W/m 8,5 C 1,6 km/h (1 Bft)
16.07.2016 17:20 15,2 C 15,3 C 66 % 1025,2 hPa 0,0 mm 0,1 km/h (0 Bft) W-SW 252 0 min 0,000 mm 1,8 UV-I 105 W/m 8,9 C 1,6 km/h (1 Bft)
16.07.2016 17:21 15,3 C 15,3 C 63 % 1025,2 hPa 0,0 mm 0,3 km/h (0 Bft) W-SW 252 0 min 0,000 mm 1,9 UV-I 107 W/m 8,3 C 1,6 km/h (1 Bft)
16.07.2016 17:22 15,4 C 15,4 C 65 % 1025,2 hPa 0,0 mm 1,3 km/h (1 Bft) N-NW 346 0 min 0,000 mm 1,8 UV-I 93 W/m 8,9 C 3,2 km/h (1 Bft)
16.07.2016 17:23 15,6 C 15,6 C 65 % 1025,2 hPa 0,0 mm 3,0 km/h (1 Bft) N-NW 345 0 min 0,000 mm 1,8 UV-I 90 W/m 9,0 C 4,8 km/h (1 Bft)
16.07.2016 17:24 15,7 C 15,7 C 57 % 1025,2 hPa 0,0 mm 1,4 km/h (1 Bft) N-NW 345 0 min 0,000 mm 1,8 UV-I 86 W/m 7,2 C 1,6 km/h (1 Bft)
16.07.2016 17:25 15,8 C 15,8 C 54 % 1025,2 hPa 0,0 mm 0,3 km/h (0 Bft) N 351 0 min 0,000 mm 1,8 UV-I 83 W/m 6,5 C 1,6 km/h (1 Bft)
16.07.2016 17:26 15,9 C 15,9 C 53 % 1025,1 hPa 0,0 mm 0,4 km/h (0 Bft) N 351 0 min 0,000 mm 1,8 UV-I 81 W/m 6,3 C 1,6 km/h (1 Bft)
16.07.2016 17:27 15,9 C 15,9 C 53 % 1025,2 hPa 0,0 mm 1,0 km/h (0 Bft) N 351 0 min 0,000 mm 1,8 UV-I 79 W/m 6,3 C 1,6 km/h (1 Bft)
16.07.2016 17:28 16,0 C 16,0 C 57 % 1025,1 hPa 0,0 mm 4,3 km/h (1 Bft) W 275 0 min 0,000 mm 1,7 UV-I 79 W/m 7,5 C 6,4 km/h (2 Bft)
16.07.2016 17:29 16,2 C 16,2 C 59 % 1025,1 hPa 0,0 mm 5,4 km/h (1 Bft) W 275 0 min 0,000 mm 1,7 UV-I 77 W/m 8,2 C 6,4 km/h (2 Bft)
16.07.2016 17:30 16,3 C 16,3 C 56 % 1025,1 hPa 0,0 mm 2,7 km/h (1 Bft) W 273 0 min 0,000 mm 1,7 UV-I 77 W/m 7,5 C 4,8 km/h (1 Bft)
16.07.2016 17:31 16,4 C 16,4 C 54 % 1025,1 hPa 0,0 mm 3,0 km/h (1 Bft) N 360 0 min 0,000 mm 1,7 UV-I 76 W/m 7,1 C 3,2 km/h (1 Bft)
16.07.2016 17:32 16,4 C 16,4 C 56 % 1025,1 hPa 0,0 mm 3,0 km/h (1 Bft) N 355 0 min 0,000 mm 1,7 UV-I 76 W/m 7,6 C 4,8 km/h (1 Bft)
16.07.2016 17:33 16,5 C 16,5 C 57 % 1025,1 hPa 0,0 mm 3,0 km/h (1 Bft) W 271 0 min 0,000 mm 1,7 UV-I 84 W/m 8,0 C 4,8 km/h (1 Bft)
16.07.2016 17:34 16,6 C 16,6 C 59 % 1025,1 hPa 0,0 mm 5,3 km/h (1 Bft) W-NW 300 0 min 0,000 mm 1,7 UV-I 81 W/m 8,6 C 6,4 km/h (2 Bft)
16.07.2016 17:35 16,7 C 16,7 C 58 % 1025,1 hPa 0,0 mm 4,8 km/h (1 Bft) W-SW 258 0 min 0,000 mm 1,7 UV-I 76 W/m 8,4 C 9,7 km/h (2 Bft)
16.07.2016 17:36 16,7 C 16,7 C 51 % 1025,1 hPa 0,0 mm 8,8 km/h (2 Bft) W-SW 253 0 min 0,000 mm 1,7 UV-I 76 W/m 6,5 C 14,5 km/h (3 Bft)
16.07.2016 17:37 16,7 C 16,7 C 55 % 1025,2 hPa 0,0 mm 8,6 km/h (2 Bft) W-SW 248 0 min 0,000 mm 1,7 UV-I 77 W/m 7,6 C 12,9 km/h (3 Bft)
16.07.2016 17:38 16,7 C 16,7 C 53 % 1025,1 hPa 0,0 mm 7,6 km/h (2 Bft) SW 227 0 min 0,000 mm 1,7 UV-I 77 W/m 7,1 C 12,9 km/h (3 Bft)
16.07.2016 17:39 16,7 C 16,7 C 52 % 1025,1 hPa 0,0 mm 6,2 km/h (2 Bft) W 270 0 min 0,000 mm 1,7 UV-I 77 W/m 6,8 C 8,0 km/h (2 Bft)
16.07.2016 17:40 16,6 C 16,7 C 54 % 1025,1 hPa 0,0 mm 4,4 km/h (1 Bft) W-SW 252 0 min 0,000 mm 1,6 UV-I 77 W/m 7,3 C 6,4 km/h (2 Bft)
16.07.2016 17:41 16,7 C 16,7 C 55 % 1025,1 hPa 0,0 mm 2,5 km/h (1 Bft) W-NW 292 0 min 0,000 mm 1,6 UV-I 77 W/m 7,6 C 3,2 km/h (1 Bft)
16.07.2016 17:42 16,7 C 16,7 C 54 % 1025,1 hPa 0,0 mm 3,4 km/h (1 Bft) W-NW 290 0 min 0,000 mm 1,6 UV-I 77 W/m 7,3 C 11,3 km/h (2 Bft)
16.07.2016 17:43 16,7 C 16,7 C 55 % 1025,1 hPa 0,0 mm 5,2 km/h (1 Bft) W 266 0 min 0,000 mm 1,6 UV-I 77 W/m 7,6 C 8,0 km/h (2 Bft)
16.07.2016 17:44 16,7 C 16,7 C 55 % 1025,1 hPa 0,0 mm 5,0 km/h (1 Bft) W-SW 254 0 min 0,000 mm 1,6 UV-I 77 W/m 7,6 C 8,0 km/h (2 Bft)
16.07.2016 17:45 16,7 C 16,7 C 53 % 1025,1 hPa 0,0 mm 3,5 km/h (1 Bft) W-SW 254 0 min 0,000 mm 1,6 UV-I 76 W/m 7,1 C 4,8 km/h (1 Bft)
16.07.2016 17:46 16,6 C 16,7 C 54 % 1025,1 hPa 0,0 mm 3,7 km/h (1 Bft) W 259 0 min 0,000 mm 1,5 UV-I 76 W/m 7,3 C 4,8 km/h (1 Bft)
16.07.2016 17:47 16,6 C 16,7 C 55 % 1025,1 hPa 0,0 mm 3,6 km/h (1 Bft) W-NW 294 0 min 0,000 mm 1,5 UV-I 74 W/m 7,5 C 4,8 km/h (1 Bft)
16.07.2016 17:48 16,7 C 16,7 C 55 % 1025,1 hPa 0,0 mm 5,9 km/h (2 Bft) N 11 0 min 0,000 mm 1,5 UV-I 77 W/m 7,6 C 9,7 km/h (2 Bft)
16.07.2016 17:49 16,8 C 16,8 C 55 % 1025,1 hPa 0,0 mm 4,7 km/h (1 Bft) N 350 0 min 0,000 mm 1,5 UV-I 79 W/m 7,7 C 6,4 km/h (2 Bft)
16.07.2016 17:50 16,9 C 16,9 C 56 % 1025,1 hPa 0,0 mm 6,8 km/h (2 Bft) W-NW 302 0 min 0,000 mm 1,5 UV-I 79 W/m 8,1 C 9,7 km/h (2 Bft)
16.07.2016 17:51 16,9 C 16,9 C 55 % 1025,2 hPa 0,0 mm 7,1 km/h (2 Bft) NW 322 0 min 0,000 mm 1,5 UV-I 86 W/m 7,8 C 11,3 km/h (2 Bft)
16.07.2016 17:52 16,9 C 16,9 C 52 % 1025,1 hPa 0,0 mm 7,2 km/h (2 Bft) W 265 0 min 0,000 mm 1,5 UV-I 88 W/m 7,0 C 12,9 km/h (3 Bft)
16.07.2016 17:53 16,8 C 16,9 C 53 % 1025,1 hPa 0,0 mm 7,9 km/h (2 Bft) NW 307 0 min 0,000 mm 1,5 UV-I 86 W/m 7,2 C 12,9 km/h (3 Bft)
16.07.2016 17:54 16,8 C 16,8 C 51 % 1025,1 hPa 0,0 mm 5,3 km/h (1 Bft) N-NW 339 0 min 0,000 mm 1,5 UV-I 88 W/m 6,6 C 8,0 km/h (2 Bft)
16.07.2016 17:55 16,8 C 16,8 C 54 % 1025,1 hPa 0,0 mm 4,1 km/h (1 Bft) W-NW 293 0 min 0,000 mm 1,5 UV-I 95 W/m 7,4 C 6,4 km/h (2 Bft)
16.07.2016 17:56 16,8 C 16,8 C 54 % 1025,1 hPa 0,0 mm 3,4 km/h (1 Bft) NW 311 0 min 0,000 mm 1,5 UV-I 93 W/m 7,4 C 4,8 km/h (1 Bft)
16.07.2016 17:57 16,9 C 16,9 C 54 % 1025,0 hPa 0,0 mm 4,6 km/h (1 Bft) NW 324 0 min 0,000 mm 1,5 UV-I 100 W/m 7,5 C 6,4 km/h (2 Bft)
16.07.2016 17:58 16,9 C 16,9 C 54 % 1025,1 hPa 0,0 mm 3,2 km/h (1 Bft) W-SW 252 0 min 0,000 mm 1,5 UV-I 104 W/m 7,5 C 4,8 km/h (1 Bft)
16.07.2016 17:59 16,9 C 16,9 C 53 % 1025,0 hPa 0,0 mm 1,9 km/h (1 Bft) W-NW 284 0 min 0,000 mm 1,5 UV-I 109 W/m 7,3 C 3,2 km/h (1 Bft)
16.07.2016 18:00 16,9 C 16,9 C 57 % 1025,0 hPa 0,0 mm 6,5 km/h (2 Bft) W-NW 283 0 min 0,000 mm 1,5 UV-I 114 W/m 8,3 C 12,9 km/h (3 Bft)
16.07.2016 18:01 16,9 C 16,9 C 55 % 1025,1 hPa 0,0 mm 8,4 km/h (2 Bft) W-NW 298 0 min 0,076 mm 1,5 UV-I 118 W/m 7,8 C 12,9 km/h (3 Bft)
16.07.2016 18:02 16,9 C 16,9 C 56 % 1025,1 hPa 0,0 mm 7,4 km/h (2 Bft) NW 320 0 min 0,000 mm 1,5 UV-I 118 W/m 8,1 C 14,5 km/h (3 Bft)
16.07.2016 18:03 16,9 C 17,0 C 53 % 1025,1 hPa 0,0 mm 9,9 km/h (2 Bft) NW 306 0 min 0,000 mm 1,5 UV-I 113 W/m 7,3 C 14,5 km/h (3 Bft)
16.07.2016 18:04 17,0 C 17,0 C 54 % 1025,1 hPa 0,0 mm 8,1 km/h (2 Bft) N-NW 329 0 min 0,000 mm 1,5 UV-I 107 W/m 7,6 C 12,9 km/h (3 Bft)
16.07.2016 18:05 17,0 C 17,0 C 55 % 1025,1 hPa 0,0 mm 5,0 km/h (1 Bft) W-NW 290 0 min 0,000 mm 1,4 UV-I 107 W/m 7,9 C 8,0 km/h (2 Bft)
16.07.2016 18:06 16,9 C 17,0 C 53 % 1025,1 hPa 0,0 mm 5,0 km/h (1 Bft) NW 306 0 min 0,000 mm 1,4 UV-I 100 W/m 7,3 C 8,0 km/h (2 Bft)
16.07.2016 18:07 16,9 C 16,9 C 54 % 1025,1 hPa 0,0 mm 5,4 km/h (1 Bft) W-SW 246 0 min 0,000 mm 1,4 UV-I 102 W/m 7,5 C 6,4 km/h (2 Bft)
16.07.2016 18:08 16,9 C 16,9 C 53 % 1025,0 hPa 0,0 mm 4,2 km/h (1 Bft) W-NW 285 0 min 0,000 mm 1,4 UV-I 104 W/m 7,3 C 6,4 km/h (2 Bft)
16.07.2016 18:09 16,8 C 16,9 C 55 % 1025,0 hPa 0,0 mm 3,6 km/h (1 Bft) W 274 0 min 0,000 mm 1,4 UV-I 100 W/m 7,7 C 6,4 km/h (2 Bft)
16.07.2016 18:10 16,9 C 16,9 C 56 % 1025,1 hPa 0,0 mm 7,0 km/h (2 Bft) W-NW 282 0 min 0,000 mm 1,4 UV-I 97 W/m 8,1 C 11,3 km/h (2 Bft)
16.07.2016 18:11 16,9 C 17,0 C 57 % 1025,0 hPa 0,0 mm 4,8 km/h (1 Bft) NW 310 0 min 0,000 mm 1,3 UV-I 79 W/m 8,3 C 9,7 km/h (2 Bft)
16.07.2016 18:12 17,0 C 17,0 C 54 % 1025,0 hPa 0,0 mm 4,5 km/h (1 Bft) W 276 0 min 0,000 mm 1,3 UV-I 77 W/m 7,6 C 6,4 km/h (2 Bft)
16.07.2016 18:13 17,0 C 17,0 C 56 % 1025,0 hPa 0,0 mm 5,8 km/h (2 Bft) NW 305 0 min 0,000 mm 1,3 UV-I 76 W/m 8,2 C 11,3 km/h (2 Bft)
16.07.2016 18:14 16,9 C 17,0 C 54 % 1025,0 hPa 0,0 mm 2,5 km/h (1 Bft) W-SW 254 0 min 0,000 mm 1,3 UV-I 74 W/m 7,5 C 3,2 km/h (1 Bft)
16.07.2016 18:15 16,9 C 16,9 C 55 % 1025,0 hPa 0,0 mm 4,1 km/h (1 Bft) W 271 0 min 0,000 mm 1,3 UV-I 72 W/m 7,8 C 6,4 km/h (2 Bft)
16.07.2016 18:16 16,8 C 16,9 C 54 % 1025,0 hPa 0,0 mm 3,5 km/h (1 Bft) W 268 0 min 0,000 mm 1,3 UV-I 72 W/m 7,4 C 4,8 km/h (1 Bft)
16.07.2016 18:17 16,8 C 16,8 C 54 % 1024,9 hPa 0,0 mm 4,8 km/h (1 Bft) W-NW 301 0 min 0,000 mm 1,3 UV-I 72 W/m 7,4 C 6,4 km/h (2 Bft)
16.07.2016 18:18 16,8 C 16,8 C 55 % 1024,9 hPa 0,0 mm 4,8 km/h (1 Bft) W-SW 254 0 min 0,000 mm 1,3 UV-I 72 W/m 7,7 C 8,0 km/h (2 Bft)
16.07.2016 18:19 16,8 C 16,8 C 56 % 1024,9 hPa 0,0 mm 3,7 km/h (1 Bft) W 278 0 min 0,000 mm 1,3 UV-I 72 W/m 8,0 C 6,4 km/h (2 Bft)
16.07.2016 18:20 16,8 C 16,8 C 55 % 1024,9 hPa 0,0 mm 6,1 km/h (2 Bft) W-NW 286 0 min 0,000 mm 1,3 UV-I 72 W/m 7,7 C 11,3 km/h (2 Bft)
16.07.2016 18:21 16,8 C 16,8 C 58 % 1024,9 hPa 0,0 mm 6,8 km/h (2 Bft) W-NW 284 0 min 0,000 mm 1,3 UV-I 72 W/m 8,5 C 8,0 km/h (2 Bft)
16.07.2016 18:22 16,8 C 16,8 C 57 % 1024,9 hPa 0,0 mm 3,6 km/h (1 Bft) W-SW 257 0 min 0,000 mm 1,2 UV-I 72 W/m 8,2 C 9,7 km/h (2 Bft)
16.07.2016 18:23 16,8 C 16,8 C 56 % 1024,9 hPa 0,0 mm 5,0 km/h (1 Bft) W-NW 298 0 min 0,000 mm 1,2 UV-I 70 W/m 8,0 C 6,4 km/h (2 Bft)
16.07.2016 18:24 16,9 C 16,9 C 55 % 1024,9 hPa 0,0 mm 4,7 km/h (1 Bft) W 277 0 min 0,000 mm 1,2 UV-I 70 W/m 7,8 C 6,4 km/h (2 Bft)
16.07.2016 18:25 16,9 C 16,9 C 55 % 1024,9 hPa 0,0 mm 3,4 km/h (1 Bft) W 281 0 min 0,000 mm 1,2 UV-I 69 W/m 7,8 C 9,7 km/h (2 Bft)
16.07.2016 18:26 16,9 C 16,9 C 56 % 1024,8 hPa 0,0 mm 5,7 km/h (1 Bft) W 275 0 min 0,000 mm 1,2 UV-I 69 W/m 8,1 C 9,7 km/h (2 Bft)
16.07.2016 18:27 16,8 C 16,9 C 54 % 1024,9 hPa 0,0 mm 3,7 km/h (1 Bft) NW 312 0 min 0,000 mm 1,2 UV-I 69 W/m 7,4 C 4,8 km/h (1 Bft)
16.07.2016 18:28 16,8 C 16,8 C 57 % 1024,9 hPa 0,0 mm 5,4 km/h (1 Bft) W-NW 286 0 min 0,000 mm 1,2 UV-I 69 W/m 8,2 C 8,0 km/h (2 Bft)
16.07.2016 18:29 16,9 C 16,9 C 58 % 1024,8 hPa 0,0 mm 4,8 km/h (1 Bft) N-NW 327 0 min 0,000 mm 1,2 UV-I 69 W/m 8,6 C 6,4 km/h (2 Bft)
16.07.2016 18:30 16,9 C 16,9 C 58 % 1024,8 hPa 0,0 mm 5,0 km/h (1 Bft) W-NW 302 0 min 0,000 mm 1,2 UV-I 67 W/m 8,6 C 6,4 km/h (2 Bft)
16.07.2016 18:31 16,9 C 16,9 C 57 % 1024,9 hPa 0,0 mm 3,3 km/h (1 Bft) NW 315 0 min 0,000 mm 1,2 UV-I 69 W/m 8,3 C 6,4 km/h (2 Bft)
16.07.2016 18:32 16,9 C 16,9 C 57 % 1024,8 hPa 0,0 mm 2,2 km/h (1 Bft) NW 315 0 min 0,000 mm 1,2 UV-I 69 W/m 8,3 C 4,8 km/h (1 Bft)
16.07.2016 18:33 16,9 C 16,9 C 58 % 1024,8 hPa 0,0 mm 3,2 km/h (1 Bft) W-NW 302 0 min 0,000 mm 1,1 UV-I 70 W/m 8,6 C 4,8 km/h (1 Bft)
16.07.2016 18:34 16,9 C 17,0 C 56 % 1024,8 hPa 0,0 mm 4,5 km/h (1 Bft) W-NW 296 0 min 0,000 mm 1,1 UV-I 72 W/m 8,1 C 6,4 km/h (2 Bft)
16.07.2016 18:35 16,9 C 17,0 C 55 % 1024,8 hPa 0,0 mm 5,4 km/h (1 Bft) W-NW 282 0 min 0,000 mm 1,1 UV-I 74 W/m 7,8 C 11,3 km/h (2 Bft)
16.07.2016 18:36 17,0 C 17,0 C 56 % 1024,8 hPa 0,0 mm 8,0 km/h (2 Bft) W-NW 298 0 min 0,000 mm 1,1 UV-I 76 W/m 8,2 C 12,9 km/h (3 Bft)
16.07.2016 18:37 17,0 C 17,0 C 56 % 1024,8 hPa 0,0 mm 9,7 km/h (2 Bft) W-SW 258 0 min 0,000 mm 1,1 UV-I 77 W/m 8,2 C 16,1 km/h (3 Bft)
16.07.2016 18:38 16,9 C 17,0 C 54 % 1024,8 hPa 0,0 mm 5,0 km/h (1 Bft) W 280 0 min 0,000 mm 1,1 UV-I 79 W/m 7,5 C 9,7 km/h (2 Bft)
16.07.2016 18:39 16,9 C 16,9 C 54 % 1024,8 hPa 0,0 mm 7,2 km/h (2 Bft) W 262 0 min 0,000 mm 1,1 UV-I 83 W/m 7,5 C 11,3 km/h (2 Bft)
16.07.2016 18:40 16,9 C 16,9 C 55 % 1024,8 hPa 0,0 mm 7,7 km/h (2 Bft) W 269 0 min 0,000 mm 1,1 UV-I 84 W/m 7,8 C 11,3 km/h (2 Bft)
16.07.2016 18:41 16,9 C 16,9 C 58 % 1024,8 hPa 0,0 mm 3,2 km/h (1 Bft) W-NW 282 0 min 0,000 mm 1,1 UV-I 86 W/m 8,6 C 4,8 km/h (1 Bft)
16.07.2016 18:42 16,9 C 16,9 C 56 % 1024,8 hPa 0,0 mm 3,2 km/h (1 Bft) W-NW 302 0 min 0,000 mm 1,1 UV-I 91 W/m 8,1 C 4,8 km/h (1 Bft)
16.07.2016 18:43 16,9 C 16,9 C 53 % 1024,8 hPa 0,0 mm 1,2 km/h (1 Bft) W-NW 291 0 min 0,000 mm 1,1 UV-I 98 W/m 7,3 C 3,2 km/h (1 Bft)
16.07.2016 18:44 16,9 C 16,9 C 52 % 1024,9 hPa 0,0 mm 3,4 km/h (1 Bft) NW 306 0 min 0,000 mm 1,1 UV-I 120 W/m 7,0 C 4,8 km/h (1 Bft)
16.07.2016 18:45 16,9 C 16,9 C 53 % 1024,8 hPa 0,0 mm 7,3 km/h (2 Bft) W 275 0 min 0,000 mm 1,1 UV-I 102 W/m 7,3 C 12,9 km/h (3 Bft)
16.07.2016 18:46 16,9 C 16,9 C 54 % 1024,8 hPa 0,0 mm 7,8 km/h (2 Bft) W 281 0 min 0,000 mm 1,0 UV-I 97 W/m 7,5 C 11,3 km/h (2 Bft)
16.07.2016 18:47 16,9 C 16,9 C 55 % 1024,8 hPa 0,0 mm 9,3 km/h (2 Bft) W 262 0 min 0,000 mm 1,0 UV-I 90 W/m 7,8 C 12,9 km/h (3 Bft)
16.07.2016 18:48 16,9 C 16,9 C 54 % 1024,8 hPa 0,0 mm 7,0 km/h (2 Bft) W-SW 250 0 min 0,000 mm 1,0 UV-I 105 W/m 7,5 C 11,3 km/h (2 Bft)
16.07.2016 18:49 16,9 C 16,9 C 54 % 1024,8 hPa 0,0 mm 6,8 km/h (2 Bft) W 261 0 min 0,000 mm 1,0 UV-I 155 W/m 7,5 C 11,3 km/h (2 Bft)
16.07.2016 18:50 16,9 C 16,9 C 55 % 1024,8 hPa 0,0 mm 7,0 km/h (2 Bft) W-NW 295 0 min 0,000 mm 1,0 UV-I 151 W/m 7,8 C 11,3 km/h (2 Bft)
16.07.2016 18:51 16,9 C 16,9 C 55 % 1024,8 hPa 0,0 mm 6,0 km/h (2 Bft) W 267 0 min 0,000 mm 1,0 UV-I 146 W/m 7,8 C 11,3 km/h (2 Bft)
16.07.2016 18:52 16,8 C 16,9 C 56 % 1024,8 hPa 0,0 mm 4,1 km/h (1 Bft) W-NW 294 0 min 0,000 mm 1,0 UV-I 139 W/m 8,0 C 6,4 km/h (2 Bft)
16.07.2016 18:53 16,8 C 16,9 C 57 % 1024,8 hPa 0,0 mm 2,5 km/h (1 Bft) W-NW 282 0 min 0,000 mm 1,0 UV-I 118 W/m 8,2 C 4,8 km/h (1 Bft)
16.07.2016 18:54 16,9 C 16,9 C 57 % 1024,8 hPa 0,0 mm 4,6 km/h (1 Bft) NW 304 0 min 0,000 mm 1,0 UV-I 91 W/m 8,3 C 9,7 km/h (2 Bft)
16.07.2016 18:55 16,9 C 16,9 C 56 % 1024,7 hPa 0,0 mm 5,4 km/h (1 Bft) W 268 0 min 0,000 mm 1,0 UV-I 84 W/m 8,1 C 9,7 km/h (2 Bft)
16.07.2016 18:56 16,9 C 16,9 C 54 % 1024,8 hPa 0,0 mm 3,6 km/h (1 Bft) W-NW 297 0 min 0,000 mm 1,0 UV-I 90 W/m 7,5 C 4,8 km/h (1 Bft)
16.07.2016 18:57 16,9 C 16,9 C 58 % 1024,7 hPa 0,0 mm 2,8 km/h (1 Bft) W-NW 299 0 min 0,000 mm 1,0 UV-I 93 W/m 8,6 C 4,8 km/h (1 Bft)
16.07.2016 18:58 16,9 C 16,9 C 56 % 1024,8 hPa 0,0 mm 3,2 km/h (1 Bft) W-SW 258 0 min 0,000 mm 1,0 UV-I 114 W/m 8,1 C 4,8 km/h (1 Bft)
16.07.2016 18:59 16,9 C 16,9 C 56 % 1024,8 hPa 0,0 mm 1,9 km/h (1 Bft) W-NW 296 0 min 0,000 mm 1,0 UV-I 144 W/m 8,1 C 4,8 km/h (1 Bft)
16.07.2016 19:00 16,9 C 17,0 C 55 % 1024,8 hPa 0,0 mm 4,4 km/h (1 Bft) W 273 0 min 0,000 mm 1,0 UV-I 113 W/m 7,8 C 6,4 km/h (2 Bft)
16.07.2016 19:01 16,9 C 17,0 C 56 % 1024,8 hPa 0,0 mm 6,0 km/h (2 Bft) W-NW 291 0 min 0,076 mm 1,0 UV-I 88 W/m 8,1 C 9,7 km/h (2 Bft)
16.07.2016 19:02 17,0 C 17,0 C 57 % 1024,8 hPa 0,0 mm 4,5 km/h (1 Bft) W-SW 254 0 min 0,000 mm 0,9 UV-I 83 W/m 8,4 C 6,4 km/h (2 Bft)
16.07.2016 19:03 16,9 C 17,0 C 55 % 1024,8 hPa 0,0 mm 3,6 km/h (1 Bft) W 268 0 min 0,000 mm 0,9 UV-I 79 W/m 7,8 C 6,4 km/h (2 Bft)
16.07.2016 19:04 16,9 C 16,9 C 56 % 1024,8 hPa 0,0 mm 3,9 km/h (1 Bft) W-NW 299 0 min 0,000 mm 0,9 UV-I 76 W/m 8,1 C 6,4 km/h (2 Bft)
16.07.2016 19:05 17,0 C 17,0 C 55 % 1024,8 hPa 0,0 mm 7,5 km/h (2 Bft) W 267 0 min 0,000 mm 0,9 UV-I 70 W/m 7,9 C 11,3 km/h (2 Bft)
16.07.2016 19:06 16,9 C 17,0 C 57 % 1024,8 hPa 0,0 mm 5,9 km/h (2 Bft) W 262 0 min 0,000 mm 0,9 UV-I 67 W/m 8,3 C 8,0 km/h (2 Bft)
16.07.2016 19:07 16,9 C 16,9 C 57 % 1024,9 hPa 0,0 mm 3,4 km/h (1 Bft) W-NW 297 0 min 0,000 mm 0,8 UV-I 62 W/m 8,3 C 4,8 km/h (1 Bft)
16.07.2016 19:08 16,9 C 16,9 C 57 % 1024,8 hPa 0,0 mm 3,2 km/h (1 Bft) W-NW 290 0 min 0,000 mm 0,8 UV-I 60 W/m 8,3 C 4,8 km/h (1 Bft)
16.07.2016 19:09 16,8 C 16,9 C 57 % 1024,8 hPa 0,0 mm 3,1 km/h (1 Bft) W 279 0 min 0,000 mm 0,8 UV-I 60 W/m 8,2 C 4,8 km/h (1 Bft)
16.07.2016 19:10 16,8 C 16,8 C 58 % 1024,8 hPa 0,0 mm 4,2 km/h (1 Bft) NW 304 0 min 0,000 mm 0,8 UV-I 60 W/m 8,5 C 4,8 km/h (1 Bft)
16.07.2016 19:11 16,8 C 16,8 C 57 % 1024,8 hPa 0,0 mm 5,5 km/h (1 Bft) W 275 0 min 0,000 mm 0,8 UV-I 60 W/m 8,2 C 9,7 km/h (2 Bft)
16.07.2016 19:12 16,8 C 16,8 C 57 % 1024,9 hPa 0,0 mm 3,9 km/h (1 Bft) W-NW 299 0 min 0,000 mm 0,8 UV-I 62 W/m 8,2 C 9,7 km/h (2 Bft)
16.07.2016 19:13 16,7 C 16,8 C 56 % 1024,8 hPa 0,0 mm 4,4 km/h (1 Bft) W-SW 244 0 min 0,000 mm 0,8 UV-I 65 W/m 7,9 C 6,4 km/h (2 Bft)
16.07.2016 19:14 16,7 C 16,7 C 56 % 1024,9 hPa 0,0 mm 8,2 km/h (2 Bft) W 276 0 min 0,000 mm 0,8 UV-I 65 W/m 7,9 C 12,9 km/h (3 Bft)
16.07.2016 19:15 16,7 C 16,7 C 56 % 1024,8 hPa 0,0 mm 5,8 km/h (2 Bft) W-NW 282 0 min 0,000 mm 0,8 UV-I 58 W/m 7,9 C 12,9 km/h (3 Bft)
16.07.2016 19:16 16,7 C 16,7 C 56 % 1024,8 hPa 0,0 mm 3,1 km/h (1 Bft) W 277 0 min 0,000 mm 0,8 UV-I 60 W/m 7,9 C 4,8 km/h (1 Bft)
16.07.2016 19:17 16,6 C 16,7 C 57 % 1024,8 hPa 0,0 mm 5,0 km/h (1 Bft) W 267 0 min 0,000 mm 0,8 UV-I 62 W/m 8,0 C 11,3 km/h (2 Bft)
16.07.2016 19:18 16,7 C 16,7 C 59 % 1024,9 hPa 0,0 mm 5,7 km/h (1 Bft) W 272 0 min 0,000 mm 0,7 UV-I 56 W/m 8,6 C 9,7 km/h (2 Bft)
16.07.2016 19:19 16,7 C 16,7 C 57 % 1024,8 hPa 0,0 mm 6,0 km/h (2 Bft) W-SW 256 0 min 0,000 mm 0,7 UV-I 54 W/m 8,1 C 9,7 km/h (2 Bft)
16.07.2016 19:20 16,7 C 16,7 C 59 % 1024,9 hPa 0,0 mm 3,6 km/h (1 Bft) W-NW 298 0 min 0,000 mm 0,7 UV-I 58 W/m 8,6 C 6,4 km/h (2 Bft)
16.07.2016 19:21 16,6 C 16,7 C 59 % 1024,9 hPa 0,0 mm 1,9 km/h (1 Bft) W-NW 298 0 min 0,000 mm 0,7 UV-I 56 W/m 8,6 C 3,2 km/h (1 Bft)
16.07.2016 19:22 16,6 C 16,6 C 57 % 1024,9 hPa 0,0 mm 3,3 km/h (1 Bft) W 278 0 min 0,000 mm 0,7 UV-I 56 W/m 8,0 C 4,8 km/h (1 Bft)
16.07.2016 19:23 16,6 C 16,6 C 60 % 1024,9 hPa 0,0 mm 3,8 km/h (1 Bft) W-SW 246 0 min 0,000 mm 0,7 UV-I 60 W/m 8,8 C 8,0 km/h (2 Bft)
16.07.2016 19:24 16,5 C 16,6 C 57 % 1024,9 hPa 0,0 mm 4,5 km/h (1 Bft) W 261 0 min 0,000 mm 0,7 UV-I 72 W/m 8,0 C 6,4 km/h (2 Bft)
16.07.2016 19:25 16,6 C 16,6 C 56 % 1024,9 hPa 0,0 mm 3,0 km/h (1 Bft) W-NW 284 0 min 0,000 mm 0,7 UV-I 56 W/m 7,8 C 6,4 km/h (2 Bft)
16.07.2016 19:26 16,6 C 16,6 C 60 % 1024,8 hPa 0,0 mm 4,4 km/h (1 Bft) W 261 0 min 0,000 mm 0,7 UV-I 56 W/m 8,8 C 6,4 km/h (2 Bft)
16.07.2016 19:27 16,6 C 16,6 C 59 % 1024,8 hPa 0,0 mm 2,5 km/h (1 Bft) W-NW 285 0 min 0,000 mm 0,7 UV-I 63 W/m 8,6 C 4,8 km/h (1 Bft)
16.07.2016 19:28 16,5 C 16,6 C 56 % 1024,9 hPa 0,0 mm 2,9 km/h (1 Bft) W 274 0 min 0,000 mm 0,7 UV-I 63 W/m 7,7 C 4,8 km/h (1 Bft)
16.07.2016 19:29 16,6 C 16,6 C 57 % 1024,8 hPa 0,0 mm 2,3 km/h (1 Bft) W-NW 283 0 min 0,000 mm 0,7 UV-I 88 W/m 8,0 C 4,8 km/h (1 Bft)
16.07.2016 19:30 16,6 C 16,6 C 57 % 1024,9 hPa 0,0 mm 4,1 km/h (1 Bft) W 278 0 min 0,000 mm 0,7 UV-I 127 W/m 8,0 C 6,4 km/h (2 Bft)
16.07.2016 19:31 16,6 C 16,6 C 58 % 1024,8 hPa 0,0 mm 3,1 km/h (1 Bft) W-NW 288 1 min 0,000 mm 0,7 UV-I 155 W/m 8,3 C 4,8 km/h (1 Bft)
16.07.2016 19:32 16,6 C 16,6 C 57 % 1024,8 hPa 0,0 mm 3,6 km/h (1 Bft) W-NW 299 1 min 0,000 mm 0,6 UV-I 153 W/m 8,0 C 4,8 km/h (1 Bft)
16.07.2016 19:33 16,6 C 16,6 C 56 % 1024,8 hPa 0,0 mm 2,5 km/h (1 Bft) W-NW 298 1 min 0,000 mm 0,6 UV-I 149 W/m 7,8 C 3,2 km/h (1 Bft)
16.07.2016 19:34 16,6 C 16,6 C 59 % 1024,8 hPa 0,0 mm 1,2 km/h (1 Bft) W-NW 298 1 min 0,000 mm 0,6 UV-I 146 W/m 8,6 C 1,6 km/h (1 Bft)
16.07.2016 19:35 16,6 C 16,6 C 59 % 1024,8 hPa 0,0 mm 1,4 km/h (1 Bft) W-NW 298 1 min 0,000 mm 0,6 UV-I 144 W/m 8,6 C 3,2 km/h (1 Bft)
16.07.2016 19:36 16,6 C 16,6 C 60 % 1024,8 hPa 0,0 mm 1,5 km/h (1 Bft) W-NW 298 1 min 0,000 mm 0,6 UV-I 139 W/m 8,8 C 1,6 km/h (1 Bft)
16.07.2016 19:37 16,5 C 16,6 C 60 % 1024,8 hPa 0,0 mm 1,4 km/h (1 Bft) W-NW 298 1 min 0,000 mm 0,6 UV-I 137 W/m 8,7 C 3,2 km/h (1 Bft)
16.07.2016 19:38 16,3 C 16,5 C 60 % 1024,8 hPa 0,0 mm 1,2 km/h (1 Bft) W-NW 296 1 min 0,000 mm 0,6 UV-I 134 W/m 8,5 C 1,6 km/h (1 Bft)
16.07.2016 19:39 16,3 C 16,3 C 60 % 1024,8 hPa 0,0 mm 0,3 km/h (0 Bft) W-NW 288 1 min 0,000 mm 0,6 UV-I 130 W/m 8,5 C 1,6 km/h (1 Bft)
16.07.2016 19:40 16,3 C 16,3 C 57 % 1024,8 hPa 0,0 mm 0,9 km/h (0 Bft) W-NW 287 1 min 0,000 mm 0,6 UV-I 128 W/m 7,8 C 3,2 km/h (1 Bft)
16.07.2016 19:41 16,3 C 16,3 C 58 % 1024,8 hPa 0,0 mm 1,7 km/h (1 Bft) W-SW 252 1 min 0,000 mm 0,5 UV-I 127 W/m 8,0 C 3,2 km/h (1 Bft)
16.07.2016 19:42 16,3 C 16,3 C 59 % 1024,8 hPa 0,0 mm 1,6 km/h (1 Bft) W 273 1 min 0,000 mm 0,5 UV-I 123 W/m 8,3 C 3,2 km/h (1 Bft)
16.07.2016 19:43 16,2 C 16,3 C 60 % 1024,8 hPa 0,0 mm 3,3 km/h (1 Bft) W-NW 298 1 min 0,000 mm 0,5 UV-I 121 W/m 8,4 C 4,8 km/h (1 Bft)
16.07.2016 19:44 16,2 C 16,2 C 60 % 1024,8 hPa 0,0 mm 0,7 km/h (0 Bft) W-NW 298 1 min 0,000 mm 0,5 UV-I 120 W/m 8,4 C 1,6 km/h (1 Bft)
16.07.2016 19:45 16,2 C 16,2 C 60 % 1024,8 hPa 0,0 mm 1,4 km/h (1 Bft) W-NW 298 0 min 0,000 mm 0,5 UV-I 109 W/m 8,4 C 3,2 km/h (1 Bft)
16.07.2016 19:46 16,2 C 16,2 C 59 % 1024,8 hPa 0,0 mm 1,7 km/h (1 Bft) W 277 0 min 0,000 mm 0,5 UV-I 109 W/m 8,2 C 3,2 km/h (1 Bft)
16.07.2016 19:47 16,2 C 16,2 C 63 % 1024,9 hPa 0,0 mm 1,5 km/h (1 Bft) W 277 1 min 0,000 mm 0,5 UV-I 113 W/m 9,1 C 3,2 km/h (1 Bft)
16.07.2016 19:48 16,1 C 16,2 C 63 % 1024,9 hPa 0,0 mm 3,2 km/h (1 Bft) W-SW 252 1 min 0,000 mm 0,5 UV-I 107 W/m 9,1 C 4,8 km/h (1 Bft)
16.07.2016 19:49 16,1 C 16,1 C 61 % 1024,8 hPa 0,0 mm 2,9 km/h (1 Bft) W 271 0 min 0,000 mm 0,5 UV-I 104 W/m 8,6 C 4,8 km/h (1 Bft)
16.07.2016 19:50 16,1 C 16,1 C 60 % 1024,8 hPa 0,0 mm 1,5 km/h (1 Bft) W 270 0 min 0,000 mm 0,5 UV-I 102 W/m 8,3 C 3,2 km/h (1 Bft)
16.07.2016 19:51 16,1 C 16,1 C 60 % 1024,9 hPa 0,0 mm 3,6 km/h (1 Bft) W-SW 244 0 min 0,000 mm 0,5 UV-I 98 W/m 8,3 C 6,4 km/h (2 Bft)
16.07.2016 19:52 15,9 C 16,1 C 63 % 1024,9 hPa 0,0 mm 3,3 km/h (1 Bft) W-NW 286 0 min 0,000 mm 0,0 UV-I 97 W/m 8,9 C 6,4 km/h (2 Bft)
16.07.2016 19:53 15,9 C 15,9 C 63 % 1024,9 hPa 0,0 mm 2,8 km/h (1 Bft) SW 235 0 min 0,000 mm 0,0 UV-I 95 W/m 8,9 C 4,8 km/h (1 Bft)
16.07.2016 19:54 15,9 C 15,9 C 63 % 1024,8 hPa 0,0 mm 3,9 km/h (1 Bft) W-SW 247 0 min 0,000 mm 0,0 UV-I 90 W/m 8,9 C 6,4 km/h (2 Bft)
16.07.2016 19:55 15,8 C 15,9 C 66 % 1024,8 hPa 0,0 mm 3,6 km/h (1 Bft) W 270 0 min 0,000 mm 0,0 UV-I 88 W/m 9,5 C 6,4 km/h (2 Bft)
16.07.2016 19:56 15,7 C 15,8 C 62 % 1024,8 hPa 0,0 mm 1,4 km/h (1 Bft) W 270 0 min 0,000 mm 0,0 UV-I 84 W/m 8,4 C 3,2 km/h (1 Bft)
16.07.2016 19:57 15,7 C 15,7 C 62 % 1024,8 hPa 0,0 mm 1,7 km/h (1 Bft) W 270 0 min 0,000 mm 0,0 UV-I 83 W/m 8,4 C 3,2 km/h (1 Bft)
16.07.2016 19:58 15,7 C 15,7 C 62 % 1024,9 hPa 0,0 mm 2,7 km/h (1 Bft) W-SW 248 0 min 0,000 mm 0,0 UV-I 81 W/m 8,4 C 4,8 km/h (1 Bft)
16.07.2016 19:59 15,7 C 15,7 C 61 % 1024,8 hPa 0,0 mm 3,5 km/h (1 Bft) W-NW 303 0 min 0,000 mm 0,0 UV-I 79 W/m 8,2 C 4,8 km/h (1 Bft)
16.07.2016 20:00 15,7 C 15,7 C 61 % 1024,9 hPa 0,0 mm 2,5 km/h (1 Bft) W 259 0 min 0,000 mm 0,0 UV-I 76 W/m 8,2 C 4,8 km/h (1 Bft)
16.07.2016 20:01 15,7 C 15,7 C 62 % 1024,8 hPa 0,0 mm 2,3 km/h (1 Bft) W-NW 288 0 min 0,076 mm 0,0 UV-I 74 W/m 8,4 C 3,2 km/h (1 Bft)
16.07.2016 20:02 15,7 C 15,7 C 61 % 1024,9 hPa 0,0 mm 0,6 km/h (0 Bft) W-NW 288 0 min 0,000 mm 0,0 UV-I 74 W/m 8,2 C 1,6 km/h (1 Bft)
16.07.2016 20:03 15,6 C 15,7 C 61 % 1024,8 hPa 0,0 mm 1,1 km/h (1 Bft) W-NW 288 0 min 0,000 mm 0,0 UV-I 72 W/m 8,1 C 3,2 km/h (1 Bft)
16.07.2016 20:04 15,6 C 15,6 C 62 % 1024,9 hPa 0,0 mm 1,0 km/h (0 Bft) W-NW 288 0 min 0,000 mm 0,0 UV-I 70 W/m 8,3 C 1,6 km/h (1 Bft)
16.07.2016 20:05 15,6 C 15,6 C 62 % 1024,9 hPa 0,0 mm 0,4 km/h (0 Bft) W-NW 288 0 min 0,000 mm 0,0 UV-I 69 W/m 8,3 C 1,6 km/h (1 Bft)
16.07.2016 20:06 15,6 C 15,6 C 62 % 1024,9 hPa 0,0 mm 1,0 km/h (0 Bft) W-NW 288 0 min 0,000 mm 0,0 UV-I 65 W/m 8,3 C 3,2 km/h (1 Bft)
16.07.2016 20:07 15,6 C 15,6 C 62 % 1024,9 hPa 0,0 mm 1,6 km/h (1 Bft) W-NW 288 0 min 0,000 mm 0,0 UV-I 63 W/m 8,3 C 3,2 km/h (1 Bft)
16.07.2016 20:08 15,5 C 15,6 C 64 % 1024,9 hPa 0,0 mm 0,8 km/h (0 Bft) W-NW 288 0 min 0,000 mm 0,0 UV-I 62 W/m 8,7 C 1,6 km/h (1 Bft)
16.07.2016 20:09 15,4 C 15,5 C 64 % 1024,9 hPa 0,0 mm 1,6 km/h (1 Bft) W-NW 284 0 min 0,000 mm 0,0 UV-I 60 W/m 8,6 C 3,2 km/h (1 Bft)
16.07.2016 20:10 15,4 C 15,4 C 64 % 1024,9 hPa 0,0 mm 1,8 km/h (1 Bft) W-NW 283 0 min 0,000 mm 0,0 UV-I 58 W/m 8,6 C 3,2 km/h (1 Bft)
16.07.2016 20:11 15,3 C 15,4 C 63 % 1024,9 hPa 0,0 mm 2,0 km/h (1 Bft) W 269 0 min 0,000 mm 0,0 UV-I 54 W/m 8,3 C 3,2 km/h (1 Bft)
16.07.2016 20:12 15,3 C 15,3 C 65 % 1024,9 hPa 0,0 mm 0,1 km/h (0 Bft) W 269 0 min 0,000 mm 0,0 UV-I 53 W/m 8,8 C 1,6 km/h (1 Bft)
16.07.2016 20:13 15,3 C 15,3 C 63 % 1024,9 hPa 0,0 mm 0,1 km/h (0 Bft) W 269 0 min 0,000 mm 0,0 UV-I 51 W/m 8,3 C 1,6 km/h (1 Bft)
16.07.2016 20:14 15,2 C 15,3 C 64 % 1024,9 hPa 0,0 mm 1,5 km/h (1 Bft) W 270 0 min 0,000 mm 0,0 UV-I 49 W/m 8,4 C 3,2 km/h (1 Bft)
16.07.2016 20:15 15,2 C 15,2 C 66 % 1024,9 hPa 0,0 mm 0,3 km/h (0 Bft) W 270 0 min 0,000 mm 0,0 UV-I 47 W/m 8,9 C 1,6 km/h (1 Bft)
16.07.2016 20:16 15,1 C 15,2 C 68 % 1024,9 hPa 0,0 mm 0,1 km/h (0 Bft) W 270 0 min 0,000 mm 0,0 UV-I 46 W/m 9,2 C 1,6 km/h (1 Bft)
16.07.2016 20:17 15,0 C 15,1 C 68 % 1024,9 hPa 0,0 mm 1,0 km/h (0 Bft) W 270 0 min 0,000 mm 0,0 UV-I 44 W/m 9,1 C 1,6 km/h (1 Bft)
16.07.2016 20:18 14,9 C 15,0 C 68 % 1024,9 hPa 0,0 mm 0,4 km/h (0 Bft) W 270 0 min 0,000 mm 0,0 UV-I 42 W/m 9,0 C 1,6 km/h (1 Bft)
16.07.2016 20:19 14,8 C 14,9 C 68 % 1024,9 hPa 0,0 mm 1,5 km/h (1 Bft) W-SW 246 0 min 0,000 mm 0,0 UV-I 40 W/m 9,0 C 1,6 km/h (1 Bft)
16.07.2016 20:20 14,7 C 14,8 C 71 % 1024,9 hPa 0,0 mm 0,9 km/h (0 Bft) S-SW 212 0 min 0,000 mm 0,0 UV-I 40 W/m 9,5 C 1,6 km/h (1 Bft)
16.07.2016 20:21 14,6 C 14,7 C 71 % 1024,9 hPa 0,0 mm 0,2 km/h (0 Bft) S-SW 212 0 min 0,000 mm 0,0 UV-I 39 W/m 9,4 C 1,6 km/h (1 Bft)
16.07.2016 20:22 14,5 C 14,6 C 72 % 1024,9 hPa 0,0 mm 0,9 km/h (0 Bft) S-SW 212 0 min 0,000 mm 0,0 UV-I 37 W/m 9,5 C 1,6 km/h (1 Bft)
16.07.2016 20:23 14,4 C 14,5 C 71 % 1024,9 hPa 0,0 mm 1,3 km/h (1 Bft) S-SW 212 0 min 0,000 mm 0,0 UV-I 35 W/m 9,2 C 3,2 km/h (1 Bft)
16.07.2016 20:24 14,4 C 14,4 C 74 % 1024,9 hPa 0,0 mm 1,1 km/h (1 Bft) S-SW 212 0 min 0,000 mm 0,0 UV-I 35 W/m 9,8 C 1,6 km/h (1 Bft)
16.07.2016 20:25 14,3 C 14,4 C 71 % 1024,9 hPa 0,0 mm 0,9 km/h (0 Bft) S-SW 212 0 min 0,000 mm 0,0 UV-I 35 W/m 9,1 C 1,6 km/h (1 Bft)
16.07.2016 20:26 14,3 C 14,3 C 73 % 1024,9 hPa 0,0 mm 1,1 km/h (1 Bft) S-SW 209 0 min 0,000 mm 0,0 UV-I 33 W/m 9,5 C 3,2 km/h (1 Bft)
16.07.2016 20:27 14,3 C 14,3 C 72 % 1024,9 hPa 0,0 mm 0,7 km/h (0 Bft) S-SW 209 0 min 0,000 mm 0,0 UV-I 33 W/m 9,3 C 1,6 km/h (1 Bft)
16.07.2016 20:28 14,3 C 14,3 C 72 % 1024,9 hPa 0,0 mm 0,9 km/h (0 Bft) S-SW 209 0 min 0,000 mm 0,0 UV-I 33 W/m 9,3 C 1,6 km/h (1 Bft)
16.07.2016 20:29 14,2 C 14,3 C 72 % 1024,9 hPa 0,0 mm 1,5 km/h (1 Bft) S-SW 209 0 min 0,000 mm 0,0 UV-I 32 W/m 9,2 C 1,6 km/h (1 Bft)
16.07.2016 20:30 14,2 C 14,2 C 73 % 1024,9 hPa 0,0 mm 0,3 km/h (0 Bft) S-SW 209 0 min 0,000 mm 0,0 UV-I 32 W/m 9,4 C 1,6 km/h (1 Bft)
16.07.2016 20:31 14,2 C 14,2 C 72 % 1024,9 hPa 0,0 mm 1,2 km/h (1 Bft) S-SW 209 0 min 0,000 mm 0,0 UV-I 30 W/m 9,2 C 3,2 km/h (1 Bft)
16.07.2016 20:32 14,1 C 14,2 C 72 % 1025,0 hPa 0,0 mm 1,5 km/h (1 Bft) S-SW 202 0 min 0,000 mm 0,0 UV-I 28 W/m 9,1 C 3,2 km/h (1 Bft)
16.07.2016 20:33 14,1 C 14,1 C 74 % 1025,0 hPa 0,0 mm 1,4 km/h (1 Bft) S-SW 202 0 min 0,000 mm 0,0 UV-I 28 W/m 9,5 C 3,2 km/h (1 Bft)
16.07.2016 20:34 14,0 C 14,1 C 74 % 1025,0 hPa 0,0 mm 1,5 km/h (1 Bft) S-SW 202 0 min 0,000 mm 0,0 UV-I 26 W/m 9,4 C 1,6 km/h (1 Bft)
16.07.2016 20:35 13,8 C 14,0 C 75 % 1025,0 hPa 0,0 mm 1,2 km/h (1 Bft) S-SW 202 0 min 0,000 mm 0,0 UV-I 25 W/m 9,4 C 1,6 km/h (1 Bft)
16.07.2016 20:36 13,8 C 13,8 C 73 % 1024,9 hPa 0,0 mm 1,9 km/h (1 Bft) S-SW 202 0 min 0,000 mm 0,0 UV-I 23 W/m 9,0 C 3,2 km/h (1 Bft)
16.07.2016 20:37 13,7 C 13,8 C 74 % 1025,0 hPa 0,0 mm 2,0 km/h (1 Bft) S-SW 202 0 min 0,000 mm 0,0 UV-I 23 W/m 9,2 C 3,2 km/h (1 Bft)
16.07.2016 20:38 13,7 C 13,7 C 74 % 1024,9 hPa 0,0 mm 0,8 km/h (0 Bft) S-SW 202 0 min 0,000 mm 0,0 UV-I 21 W/m 9,2 C 1,6 km/h (1 Bft)
16.07.2016 20:39 13,7 C 13,7 C 74 % 1024,9 hPa 0,0 mm 1,7 km/h (1 Bft) S-SW 202 0 min 0,000 mm 0,0 UV-I 21 W/m 9,2 C 3,2 km/h (1 Bft)
16.07.2016 20:40 13,7 C 13,7 C 74 % 1024,9 hPa 0,0 mm 2,0 km/h (1 Bft) S-SW 202 0 min 0,000 mm 0,0 UV-I 21 W/m 9,2 C 3,2 km/h (1 Bft)
16.07.2016 20:41 13,7 C 13,7 C 73 % 1025,0 hPa 0,0 mm 1,4 km/h (1 Bft) S-SW 202 0 min 0,000 mm 0,0 UV-I 19 W/m 8,9 C 1,6 km/h (1 Bft)
16.07.2016 20:42 13,6 C 13,7 C 74 % 1024,9 hPa 0,0 mm 2,0 km/h (1 Bft) S-SW 201 0 min 0,000 mm 0,0 UV-I 18 W/m 9,1 C 3,2 km/h (1 Bft)
16.07.2016 20:43 13,6 C 13,6 C 75 % 1024,9 hPa 0,0 mm 2,1 km/h (1 Bft) S-SW 201 0 min 0,000 mm 0,0 UV-I 18 W/m 9,3 C 4,8 km/h (1 Bft)
16.07.2016 20:44 13,4 C 13,6 C 76 % 1024,9 hPa 0,0 mm 2,2 km/h (1 Bft) S 187 0 min 0,000 mm 0,0 UV-I 18 W/m 9,3 C 4,8 km/h (1 Bft)
16.07.2016 20:45 13,4 C 13,4 C 76 % 1024,9 hPa 0,0 mm 2,7 km/h (1 Bft) S 186 0 min 0,000 mm 0,0 UV-I 16 W/m 9,3 C 3,2 km/h (1 Bft)
16.07.2016 20:46 13,3 C 13,4 C 76 % 1024,9 hPa 0,0 mm 2,1 km/h (1 Bft) S 183 0 min 0,000 mm 0,0 UV-I 16 W/m 9,2 C 3,2 km/h (1 Bft)
16.07.2016 20:47 13,3 C 13,3 C 76 % 1024,9 hPa 0,0 mm 2,9 km/h (1 Bft) S 178 0 min 0,000 mm 0,0 UV-I 14 W/m 9,2 C 4,8 km/h (1 Bft)
16.07.2016 20:48 13,2 C 13,3 C 76 % 1024,9 hPa 0,0 mm 3,2 km/h (1 Bft) S 178 0 min 0,000 mm 0,0 UV-I 14 W/m 9,1 C 4,8 km/h (1 Bft)
16.07.2016 20:49 13,0 C 13,2 C 78 % 1024,9 hPa 0,0 mm 2,4 km/h (1 Bft) S 179 0 min 0,000 mm 0,0 UV-I 14 W/m 9,3 C 3,2 km/h (1 Bft)
16.07.2016 20:50 12,9 C 13,0 C 78 % 1024,9 hPa 0,0 mm 3,4 km/h (1 Bft) S 178 0 min 0,000 mm 0,0 UV-I 14 W/m 9,2 C 4,8 km/h (1 Bft)
16.07.2016 20:51 12,8 C 12,9 C 78 % 1024,9 hPa 0,0 mm 3,3 km/h (1 Bft) S 178 0 min 0,000 mm 0,0 UV-I 14 W/m 9,1 C 4,8 km/h (1 Bft)
16.07.2016 20:52 12,7 C 12,8 C 79 % 1024,9 hPa 0,0 mm 3,5 km/h (1 Bft) S 178 0 min 0,000 mm 0,0 UV-I 12 W/m 9,2 C 4,8 km/h (1 Bft)
16.07.2016 20:53 12,6 C 12,7 C 79 % 1024,9 hPa 0,0 mm 3,3 km/h (1 Bft) S 178 0 min 0,000 mm 0,0 UV-I 12 W/m 9,1 C 4,8 km/h (1 Bft)
16.07.2016 20:54 12,6 C 12,6 C 79 % 1024,9 hPa 0,0 mm 3,2 km/h (1 Bft) S 178 0 min 0,000 mm 0,0 UV-I 12 W/m 9,1 C 4,8 km/h (1 Bft)
16.07.2016 20:55 12,5 C 12,6 C 80 % 1024,9 hPa 0,0 mm 3,4 km/h (1 Bft) S 178 1 min 0,000 mm 0,0 UV-I 11 W/m 9,1 C 4,8 km/h (1 Bft)
16.07.2016 20:56 12,4 C 12,5 C 80 % 1024,9 hPa 0,0 mm 2,9 km/h (1 Bft) S 178 1 min 0,000 mm 0,0 UV-I 11 W/m 9,0 C 3,2 km/h (1 Bft)
16.07.2016 20:57 12,3 C 12,4 C 81 % 1024,9 hPa 0,0 mm 2,7 km/h (1 Bft) S 178 1 min 0,000 mm 0,0 UV-I 11 W/m 9,1 C 3,2 km/h (1 Bft)
16.07.2016 20:58 12,2 C 12,3 C 81 % 1024,9 hPa 0,0 mm 3,4 km/h (1 Bft) S 178 0 min 0,000 mm 0,0 UV-I 9 W/m 9,0 C 4,8 km/h (1 Bft)
16.07.2016 20:59 12,1 C 12,2 C 81 % 1024,9 hPa 0,0 mm 3,2 km/h (1 Bft) S 178 0 min 0,000 mm 0,0 UV-I 9 W/m 8,9 C 4,8 km/h (1 Bft)
16.07.2016 21:00 12,1 C 12,1 C 82 % 1024,9 hPa 0,0 mm 3,2 km/h (1 Bft) S 178 0 min 0,000 mm 0,0 UV-I 9 W/m 9,1 C 4,8 km/h (1 Bft)
16.07.2016 21:01 12,1 C 12,1 C 81 % 1024,9 hPa 0,0 mm 3,2 km/h (1 Bft) S 178 0 min 0,025 mm 0,0 UV-I 9 W/m 8,9 C 4,8 km/h (1 Bft)
16.07.2016 21:02 12,1 C 12,1 C 82 % 1024,9 hPa 0,0 mm 2,9 km/h (1 Bft) S 178 0 min 0,001 mm 0,0 UV-I 7 W/m 9,1 C 3,2 km/h (1 Bft)
16.07.2016 21:03 11,9 C 12,1 C 82 % 1024,9 hPa 0,0 mm 2,4 km/h (1 Bft) S 178 0 min 0,000 mm 0,0 UV-I 7 W/m 8,9 C 3,2 km/h (1 Bft)
16.07.2016 21:04 11,9 C 11,9 C 82 % 1024,9 hPa 0,0 mm 2,2 km/h (1 Bft) S 178 0 min 0,000 mm 0,0 UV-I 7 W/m 8,9 C 3,2 km/h (1 Bft)
16.07.2016 21:05 11,9 C 11,9 C 82 % 1024,9 hPa 0,0 mm 1,9 km/h (1 Bft) S 178 0 min 0,000 mm 0,0 UV-I 5 W/m 8,9 C 3,2 km/h (1 Bft)
16.07.2016 21:06 11,8 C 11,9 C 83 % 1024,9 hPa 0,0 mm 1,7 km/h (1 Bft) S 178 0 min 0,000 mm 0,0 UV-I 5 W/m 9,0 C 3,2 km/h (1 Bft)
16.07.2016 21:07 11,8 C 11,9 C 84 % 1024,9 hPa 0,0 mm 1,5 km/h (1 Bft) S 178 0 min 0,000 mm 0,0 UV-I 5 W/m 9,2 C 3,2 km/h (1 Bft)
16.07.2016 21:08 11,8 C 11,8 C 83 % 1024,9 hPa 0,0 mm 1,7 km/h (1 Bft) S 178 0 min 0,000 mm 0,0 UV-I 5 W/m 9,0 C 3,2 km/h (1 Bft)
16.07.2016 21:09 11,8 C 11,8 C 84 % 1024,9 hPa 0,0 mm 2,1 km/h (1 Bft) S 178 0 min 0,000 mm 0,0 UV-I 5 W/m 9,2 C 3,2 km/h (1 Bft)
16.07.2016 21:10 11,8 C 11,8 C 84 % 1024,9 hPa 0,0 mm 2,1 km/h (1 Bft) S 178 0 min 0,000 mm 0,0 UV-I 5 W/m 9,2 C 4,8 km/h (1 Bft)
16.07.2016 21:11 11,8 C 11,8 C 84 % 1024,9 hPa 0,0 mm 2,0 km/h (1 Bft) S 178 0 min 0,000 mm 0,0 UV-I 0 W/m 9,2 C 3,2 km/h (1 Bft)
16.07.2016 21:12 11,7 C 11,8 C 84 % 1025,0 hPa 0,0 mm 2,2 km/h (1 Bft) S 178 0 min 0,000 mm 0,0 UV-I 0 W/m 9,1 C 3,2 km/h (1 Bft)
16.07.2016 21:13 11,8 C 11,8 C 81 % 1025,0 hPa 0,0 mm 1,7 km/h (1 Bft) S 178 0 min 0,000 mm 0,0 UV-I 0 W/m 8,6 C 3,2 km/h (1 Bft)
16.07.2016 21:14 11,8 C 11,8 C 81 % 1025,1 hPa 0,0 mm 2,2 km/h (1 Bft) S 187 0 min 0,000 mm 0,0 UV-I 0 W/m 8,6 C 4,8 km/h (1 Bft)
16.07.2016 21:15 11,8 C 11,9 C 81 % 1025,0 hPa 0,0 mm 1,7 km/h (1 Bft) S 186 0 min 0,000 mm 0,0 UV-I 0 W/m 8,6 C 3,2 km/h (1 Bft)
16.07.2016 21:16 11,9 C 11,9 C 82 % 1025,0 hPa 0,0 mm 2,2 km/h (1 Bft) S 184 0 min 0,000 mm 0,0 UV-I 0 W/m 8,9 C 3,2 km/h (1 Bft)
16.07.2016 21:17 11,9 C 11,9 C 82 % 1025,0 hPa 0,0 mm 2,9 km/h (1 Bft) S 178 0 min 0,000 mm 0,0 UV-I 0 W/m 8,9 C 4,8 km/h (1 Bft)
16.07.2016 21:18 11,9 C 11,9 C 81 % 1025,0 hPa 0,0 mm 1,9 km/h (1 Bft) S 178 0 min 0,000 mm 0,0 UV-I 0 W/m 8,7 C 3,2 km/h (1 Bft)
16.07.2016 21:19 11,8 C 11,9 C 82 % 1025,0 hPa 0,0 mm 3,3 km/h (1 Bft) S 179 0 min 0,000 mm 0,0 UV-I 0 W/m 8,8 C 4,8 km/h (1 Bft)
16.07.2016 21:20 11,7 C 11,8 C 82 % 1025,0 hPa 0,0 mm 3,0 km/h (1 Bft) S 179 0 min 0,000 mm 0,0 UV-I 0 W/m 8,7 C 4,8 km/h (1 Bft)
16.07.2016 21:21 11,7 C 11,8 C 82 % 1025,0 hPa 0,0 mm 3,1 km/h (1 Bft) S 178 0 min 0,000 mm 0,0 UV-I 0 W/m 8,7 C 4,8 km/h (1 Bft)
16.07.2016 21:22 11,6 C 11,7 C 83 % 1025,1 hPa 0,0 mm 2,1 km/h (1 Bft) S 178 0 min 0,000 mm 0,0 UV-I 0 W/m 8,8 C 3,2 km/h (1 Bft)
16.07.2016 21:23 11,5 C 11,6 C 83 % 1025,0 hPa 0,0 mm 2,7 km/h (1 Bft) S 178 0 min 0,000 mm 0,0 UV-I 0 W/m 8,7 C 3,2 km/h (1 Bft)
16.07.2016 21:24 11,4 C 11,5 C 84 % 1025,0 hPa 0,0 mm 2,4 km/h (1 Bft) S 178 0 min 0,000 mm 0,0 UV-I 0 W/m 8,8 C 3,2 km/h (1 Bft)
16.07.2016 21:25 11,4 C 11,4 C 84 % 1025,0 hPa 0,0 mm 1,7 km/h (1 Bft) S 178 0 min 0,000 mm 0,0 UV-I 0 W/m 8,8 C 3,2 km/h (1 Bft)
16.07.2016 21:26 11,3 C 11,4 C 84 % 1025,0 hPa 0,0 mm 2,2 km/h (1 Bft) S 178 0 min 0,000 mm 0,0 UV-I 0 W/m 8,7 C 3,2 km/h (1 Bft)
16.07.2016 21:27 11,2 C 11,3 C 84 % 1025,0 hPa 0,0 mm 2,0 km/h (1 Bft) S 178 0 min 0,000 mm 0,0 UV-I 0 W/m 8,6 C 3,2 km/h (1 Bft)
16.07.2016 21:28 11,1 C 11,2 C 85 % 1025,1 hPa 0,0 mm 1,7 km/h (1 Bft) S 178 0 min 0,000 mm 0,0 UV-I 0 W/m 8,7 C 3,2 km/h (1 Bft)
16.07.2016 21:29 11,1 C 11,1 C 85 % 1025,1 hPa 0,0 mm 1,8 km/h (1 Bft) S 178 0 min 0,000 mm 0,0 UV-I 0 W/m 8,7 C 3,2 km/h (1 Bft)
16.07.2016 21:30 11,0 C 11,1 C 85 % 1025,1 hPa 0,0 mm 1,6 km/h (1 Bft) S 178 0 min 0,000 mm 0,0 UV-I 0 W/m 8,6 C 3,2 km/h (1 Bft)
16.07.2016 21:31 10,9 C 11,0 C 85 % 1025,1 hPa 0,0 mm 1,7 km/h (1 Bft) S 178 0 min 0,000 mm 0,0 UV-I 0 W/m 8,5 C 3,2 km/h (1 Bft)
16.07.2016 21:32 10,9 C 10,9 C 85 % 1025,1 hPa 0,0 mm 1,9 km/h (1 Bft) S 178 0 min 0,000 mm 0,0 UV-I 0 W/m 8,5 C 3,2 km/h (1 Bft)
16.07.2016 21:33 10,8 C 10,9 C 86 % 1025,1 hPa 0,0 mm 0,9 km/h (0 Bft) S 178 0 min 0,000 mm 0,0 UV-I 0 W/m 8,6 C 1,6 km/h (1 Bft)
16.07.2016 21:34 10,8 C 10,8 C 86 % 1025,2 hPa 0,0 mm 1,4 km/h (1 Bft) S 178 0 min 0,000 mm 0,0 UV-I 0 W/m 8,6 C 3,2 km/h (1 Bft)
16.07.2016 21:35 10,8 C 10,8 C 86 % 1025,2 hPa 0,0 mm 1,3 km/h (1 Bft) S 178 0 min 0,000 mm 0,0 UV-I 0 W/m 8,6 C 1,6 km/h (1 Bft)
16.07.2016 21:36 10,7 C 10,8 C 86 % 1025,2 hPa 0,0 mm 1,6 km/h (1 Bft) S 178 0 min 0,000 mm 0,0 UV-I 0 W/m 8,5 C 3,2 km/h (1 Bft)
16.07.2016 21:37 10,8 C 10,8 C 86 % 1025,2 hPa 0,0 mm 1,0 km/h (0 Bft) S 178 0 min 0,000 mm 0,0 UV-I 0 W/m 8,6 C 1,6 km/h (1 Bft)
16.07.2016 21:38 10,8 C 10,8 C 86 % 1025,2 hPa 0,0 mm 1,0 km/h (0 Bft) S 178 0 min 0,000 mm 0,0 UV-I 0 W/m 8,6 C 3,2 km/h (1 Bft)
16.07.2016 21:39 10,8 C 10,8 C 86 % 1025,2 hPa 0,0 mm 1,0 km/h (0 Bft) S 178 0 min 0,000 mm 0,0 UV-I 0 W/m 8,6 C 1,6 km/h (1 Bft)
16.07.2016 21:40 10,8 C 10,8 C 87 % 1025,2 hPa 0,0 mm 1,4 km/h (1 Bft) S 178 0 min 0,000 mm 0,0 UV-I 0 W/m 8,7 C 3,2 km/h (1 Bft)
16.07.2016 21:41 10,8 C 10,8 C 87 % 1025,2 hPa 0,0 mm 1,5 km/h (1 Bft) S 178 0 min 0,000 mm 0,0 UV-I 0 W/m 8,7 C 3,2 km/h (1 Bft)
16.07.2016 21:42 10,8 C 10,8 C 86 % 1025,1 hPa 0,0 mm 2,7 km/h (1 Bft) S-SO 162 0 min 0,000 mm 0,0 UV-I 0 W/m 8,6 C 6,4 km/h (2 Bft)
16.07.2016 21:43 10,8 C 10,9 C 87 % 1025,2 hPa 0,0 mm 2,5 km/h (1 Bft) S-SO 162 0 min 0,000 mm 0,0 UV-I 0 W/m 8,7 C 3,2 km/h (1 Bft)
16.07.2016 21:44 10,9 C 10,9 C 87 % 1025,2 hPa 0,0 mm 2,6 km/h (1 Bft) S-SO 162 0 min 0,000 mm 0,0 UV-I 0 W/m 8,8 C 3,2 km/h (1 Bft)
16.07.2016 21:45 10,8 C 10,9 C 87 % 1025,2 hPa 0,0 mm 2,6 km/h (1 Bft) S-SO 161 0 min 0,000 mm 0,0 UV-I 0 W/m 8,7 C 3,2 km/h (1 Bft)
16.07.2016 21:46 10,9 C 10,9 C 88 % 1025,2 hPa 0,0 mm 3,4 km/h (1 Bft) S-SO 157 0 min 0,000 mm 0,0 UV-I 0 W/m 9,0 C 4,8 km/h (1 Bft)
16.07.2016 21:47 10,9 C 10,9 C 87 % 1025,2 hPa 0,0 mm 3,3 km/h (1 Bft) S-SO 153 0 min 0,000 mm 0,0 UV-I 0 W/m 8,8 C 4,8 km/h (1 Bft)
16.07.2016 21:48 10,9 C 10,9 C 87 % 1025,2 hPa 0,0 mm 3,6 km/h (1 Bft) SO 136 0 min 0,000 mm 0,0 UV-I 0 W/m 8,8 C 4,8 km/h (1 Bft)
16.07.2016 21:49 10,9 C 10,9 C 87 % 1025,2 hPa 0,0 mm 4,3 km/h (1 Bft) SO 131 0 min 0,000 mm 0,0 UV-I 0 W/m 8,8 C 6,4 km/h (2 Bft)
16.07.2016 21:50 10,9 C 10,9 C 87 % 1025,2 hPa 0,0 mm 4,6 km/h (1 Bft) SO 131 0 min 0,000 mm 0,0 UV-I 0 W/m 8,8 C 6,4 km/h (2 Bft)
16.07.2016 21:51 10,9 C 10,9 C 87 % 1025,2 hPa 0,0 mm 4,4 km/h (1 Bft) SO 131 0 min 0,000 mm 0,0 UV-I 0 W/m 8,8 C 4,8 km/h (1 Bft)
16.07.2016 21:52 10,8 C 10,9 C 87 % 1025,2 hPa 0,0 mm 3,4 km/h (1 Bft) SO 131 0 min 0,000 mm 0,0 UV-I 0 W/m 8,7 C 4,8 km/h (1 Bft)
16.07.2016 21:53 10,8 C 10,8 C 87 % 1025,2 hPa 0,0 mm 3,3 km/h (1 Bft) SO 131 0 min 0,000 mm 0,0 UV-I 0 W/m 8,7 C 4,8 km/h (1 Bft)
16.07.2016 21:54 10,7 C 10,8 C 88 % 1025,2 hPa 0,0 mm 3,1 km/h (1 Bft) SO 131 0 min 0,000 mm 0,0 UV-I 0 W/m 8,8 C 4,8 km/h (1 Bft)
16.07.2016 21:55 10,7 C 10,7 C 87 % 1025,2 hPa 0,0 mm 2,6 km/h (1 Bft) SO 129 0 min 0,000 mm 0,0 UV-I 0 W/m 8,6 C 4,8 km/h (1 Bft)
16.07.2016 21:56 10,6 C 10,7 C 86 % 1025,2 hPa 0,0 mm 1,7 km/h (1 Bft) SO 129 0 min 0,000 mm 0,0 UV-I 0 W/m 8,4 C 3,2 km/h (1 Bft)
16.07.2016 21:57 10,6 C 10,6 C 86 % 1025,2 hPa 0,0 mm 0,6 km/h (0 Bft) SO 129 0 min 0,000 mm 0,0 UV-I 0 W/m 8,4 C 1,6 km/h (1 Bft)
16.07.2016 21:58 10,5 C 10,6 C 86 % 1025,1 hPa 0,0 mm 0,9 km/h (0 Bft) SO 129 0 min 0,000 mm 0,0 UV-I 0 W/m 8,3 C 3,2 km/h (1 Bft)
16.07.2016 21:59 10,4 C 10,5 C 86 % 1025,2 hPa 0,0 mm 1,3 km/h (1 Bft) SO 129 0 min 0,000 mm 0,0 UV-I 0 W/m 8,2 C 3,2 km/h (1 Bft)
16.07.2016 22:00 10,4 C 10,4 C 86 % 1025,1 hPa 0,0 mm 0,9 km/h (0 Bft) SO 129 0 min 0,000 mm 0,0 UV-I 0 W/m 8,2 C 3,2 km/h (1 Bft)
16.07.2016 22:01 10,4 C 10,4 C 87 % 1025,1 hPa 0,0 mm 0,1 km/h (0 Bft) SO 129 0 min 0,000 mm 0,0 UV-I 0 W/m 8,3 C 1,6 km/h (1 Bft)
16.07.2016 22:02 10,4 C 10,4 C 86 % 1025,1 hPa 0,0 mm 0,2 km/h (0 Bft) SO 129 0 min 0,000 mm 0,0 UV-I 0 W/m 8,2 C 1,6 km/h (1 Bft)
16.07.2016 22:03 10,4 C 10,4 C 86 % 1025,2 hPa 0,0 mm 0,0 km/h (0 Bft) SO 129 0 min 0,000 mm 0,0 UV-I 0 W/m 8,2 C 0,0 km/h (0 Bft)
16.07.2016 22:04 10,4 C 10,4 C 86 % 1025,1 hPa 0,0 mm 0,0 km/h (0 Bft) SO 129 0 min 0,000 mm 0,0 UV-I 0 W/m 8,2 C 0,0 km/h (0 Bft)
16.07.2016 22:05 10,4 C 10,4 C 86 % 1025,1 hPa 0,0 mm 0,9 km/h (0 Bft) SO 129 0 min 0,000 mm 0,0 UV-I 0 W/m 8,2 C 3,2 km/h (1 Bft)
16.07.2016 22:06 10,6 C 10,6 C 85 % 1025,2 hPa 0,0 mm 0,9 km/h (0 Bft) SO 129 0 min 0,000 mm 0,0 UV-I 0 W/m 8,2 C 3,2 km/h (1 Bft)
16.07.2016 22:07 10,6 C 10,6 C 85 % 1025,1 hPa 0,0 mm 2,5 km/h (1 Bft) S-SW 192 0 min 0,000 mm 0,0 UV-I 0 W/m 8,2 C 6,4 km/h (2 Bft)
16.07.2016 22:08 10,7 C 10,7 C 85 % 1025,1 hPa 0,0 mm 2,0 km/h (1 Bft) S-SW 192 0 min 0,000 mm 0,0 UV-I 0 W/m 8,3 C 3,2 km/h (1 Bft)
16.07.2016 22:09 10,7 C 10,7 C 85 % 1025,1 hPa 0,0 mm 0,8 km/h (0 Bft) S-SW 192 0 min 0,000 mm 0,0 UV-I 0 W/m 8,3 C 1,6 km/h (1 Bft)
16.07.2016 22:10 10,8 C 10,8 C 85 % 1025,1 hPa 0,0 mm 1,9 km/h (1 Bft) S 190 0 min 0,000 mm 0,0 UV-I 0 W/m 8,4 C 3,2 km/h (1 Bft)
16.07.2016 22:11 10,7 C 10,8 C 85 % 1025,1 hPa 0,0 mm 1,4 km/h (1 Bft) S 190 0 min 0,000 mm 0,0 UV-I 0 W/m 8,3 C 3,2 km/h (1 Bft)
16.07.2016 22:12 10,7 C 10,8 C 85 % 1025,1 hPa 0,0 mm 0,6 km/h (0 Bft) S 190 0 min 0,000 mm 0,0 UV-I 0 W/m 8,3 C 1,6 km/h (1 Bft)
16.07.2016 22:13 10,7 C 10,8 C 85 % 1025,1 hPa 0,0 mm 0,5 km/h (0 Bft) S 190 0 min 0,000 mm 0,0 UV-I 0 W/m 8,3 C 1,6 km/h (1 Bft)
16.07.2016 22:14 10,7 C 10,7 C 85 % 1025,1 hPa 0,0 mm 1,3 km/h (1 Bft) S 190 0 min 0,000 mm 0,0 UV-I 0 W/m 8,3 C 3,2 km/h (1 Bft)
16.07.2016 22:15 10,8 C 10,8 C 84 % 1025,1 hPa 0,0 mm 0,7 km/h (0 Bft) S 190 0 min 0,000 mm 0,0 UV-I 0 W/m 8,2 C 1,6 km/h (1 Bft)
16.07.2016 22:16 10,8 C 10,8 C 85 % 1025,1 hPa 0,0 mm 1,3 km/h (1 Bft) S 190 0 min 0,000 mm 0,0 UV-I 0 W/m 8,4 C 3,2 km/h (1 Bft)
16.07.2016 22:17 10,7 C 10,8 C 86 % 1025,1 hPa 0,0 mm 0,3 km/h (0 Bft) S 190 0 min 0,000 mm 0,0 UV-I 0 W/m 8,5 C 1,6 km/h (1 Bft)
16.07.2016 22:18 10,8 C 10,8 C 84 % 1025,1 hPa 0,0 mm 0,7 km/h (0 Bft) S 190 0 min 0,000 mm 0,0 UV-I 0 W/m 8,2 C 3,2 km/h (1 Bft)
16.07.2016 22:19 10,8 C 10,8 C 84 % 1025,1 hPa 0,0 mm 1,9 km/h (1 Bft) S 190 0 min 0,000 mm 0,0 UV-I 0 W/m 8,2 C 3,2 km/h (1 Bft)
16.07.2016 22:20 10,8 C 10,8 C 84 % 1025,1 hPa 0,0 mm 0,6 km/h (0 Bft) S 190 0 min 0,000 mm 0,0 UV-I 0 W/m 8,2 C 1,6 km/h (1 Bft)
16.07.2016 22:21 10,8 C 10,8 C 84 % 1025,1 hPa 0,0 mm 1,5 km/h (1 Bft) S 190 0 min 0,000 mm 0,0 UV-I 0 W/m 8,2 C 3,2 km/h (1 Bft)
16.07.2016 22:22 10,8 C 10,8 C 84 % 1025,1 hPa 0,0 mm 2,1 km/h (1 Bft) S 190 0 min 0,000 mm 0,0 UV-I 0 W/m 8,2 C 3,2 km/h (1 Bft)
16.07.2016 22:23 10,8 C 10,8 C 84 % 1025,1 hPa 0,0 mm 2,0 km/h (1 Bft) S 190 0 min 0,000 mm 0,0 UV-I 0 W/m 8,2 C 3,2 km/h (1 Bft)
16.07.2016 22:24 10,8 C 10,8 C 85 % 1025,1 hPa 0,0 mm 1,3 km/h (1 Bft) S 190 0 min 0,000 mm 0,0 UV-I 0 W/m 8,4 C 3,2 km/h (1 Bft)
16.07.2016 22:25 10,8 C 10,8 C 85 % 1025,1 hPa 0,0 mm 0,0 km/h (0 Bft) S 190 0 min 0,000 mm 0,0 UV-I 0 W/m 8,4 C 0,0 km/h (0 Bft)
16.07.2016 22:26 10,7 C 10,8 C 85 % 1025,1 hPa 0,0 mm 0,0 km/h (0 Bft) S 190 0 min 0,000 mm 0,0 UV-I 0 W/m 8,3 C 0,0 km/h (0 Bft)
16.07.2016 22:27 10,7 C 10,7 C 85 % 1025,1 hPa 0,0 mm 0,1 km/h (0 Bft) S 190 0 min 0,000 mm 0,0 UV-I 0 W/m 8,3 C 1,6 km/h (1 Bft)
16.07.2016 22:28 10,6 C 10,7 C 85 % 1025,1 hPa 0,0 mm 0,1 km/h (0 Bft) S 190 0 min 0,000 mm 0,0 UV-I 0 W/m 8,2 C 1,6 km/h (1 Bft)
16.07.2016 22:29 10,6 C 10,6 C 86 % 1025,1 hPa 0,0 mm 0,0 km/h (0 Bft) S 190 0 min 0,000 mm 0,0 UV-I 0 W/m 8,4 C 0,0 km/h (0 Bft)
16.07.2016 22:30 10,6 C 10,6 C 85 % 1025,1 hPa 0,0 mm 0,1 km/h (0 Bft) S 190 0 min 0,000 mm 0,0 UV-I 0 W/m 8,2 C 1,6 km/h (1 Bft)
16.07.2016 22:31 10,5 C 10,6 C 85 % 1025,1 hPa 0,0 mm 0,7 km/h (0 Bft) S 190 0 min 0,000 mm 0,0 UV-I 0 W/m 8,1 C 3,2 km/h (1 Bft)
16.07.2016 22:32 10,4 C 10,5 C 86 % 1025,2 hPa 0,0 mm 0,3 km/h (0 Bft) S 190 0 min 0,000 mm 0,0 UV-I 0 W/m 8,2 C 1,6 km/h (1 Bft)
16.07.2016 22:33 10,4 C 10,4 C 86 % 1025,1 hPa 0,0 mm 0,2 km/h (0 Bft) S 190 0 min 0,000 mm 0,0 UV-I 0 W/m 8,2 C 1,6 km/h (1 Bft)
16.07.2016 22:34 10,4 C 10,4 C 86 % 1025,2 hPa 0,0 mm 1,1 km/h (1 Bft) S 190 0 min 0,000 mm 0,0 UV-I 0 W/m 8,2 C 3,2 km/h (1 Bft)
16.07.2016 22:35 10,4 C 10,4 C 86 % 1025,2 hPa 0,0 mm 0,3 km/h (0 Bft) S 190 0 min 0,000 mm 0,0 UV-I 0 W/m 8,2 C 1,6 km/h (1 Bft)
16.07.2016 22:36 10,4 C 10,4 C 85 % 1025,1 hPa 0,0 mm 0,9 km/h (0 Bft) S 190 0 min 0,000 mm 0,0 UV-I 0 W/m 8,0 C 1,6 km/h (1 Bft)
16.07.2016 22:37 10,4 C 10,4 C 86 % 1025,1 hPa 0,0 mm 0,6 km/h (0 Bft) S 190 0 min 0,000 mm 0,0 UV-I 0 W/m 8,2 C 1,6 km/h (1 Bft)
16.07.2016 22:38 10,4 C 10,4 C 85 % 1025,1 hPa 0,0 mm 0,0 km/h (0 Bft) S 190 0 min 0,000 mm 0,0 UV-I 0 W/m 8,0 C 0,0 km/h (0 Bft)
16.07.2016 22:39 10,4 C 10,4 C 86 % 1025,1 hPa 0,0 mm 0,0 km/h (0 Bft) S 190 0 min 0,000 mm 0,0 UV-I 0 W/m 8,2 C 0,0 km/h (0 Bft)
16.07.2016 22:40 10,4 C 10,4 C 85 % 1025,1 hPa 0,0 mm 0,0 km/h (0 Bft) S 190 0 min 0,000 mm 0,0 UV-I 0 W/m 8,0 C 0,0 km/h (0 Bft)
16.07.2016 22:41 10,4 C 10,4 C 85 % 1025,1 hPa 0,0 mm 0,0 km/h (0 Bft) S 190 0 min 0,000 mm 0,0 UV-I 0 W/m 8,0 C 0,0 km/h (0 Bft)
16.07.2016 22:42 10,4 C 10,4 C 85 % 1025,1 hPa 0,0 mm 0,0 km/h (0 Bft) S 190 0 min 0,000 mm 0,0 UV-I 0 W/m 8,0 C 0,0 km/h (0 Bft)
16.07.2016 22:43 10,4 C 10,5 C 85 % 1025,1 hPa 0,0 mm 0,0 km/h (0 Bft) S 190 0 min 0,000 mm 0,0 UV-I 0 W/m 8,0 C 0,0 km/h (0 Bft)
16.07.2016 22:44 10,4 C 10,4 C 85 % 1025,2 hPa 0,0 mm 0,0 km/h (0 Bft) S 190 0 min 0,000 mm 0,0 UV-I 0 W/m 8,0 C 0,0 km/h (0 Bft)
16.07.2016 22:45 10,4 C 10,4 C 86 % 1025,1 hPa 0,0 mm 0,0 km/h (0 Bft) S 190 0 min 0,000 mm 0,0 UV-I 0 W/m 8,2 C 0,0 km/h (0 Bft)
16.07.2016 22:46 10,3 C 10,4 C 86 % 1025,2 hPa 0,0 mm 0,0 km/h (0 Bft) S 190 0 min 0,000 mm 0,0 UV-I 0 W/m 8,1 C 0,0 km/h (0 Bft)
16.07.2016 22:47 10,3 C 10,3 C 85 % 1025,2 hPa 0,0 mm 0,0 km/h (0 Bft) S 190 0 min 0,000 mm 0,0 UV-I 0 W/m 7,9 C 0,0 km/h (0 Bft)
16.07.2016 22:48 10,3 C 10,3 C 86 % 1025,1 hPa 0,0 mm 0,0 km/h (0 Bft) S 190 0 min 0,000 mm 0,0 UV-I 0 W/m 8,1 C 0,0 km/h (0 Bft)
16.07.2016 22:49 10,2 C 10,3 C 86 % 1025,1 hPa 0,0 mm 0,0 km/h (0 Bft) S 190 0 min 0,000 mm 0,0 UV-I 0 W/m 8,0 C 0,0 km/h (0 Bft)
16.07.2016 22:50 10,2 C 10,2 C 86 % 1025,2 hPa 0,0 mm 0,0 km/h (0 Bft) S 190 0 min 0,000 mm 0,0 UV-I 0 W/m 8,0 C 0,0 km/h (0 Bft)
16.07.2016 22:51 10,2 C 10,2 C 86 % 1025,1 hPa 0,0 mm 0,0 km/h (0 Bft) S 190 0 min 0,000 mm 0,0 UV-I 0 W/m 8,0 C 0,0 km/h (0 Bft)
16.07.2016 22:52 10,2 C 10,2 C 86 % 1025,2 hPa 0,0 mm 0,0 km/h (0 Bft) S 190 0 min 0,000 mm 0,0 UV-I 0 W/m 8,0 C 0,0 km/h (0 Bft)
16.07.2016 22:53 10,2 C 10,2 C 85 % 1025,2 hPa 0,0 mm 0,0 km/h (0 Bft) S 190 0 min 0,000 mm 0,0 UV-I 0 W/m 7,8 C 0,0 km/h (0 Bft)
16.07.2016 22:54 10,2 C 10,2 C 86 % 1025,1 hPa 0,0 mm 0,0 km/h (0 Bft) S 190 0 min 0,000 mm 0,0 UV-I 0 W/m 8,0 C 0,0 km/h (0 Bft)
16.07.2016 22:55 10,2 C 10,2 C 86 % 1025,1 hPa 0,0 mm 0,0 km/h (0 Bft) S 190 0 min 0,000 mm 0,0 UV-I 0 W/m 8,0 C 0,0 km/h (0 Bft)
16.07.2016 22:56 10,2 C 10,2 C 85 % 1025,1 hPa 0,0 mm 0,0 km/h (0 Bft) S 190 0 min 0,000 mm 0,0 UV-I 0 W/m 7,8 C 0,0 km/h (0 Bft)
16.07.2016 22:57 10,2 C 10,2 C 86 % 1025,2 hPa 0,0 mm 0,0 km/h (0 Bft) S 190 0 min 0,000 mm 0,0 UV-I 0 W/m 8,0 C 0,0 km/h (0 Bft)
16.07.2016 22:58 10,2 C 10,2 C 85 % 1025,2 hPa 0,0 mm 0,0 km/h (0 Bft) S 190 0 min 0,000 mm 0,0 UV-I 0 W/m 7,8 C 0,0 km/h (0 Bft)
16.07.2016 22:59 10,2 C 10,2 C 86 % 1025,1 hPa 0,0 mm 0,0 km/h (0 Bft) S 190 0 min 0,000 mm 0,0 UV-I 0 W/m 8,0 C 0,0 km/h (0 Bft)
16.07.2016 23:00 10,2 C 10,2 C 86 % 1025,1 hPa 0,0 mm 0,0 km/h (0 Bft) S 190 0 min 0,000 mm 0,0 UV-I 0 W/m 8,0 C 0,0 km/h (0 Bft)
16.07.2016 23:01 10,2 C 10,2 C 86 % 1025,1 hPa 0,0 mm 0,0 km/h (0 Bft) S 190 0 min 0,000 mm 0,0 UV-I 0 W/m 8,0 C 0,0 km/h (0 Bft)
16.07.2016 23:02 10,1 C 10,2 C 86 % 1025,1 hPa 0,0 mm 0,0 km/h (0 Bft) S 190 0 min 0,000 mm 0,0 UV-I 0 W/m 7,9 C 0,0 km/h (0 Bft)
16.07.2016 23:03 10,2 C 10,2 C 86 % 1025,1 hPa 0,0 mm 0,0 km/h (0 Bft) S 190 0 min 0,000 mm 0,0 UV-I 0 W/m 8,0 C 0,0 km/h (0 Bft)
16.07.2016 23:04 10,1 C 10,2 C 86 % 1025,0 hPa 0,0 mm 0,0 km/h (0 Bft) S 190 0 min 0,000 mm 0,0 UV-I 0 W/m 7,9 C 0,0 km/h (0 Bft)
16.07.2016 23:05 10,1 C 10,1 C 86 % 1025,1 hPa 0,0 mm 0,0 km/h (0 Bft) S 190 0 min 0,000 mm 0,0 UV-I 0 W/m 7,9 C 0,0 km/h (0 Bft)
16.07.2016 23:06 10,1 C 10,1 C 88 % 1025,1 hPa 0,0 mm 0,0 km/h (0 Bft) S 190 0 min 0,000 mm 0,0 UV-I 0 W/m 8,2 C 0,0 km/h (0 Bft)
16.07.2016 23:07 10,1 C 10,1 C 87 % 1025,1 hPa 0,0 mm 0,0 km/h (0 Bft) S 190 0 min 0,000 mm 0,0 UV-I 0 W/m 8,0 C 0,0 km/h (0 Bft)
16.07.2016 23:08 10,1 C 10,1 C 87 % 1025,0 hPa 0,0 mm 0,0 km/h (0 Bft) S 190 0 min 0,000 mm 0,0 UV-I 0 W/m 8,0 C 0,0 km/h (0 Bft)
16.07.2016 23:09 10,1 C 10,1 C 87 % 1025,1 hPa 0,0 mm 0,0 km/h (0 Bft) S 190 0 min 0,000 mm 0,0 UV-I 0 W/m 8,0 C 0,0 km/h (0 Bft)
16.07.2016 23:10 10,1 C 10,1 C 86 % 1025,1 hPa 0,0 mm 0,0 km/h (0 Bft) S-SW 192 0 min 0,000 mm 0,0 UV-I 0 W/m 7,9 C 0,0 km/h (0 Bft)
16.07.2016 23:11 10,0 C 10,1 C 86 % 1025,1 hPa 0,0 mm 0,0 km/h (0 Bft) S-SW 192 0 min 0,000 mm 0,0 UV-I 0 W/m 7,8 C 0,0 km/h (0 Bft)
16.07.2016 23:12 10,0 C 10,1 C 86 % 1025,1 hPa 0,0 mm 0,0 km/h (0 Bft) S-SW 192 0 min 0,000 mm 0,0 UV-I 0 W/m 7,8 C 0,0 km/h (0 Bft)
16.07.2016 23:13 10,0 C 10,0 C 87 % 1025,0 hPa 0,0 mm 0,0 km/h (0 Bft) S-SW 192 0 min 0,000 mm 0,0 UV-I 0 W/m 7,9 C 0,0 km/h (0 Bft)
16.07.2016 23:14 9,9 C 10,0 C 87 % 1025,0 hPa 0,0 mm 0,0 km/h (0 Bft) S-SW 192 0 min 0,000 mm 0,0 UV-I 0 W/m 7,8 C 0,0 km/h (0 Bft)
16.07.2016 23:15 9,9 C 9,9 C 86 % 1025,0 hPa 0,0 mm 0,0 km/h (0 Bft) S-SW 192 0 min 0,000 mm 0,0 UV-I 0 W/m 7,7 C 0,0 km/h (0 Bft)
16.07.2016 23:16 9,9 C 9,9 C 87 % 1025,0 hPa 0,0 mm 0,0 km/h (0 Bft) S-SW 192 0 min 0,000 mm 0,0 UV-I 0 W/m 7,8 C 0,0 km/h (0 Bft)
16.07.2016 23:17 9,9 C 9,9 C 87 % 1025,1 hPa 0,0 mm 0,0 km/h (0 Bft) S-SW 192 0 min 0,000 mm 0,0 UV-I 0 W/m 7,8 C 0,0 km/h (0 Bft)
16.07.2016 23:18 9,8 C 9,9 C 87 % 1025,0 hPa 0,0 mm 0,0 km/h (0 Bft) S-SW 192 0 min 0,000 mm 0,0 UV-I 0 W/m 7,7 C 0,0 km/h (0 Bft)
16.07.2016 23:19 9,9 C 9,9 C 87 % 1025,0 hPa 0,0 mm 0,0 km/h (0 Bft) S-SW 192 0 min 0,000 mm 0,0 UV-I 0 W/m 7,8 C 0,0 km/h (0 Bft)
16.07.2016 23:20 9,9 C 9,9 C 86 % 1025,1 hPa 0,0 mm 0,0 km/h (0 Bft) S-SW 192 0 min 0,000 mm 0,0 UV-I 0 W/m 7,7 C 0,0 km/h (0 Bft)
16.07.2016 23:21 9,8 C 9,9 C 87 % 1025,0 hPa 0,0 mm 0,0 km/h (0 Bft) S-SW 192 0 min 0,000 mm 0,0 UV-I 0 W/m 7,7 C 0,0 km/h (0 Bft)
16.07.2016 23:22 9,9 C 9,9 C 87 % 1025,1 hPa 0,0 mm 0,0 km/h (0 Bft) S-SW 192 0 min 0,000 mm 0,0 UV-I 0 W/m 7,8 C 0,0 km/h (0 Bft)
16.07.2016 23:23 9,8 C 9,9 C 86 % 1025,0 hPa 0,0 mm 0,4 km/h (0 Bft) W 268 0 min 0,000 mm 0,0 UV-I 0 W/m 7,6 C 1,6 km/h (1 Bft)
16.07.2016 23:24 9,8 C 9,9 C 87 % 1025,1 hPa 0,0 mm 0,5 km/h (0 Bft) W 268 0 min 0,000 mm 0,0 UV-I 0 W/m 7,7 C 1,6 km/h (1 Bft)
16.07.2016 23:25 9,9 C 9,9 C 87 % 1025,0 hPa 0,0 mm 0,9 km/h (0 Bft) SW 216 0 min 0,000 mm 0,0 UV-I 0 W/m 7,8 C 3,2 km/h (1 Bft)
16.07.2016 23:26 9,9 C 9,9 C 87 % 1025,0 hPa 0,0 mm 0,3 km/h (0 Bft) SW 216 0 min 0,000 mm 0,0 UV-I 0 W/m 7,8 C 1,6 km/h (1 Bft)
16.07.2016 23:27 9,9 C 9,9 C 87 % 1025,0 hPa 0,0 mm 0,1 km/h (0 Bft) SW 216 0 min 0,000 mm 0,0 UV-I 0 W/m 7,8 C 1,6 km/h (1 Bft)
16.07.2016 23:28 9,9 C 9,9 C 86 % 1025,0 hPa 0,0 mm 0,0 km/h (0 Bft) SW 216 0 min 0,000 mm 0,0 UV-I 0 W/m 7,7 C 0,0 km/h (0 Bft)
16.07.2016 23:29 9,9 C 9,9 C 86 % 1025,0 hPa 0,0 mm 0,0 km/h (0 Bft) SW 216 0 min 0,000 mm 0,0 UV-I 0 W/m 7,7 C 0,0 km/h (0 Bft)
16.07.2016 23:30 9,9 C 9,9 C 86 % 1025,0 hPa 0,0 mm 0,4 km/h (0 Bft) SW 229 0 min 0,000 mm 0,0 UV-I 0 W/m 7,7 C 1,6 km/h (1 Bft)
16.07.2016 23:31 9,9 C 9,9 C 86 % 1025,0 hPa 0,0 mm 0,1 km/h (0 Bft) SW 229 0 min 0,000 mm 0,0 UV-I 0 W/m 7,7 C 1,6 km/h (1 Bft)
16.07.2016 23:32 9,9 C 9,9 C 86 % 1025,0 hPa 0,0 mm 0,2 km/h (0 Bft) SW 229 0 min 0,000 mm 0,0 UV-I 0 W/m 7,7 C 1,6 km/h (1 Bft)
16.07.2016 23:33 9,9 C 9,9 C 86 % 1025,0 hPa 0,0 mm 0,3 km/h (0 Bft) SW 229 0 min 0,000 mm 0,0 UV-I 0 W/m 7,7 C 1,6 km/h (1 Bft)
16.07.2016 23:34 9,9 C 9,9 C 86 % 1025,0 hPa 0,0 mm 0,1 km/h (0 Bft) SW 229 0 min 0,000 mm 0,0 UV-I 0 W/m 7,7 C 1,6 km/h (1 Bft)
16.07.2016 23:35 9,8 C 9,9 C 86 % 1025,0 hPa 0,0 mm 0,3 km/h (0 Bft) SW 229 0 min 0,000 mm 0,0 UV-I 0 W/m 7,6 C 1,6 km/h (1 Bft)
16.07.2016 23:36 9,8 C 9,8 C 86 % 1025,0 hPa 0,0 mm 0,4 km/h (0 Bft) SW 229 0 min 0,000 mm 0,0 UV-I 0 W/m 7,6 C 1,6 km/h (1 Bft)
16.07.2016 23:37 9,8 C 9,9 C 86 % 1025,0 hPa 0,0 mm 0,9 km/h (0 Bft) SW 223 0 min 0,000 mm 0,0 UV-I 0 W/m 7,6 C 1,6 km/h (1 Bft)
16.07.2016 23:38 9,8 C 9,8 C 86 % 1025,0 hPa 0,0 mm 0,6 km/h (0 Bft) SW 223 0 min 0,000 mm 0,0 UV-I 0 W/m 7,6 C 1,6 km/h (1 Bft)
16.07.2016 23:39 9,8 C 9,9 C 86 % 1025,0 hPa 0,0 mm 0,5 km/h (0 Bft) SW 223 0 min 0,000 mm 0,0 UV-I 0 W/m 7,6 C 1,6 km/h (1 Bft)
16.07.2016 23:40 9,9 C 9,9 C 86 % 1025,0 hPa 0,0 mm 0,0 km/h (0 Bft) SW 223 0 min 0,000 mm 0,0 UV-I 0 W/m 7,7 C 0,0 km/h (0 Bft)
16.07.2016 23:41 9,9 C 9,9 C 86 % 1025,0 hPa 0,0 mm 0,2 km/h (0 Bft) SW 223 0 min 0,000 mm 0,0 UV-I 0 W/m 7,7 C 1,6 km/h (1 Bft)
16.07.2016 23:42 9,9 C 9,9 C 86 % 1025,0 hPa 0,0 mm 0,3 km/h (0 Bft) SW 223 0 min 0,000 mm 0,0 UV-I 0 W/m 7,7 C 1,6 km/h (1 Bft)
16.07.2016 23:43 9,9 C 9,9 C 86 % 1025,0 hPa 0,0 mm 0,4 km/h (0 Bft) SW 223 0 min 0,000 mm 0,0 UV-I 0 W/m 7,7 C 1,6 km/h (1 Bft)
16.07.2016 23:44 9,8 C 9,9 C 86 % 1025,0 hPa 0,0 mm 0,8 km/h (0 Bft) W 281 0 min 0,000 mm 0,0 UV-I 0 W/m 7,6 C 3,2 km/h (1 Bft)
16.07.2016 23:45 9,8 C 9,8 C 86 % 1025,0 hPa 0,0 mm 0,7 km/h (0 Bft) W 281 0 min 0,000 mm 0,0 UV-I 0 W/m 7,6 C 1,6 km/h (1 Bft)
16.07.2016 23:46 9,8 C 9,8 C 86 % 1025,0 hPa 0,0 mm 1,4 km/h (1 Bft) W-NW 284 0 min 0,000 mm 0,0 UV-I 0 W/m 7,6 C 3,2 km/h (1 Bft)
16.07.2016 23:47 9,8 C 9,8 C 87 % 1025,0 hPa 0,0 mm 0,3 km/h (0 Bft) W-NW 284 0 min 0,000 mm 0,0 UV-I 0 W/m 7,7 C 1,6 km/h (1 Bft)
16.07.2016 23:48 9,8 C 9,8 C 87 % 1025,0 hPa 0,0 mm 0,2 km/h (0 Bft) W-NW 284 0 min 0,000 mm 0,0 UV-I 0 W/m 7,7 C 1,6 km/h (1 Bft)
16.07.2016 23:49 9,8 C 9,8 C 86 % 1025,0 hPa 0,0 mm 1,3 km/h (1 Bft) W-NW 284 0 min 0,000 mm 0,0 UV-I 0 W/m 7,6 C 3,2 km/h (1 Bft)
16.07.2016 23:50 9,8 C 9,8 C 86 % 1025,0 hPa 0,0 mm 0,5 km/h (0 Bft) W-NW 284 0 min 0,000 mm 0,0 UV-I 0 W/m 7,6 C 1,6 km/h (1 Bft)
16.07.2016 23:51 9,8 C 9,8 C 86 % 1025,0 hPa 0,0 mm 0,3 km/h (0 Bft) W-NW 284 0 min 0,000 mm 0,0 UV-I 0 W/m 7,6 C 1,6 km/h (1 Bft)
16.07.2016 23:52 9,8 C 9,8 C 86 % 1025,0 hPa 0,0 mm 0,3 km/h (0 Bft) W-NW 284 0 min 0,000 mm 0,0 UV-I 0 W/m 7,6 C 1,6 km/h (1 Bft)
16.07.2016 23:53 9,8 C 9,8 C 86 % 1025,0 hPa 0,0 mm 1,5 km/h (1 Bft) N-NW 333 0 min 0,000 mm 0,0 UV-I 0 W/m 7,6 C 3,2 km/h (1 Bft)
16.07.2016 23:54 9,8 C 9,8 C 86 % 1025,0 hPa 0,0 mm 0,6 km/h (0 Bft) N-NW 334 0 min 0,000 mm 0,0 UV-I 0 W/m 7,6 C 1,6 km/h (1 Bft)
16.07.2016 23:55 9,9 C 9,9 C 86 % 1025,0 hPa 0,0 mm 2,3 km/h (1 Bft) W-SW 247 0 min 0,000 mm 0,0 UV-I 0 W/m 7,7 C 4,8 km/h (1 Bft)
16.07.2016 23:56 9,8 C 9,9 C 87 % 1025,0 hPa 0,0 mm 0,6 km/h (0 Bft) W-SW 247 0 min 0,000 mm 0,0 UV-I 0 W/m 7,7 C 1,6 km/h (1 Bft)
16.07.2016 23:57 9,8 C 9,8 C 86 % 1025,0 hPa 0,0 mm 1,3 km/h (1 Bft) W-SW 247 0 min 0,000 mm 0,0 UV-I 0 W/m 7,6 C 3,2 km/h (1 Bft)
16.07.2016 23:58 9,8 C 9,8 C 86 % 1025,0 hPa 0,0 mm 1,2 km/h (1 Bft) W-SW 247 0 min 0,000 mm 0,0 UV-I 0 W/m 7,6 C 3,2 km/h (1 Bft)
16.07.2016 23:59 9,8 C 9,9 C 86 % 1025,0 hPa 0,0 mm 1,1 km/h (1 Bft) W-SW 250 0 min 0,000 mm 0,0 UV-I 0 W/m 7,6 C 3,2 km/h (1 Bft)
_ Min-Zeit 02:27 02:27 15:40 18:57 - 23:40 - - - - - - 13:54 23:40
Minimum _ 6,7 C 6,7 C 50 % 1024,7 hPa - 0,0 km/h (0 Bft) - - - - - - 5,8 C 0,0 km/h (0 Bft)
_ Max-Zeit 19:05 19:06 05:08 11:28 23:59 14:08 - - 20:57 15:01 13:45 14:12 09:46 18:37
Maximum _ 17,0 C 17,0 C 97 % 1027,4 hPa 0,0 mm 12,3 km/h
W-NW (3 Bft)
- - 1 min 0,406 mm 8,3 UV-I 1296 W/m 10,8 C 16,1 km/h
W-SW (3 Bft)
Durchschnitt _ 11,9 C 11,9 C 79 % 1026,2 hPa #0,0 mm 2,2 km/h (1 Bft) W - #4:11 h #2,388 mm 2,7 UV-I 174 W/m 8,0 C 3,9 km/h (1 Bft)